GFSMA_sfc_thetae_000.txt.gz
Theta_e
328 328 328 328 329 331 333 335 334 335 339 339 338 337 338 345 349 350 350 345 345 343 345 345 345 346 348 348 348 348 349 348 346 345 343 341 337 336 334 332 331 331 331
330 331 327 328 332 332 331 334 334 335 337 338 337 337 341 344 347 348 350 344 341 339 344 345 346 348 348 348 349 348 348 347 344 342 340 339 335 333 332 332 331 331 330
333 331 328 326 328 334 335 334 336 337 336 336 337 336 341 345 347 347 349 344 343 343 342 340 348 349 349 348 347 347 346 345 342 341 340 337 334 332 331 331 331 330 330
333 333 333 333 335 335 335 333 332 332 332 333 334 334 342 345 346 346 349 347 342 340 341 344 347 349 349 347 347 347 345 343 341 339 337 333 332 331 331 330 329 330 329
334 335 335 335 336 334 335 334 331 332 331 333 333 334 343 344 345 345 339 344 341 340 339 343 345 347 347 349 347 347 343 341 339 337 333 332 331 331 329 329 329 329 328
333 335 336 336 335 332 334 335 334 333 332 333 332 335 341 344 344 340 340 339 341 341 340 338 342 349 346 347 346 345 342 338 335 334 332 332 330 329 329 328 327 326 326
332 333 333 333 333 333 334 335 335 334 333 336 334 332 337 341 340 341 342 340 338 337 337 337 338 346 342 343 344 343 340 337 335 333 332 332 330 329 328 327 326 325 325
333 333 335 332 333 330 333 334 335 332 335 338 329 328 321 325 334 336 340 336 336 335 335 336 337 337 337 339 342 341 339 337 333 330 330 331 329 328 327 326 325 325 324
332 333 333 332 332 332 331 335 337 335 330 336 333 328 320 318 323 333 331 332 333 332 334 335 336 339 338 341 341 340 338 335 332 330 329 329 328 327 326 325 325 325 324
329 332 333 333 334 332 337 338 341 337 336 331 334 331 335 331 319 316 326 329 332 331 333 335 335 335 336 340 341 339 334 334 331 329 328 327 327 326 326 325 324 324 322
334 333 333 334 335 337 337 337 337 338 336 330 331 329 333 329 327 321 317 319 323 329 334 334 336 335 338 338 340 334 332 331 331 332 332 330 327 326 326 325 324 322 322
335 333 331 331 336 337 337 340 339 339 339 338 335 336 327 327 324 323 321 320 319 319 329 332 333 335 341 342 340 332 329 328 327 328 330 330 330 328 325 324 323 322 321
334 332 332 334 335 336 336 338 338 338 338 333 331 331 331 327 329 324 320 319 317 317 321 328 333 336 337 342 336 333 330 326 324 323 324 325 327 327 327 324 321 321 320
327 331 330 335 333 335 335 338 337 338 338 333 329 329 331 329 330 327 321 316 313 316 321 323 329 331 338 336 333 330 328 322 321 320 320 321 322 323 323 323 323 320 316
332 333 333 331 335 335 334 338 340 338 336 331 328 329 328 325 328 324 323 323 320 316 320 325 324 331 333 332 331 330 328 320 320 317 317 318 319 319 319 320 317 315 314
328 327 332 334 334 336 337 337 338 336 334 332 330 330 326 327 324 322 321 321 325 326 317 323 323 328 330 327 326 330 328 320 319 316 316 315 315 315 317 316 314 313 311
330 328 325 326 328 333 333 338 336 332 331 329 331 327 326 328 325 324 323 324 327 325 321 321 323 327 327 325 323 328 326 323 320 316 315 314 313 313 314 313 311 310 309
332 329 329 327 327 327 330 334 335 334 333 331 332 332 327 330 331 332 329 329 329 329 325 320 323 324 327 330 329 331 327 327 325 314 313 311 311 311 311 310 309 308 307
332 333 330 328 327 326 328 330 333 334 335 335 335 334 333 334 332 332 331 325 324 323 325 320 319 323 325 327 328 327 326 326 323 311 310 310 310 310 307 306 306 307 304
328 330 331 330 331 329 327 331 335 335 335 334 335 335 334 333 332 333 329 326 324 323 323 321 321 321 322 324 325 321 319 320 317 312 310 308 308 309 308 306 305 305 303
326 325 326 326 328 327 325 329 329 330 330 330 331 331 332 324 317 321 321 327 329 323 322 320 319 320 320 320 321 322 321 321 320 318 313 312 308 308 306 307 307 305 303
325 325 325 324 325 321 303 309 324 327 327 327 327 325 323 318 313 308 310 310 323 328 326 321 320 320 324 323 323 322 321 319 315 321 317 314 312 309 309 308 304 302 301
330 326 325 325 326 322 300 303 311 331 330 330 330 329 323 320 322 323 306 307 307 307 311 330 327 325 325 328 328 324 324 321 319 321 317 313 315 309 310 308 303 301 300
330 329 328 327 326 317 299 300 308 328 329 328 329 328 327 326 322 323 323 323 323 323 324 323 330 331 331 330 330 327 327 325 324 322 320 311 315 312 311 309 301 300 299
329 328 327 327 325 321 298 297 307 323 323 322 321 321 322 320 300 301 319 320 321 321 297 298 299 296 295 296 306 322 317 316 314 315 319 312 311 309 311 310 308 299 298
325 322 324 326 316 324 296 295 304 314 318 314 316 315 299 309 295 297 321 321 319 320 318 314 316 306 300 308 297 315 315 311 312 310 316 310 309 309 305 310 310 308 302

GFSMA_sfc_thetae_003.txt.gz
Theta_e
332 329 329 330 329 330 333 334 334 332 334 337 339 336 333 340 348 350 351 345 344 344 342 342 342 343 345 348 349 348 348 348 347 345 343 341 339 336 334 332 332 331 331
332 330 329 327 333 331 330 336 333 332 334 337 338 337 337 342 346 348 350 347 342 341 342 342 343 344 346 347 348 347 348 347 346 343 341 340 337 334 333 332 331 331 331
334 331 330 330 335 335 336 337 334 338 336 338 337 336 336 343 346 347 350 347 342 343 342 343 344 345 345 346 349 348 347 346 343 342 340 338 336 334 333 332 331 331 330
333 333 331 331 333 339 337 335 331 332 333 333 335 335 337 343 346 347 349 345 342 344 342 342 342 345 346 348 348 348 346 344 342 340 338 336 333 332 332 331 331 330 329
333 335 335 334 335 337 337 333 335 334 334 333 334 336 340 343 345 346 344 345 343 340 337 339 343 344 346 347 348 348 345 342 340 339 336 334 333 332 331 330 330 330 329
333 335 337 335 336 336 335 334 334 336 333 331 330 336 340 344 345 342 340 343 338 339 341 337 339 337 342 347 348 347 343 340 337 336 336 334 332 330 330 329 329 328 327
332 334 336 335 335 335 335 336 333 335 335 335 331 336 339 342 335 336 336 337 336 337 339 336 337 337 343 344 343 344 341 339 337 335 335 334 331 330 329 328 327 326 326
332 333 334 332 332 333 334 335 336 334 335 340 329 328 323 328 332 335 340 339 335 337 335 336 336 335 336 339 343 341 340 339 337 334 332 332 330 329 328 327 326 326 325
332 333 333 332 332 332 332 337 336 334 331 338 336 329 321 320 324 330 333 339 337 334 334 335 335 335 336 337 340 340 340 338 335 332 330 330 329 328 327 326 325 325 325
332 332 333 333 333 331 336 335 341 338 338 331 335 339 336 329 322 319 330 333 333 333 334 333 334 335 336 336 340 339 336 336 334 331 330 329 328 328 327 325 325 325 324
332 332 333 334 333 336 339 337 338 337 343 333 334 332 329 333 331 322 319 322 328 331 332 333 334 333 335 337 339 335 333 333 332 332 331 329 328 327 326 325 325 324 323
333 333 333 334 336 337 338 340 339 339 339 338 334 331 332 329 324 324 320 321 321 324 330 332 332 334 335 337 340 332 330 329 328 329 331 331 330 328 327 326 324 324 323
328 333 334 335 337 337 338 338 340 339 339 334 328 330 332 328 333 326 323 321 319 319 321 329 332 334 336 337 334 331 330 326 325 325 326 327 329 330 329 328 326 323 323
330 334 334 335 335 336 338 339 340 339 340 334 334 332 332 331 328 325 325 321 317 316 321 322 331 335 339 339 335 331 328 326 323 322 322 324 324 325 327 325 325 325 323
333 334 334 335 335 335 337 338 338 335 336 336 336 330 329 332 329 326 327 328 322 317 318 324 324 335 338 335 332 332 331 322 322 320 319 319 321 322 322 322 321 319 317
333 332 334 335 335 335 336 338 339 336 333 332 333 328 326 324 325 327 327 326 325 322 321 326 328 332 335 334 330 332 330 320 320 318 318 317 318 318 319 319 316 315 315
330 333 334 334 333 335 337 339 338 335 332 330 329 326 325 324 323 323 324 326 326 326 322 325 328 332 334 334 328 332 327 325 319 317 317 316 315 314 316 316 314 313 313
329 329 333 333 333 334 336 336 334 334 331 329 327 327 325 326 324 324 324 330 333 330 325 324 327 327 328 334 329 334 329 325 325 317 316 314 313 312 312 312 311 310 310
331 329 330 329 332 334 334 336 335 334 334 334 330 327 329 326 325 326 328 327 332 332 330 324 323 327 326 329 330 333 332 335 327 316 313 313 312 312 311 311 309 308 307
335 333 330 330 330 331 335 335 335 337 336 333 331 333 333 330 332 334 333 327 332 331 332 325 323 323 325 330 329 325 323 325 323 317 314 312 309 310 310 309 310 309 306
330 332 332 331 330 329 331 334 336 337 335 335 335 333 336 329 321 324 328 333 334 329 324 323 320 321 321 323 323 325 324 326 327 324 318 314 312 310 310 308 307 308 306
326 327 327 326 328 321 305 313 328 334 333 332 329 329 327 322 315 310 312 312 325 336 332 323 321 322 330 328 326 323 323 322 318 329 323 321 321 316 315 314 308 304 304
330 328 327 327 325 322 303 307 317 333 333 334 333 331 324 321 322 326 311 309 310 310 315 334 332 330 332 334 335 333 330 327 323 327 326 320 324 320 320 315 306 302 301
331 329 326 326 326 313 302 306 313 336 335 334 332 331 331 329 325 324 324 324 325 326 328 327 333 335 336 338 338 335 336 333 329 328 330 317 323 320 323 321 305 302 300
332 329 327 326 325 320 300 300 308 330 328 327 326 327 328 327 305 305 324 324 324 323 300 302 301 298 297 297 305 324 321 320 319 320 328 323 322 320 319 318 319 301 299
329 326 326 327 318 324 298 297 304 319 323 320 322 321 303 315 299 300 326 327 324 325 319 315 319 314 303 312 299 312 317 312 314 314 324 318 317 317 312 317 317 309 302

GFSMA_sfc_thetae_006.txt.gz
Theta_e
329 330 331 330 330 330 330 330 331 330 327 330 334 335 335 334 344 344 344 346 345 346 346 345 344 342 343 343 346 349 349 348 347 345 343 341 339 337 335 334 333 332 332
329 330 329 330 330 330 331 331 331 331 331 333 335 337 336 337 341 343 343 343 344 344 344 345 341 342 343 343 348 348 347 346 345 343 341 340 338 334 334 333 332 332 332
331 331 329 330 329 330 329 331 331 331 332 335 335 336 335 338 340 342 341 341 341 343 343 342 344 344 344 344 347 347 347 345 343 341 340 338 336 335 333 333 332 331 331
332 332 330 330 331 330 330 329 330 332 330 331 332 332 333 339 340 341 341 338 338 338 341 343 342 344 344 344 346 347 346 343 342 340 338 336 334 333 333 332 332 331 330
332 333 330 331 331 329 329 329 328 328 330 331 332 331 334 337 340 341 338 338 338 337 337 341 341 341 342 345 346 347 344 342 340 339 336 334 333 333 332 332 331 330 329
332 333 331 330 333 329 328 329 328 331 330 330 332 331 334 338 339 337 336 338 336 336 337 333 335 337 339 343 344 346 344 340 338 337 337 335 333 332 331 331 330 329 328
329 333 331 330 332 329 328 328 329 329 329 329 328 328 332 337 336 336 337 336 334 333 333 336 334 333 336 339 340 344 342 340 338 336 336 334 333 331 330 330 329 327 327
332 332 331 330 330 330 330 328 331 328 325 329 326 327 320 325 330 332 333 332 332 333 332 333 333 333 334 334 337 342 340 339 338 336 334 333 332 330 329 328 327 327 326
333 333 333 331 330 332 330 329 329 327 325 328 330 327 319 317 324 330 330 330 331 331 331 330 332 333 333 334 338 340 340 339 338 335 333 332 331 329 328 327 327 326 326
332 332 332 332 332 332 329 329 330 327 326 324 330 331 331 326 319 319 327 329 330 329 330 331 331 332 334 335 338 339 337 338 336 333 331 330 330 329 328 327 326 327 325
332 332 332 332 331 331 331 330 330 329 330 328 329 330 328 327 326 322 319 323 328 330 331 331 332 332 334 334 336 334 334 333 333 332 332 330 329 328 327 326 326 326 324
330 333 332 333 333 332 334 336 333 331 332 331 332 329 327 324 323 321 320 321 323 327 330 331 331 330 331 333 337 333 330 329 328 328 329 330 331 330 328 327 326 324 323
329 331 332 333 335 333 335 336 334 331 332 332 331 330 330 329 327 325 322 320 319 320 325 330 331 331 333 332 332 331 330 326 325 325 326 327 328 329 330 329 327 325 324
331 333 333 334 335 334 334 334 332 333 332 331 330 330 329 328 328 327 323 319 317 318 321 324 329 331 332 333 330 330 327 325 323 323 323 324 326 326 326 327 327 326 326
333 333 333 334 334 334 332 332 331 332 333 331 331 329 328 328 327 326 325 324 320 315 316 322 324 330 331 333 330 328 326 325 324 321 320 321 321 322 323 322 322 322 321
333 331 332 332 333 333 333 334 333 333 332 328 329 328 327 327 326 327 326 325 324 321 316 323 324 329 332 333 330 329 328 324 322 319 319 318 318 319 319 319 319 319 318
332 331 330 333 332 332 331 333 331 331 329 329 328 324 325 326 326 326 327 326 325 324 320 324 326 330 329 329 325 329 327 320 317 318 318 316 315 316 316 316 316 316 315
332 332 333 332 332 333 334 331 330 329 328 327 326 324 323 325 324 324 325 324 324 325 323 320 323 326 325 327 323 325 324 321 316 316 316 314 313 313 313 313 312 312 311
330 332 332 332 332 332 332 331 332 330 329 327 326 324 323 324 323 324 323 324 326 329 324 322 321 323 322 322 320 324 326 326 323 320 314 314 313 312 311 310 311 310 308
329 329 332 332 331 331 332 333 332 330 330 329 327 326 325 325 324 325 325 324 326 326 323 322 321 320 320 324 322 322 320 322 319 316 315 312 311 311 311 310 310 311 307
332 331 332 332 331 332 333 331 332 330 329 328 328 328 326 325 323 325 327 325 326 325 323 319 317 318 319 319 319 321 319 319 320 321 311 307 306 304 305 308 310 312 308
331 330 325 326 325 320 307 316 328 330 329 328 327 326 323 317 315 313 316 317 323 321 319 318 318 316 317 320 320 319 319 317 315 322 317 313 307 305 306 306 306 304 304
333 328 326 325 323 316 305 308 317 328 327 327 326 323 322 322 321 318 309 310 310 310 317 328 321 322 323 323 323 321 319 319 318 320 316 313 318 315 315 313 307 304 302
331 330 326 325 320 309 305 306 318 331 331 329 328 325 321 325 322 324 324 323 323 323 324 326 326 326 322 320 326 326 325 324 324 323 322 314 317 316 317 318 309 304 302
332 330 328 326 319 315 302 302 319 328 329 326 326 326 328 322 305 305 322 321 321 316 303 302 300 298 297 298 302 317 317 315 313 314 318 317 316 314 316 315 315 305 302
332 328 328 328 319 318 298 299 307 325 324 323 322 313 305 316 300 302 322 322 319 319 312 308 311 306 301 306 300 309 310 306 305 304 309 304 303 302 301 307 305 304 301

GFSMA_sfc_thetae_009.txt.gz
Theta_e
322 323 323 323 322 323 324 324 325 326 325 324 324 330 331 329 337 337 336 347 348 348 347 348 346 343 342 343 342 344 345 348 348 346 344 342 340 338 336 335 333 333 333
324 321 322 322 321 321 323 324 324 325 324 322 324 331 330 332 334 335 338 343 346 345 346 346 344 343 343 343 342 344 345 347 345 343 341 340 338 335 334 334 333 333 332
326 322 322 321 321 321 323 324 324 324 324 325 326 330 330 333 334 336 336 339 341 344 345 345 344 344 344 343 343 346 346 346 343 342 340 338 337 336 334 334 333 332 331
326 322 322 322 322 321 321 322 322 322 325 324 324 325 327 331 334 336 337 338 340 340 344 344 343 342 343 343 345 347 346 344 342 340 338 336 334 335 333 333 332 331 330
325 323 323 323 322 321 321 322 322 323 321 322 325 325 327 326 332 338 337 338 338 338 338 341 342 342 343 344 345 346 345 342 340 339 337 335 334 333 333 332 331 330 329
325 323 323 324 322 320 320 321 320 322 322 322 328 327 327 327 331 336 335 337 337 336 336 336 337 338 340 342 343 346 344 341 338 337 337 336 334 333 332 332 330 329 328
322 321 323 323 323 320 320 321 321 320 321 321 321 324 325 327 329 334 335 334 334 334 333 334 334 333 334 338 339 344 344 340 338 336 336 334 333 332 332 331 330 329 328
325 324 323 322 323 321 321 321 320 319 318 322 319 320 319 323 327 332 333 332 332 331 332 333 332 333 333 333 336 341 341 340 338 336 335 334 333 331 331 330 329 328 327
327 325 325 323 322 322 321 321 321 319 317 321 326 320 314 313 322 328 329 330 329 330 331 330 331 333 333 333 335 339 340 340 338 336 333 332 331 331 329 328 328 327 327
326 326 325 324 322 322 322 323 323 323 323 321 323 325 322 322 319 318 326 327 328 328 328 329 330 331 332 332 335 337 337 338 337 335 332 332 331 330 329 328 327 327 326
326 327 325 323 322 322 322 324 319 324 324 321 323 320 321 322 325 321 318 321 326 327 327 328 330 331 332 333 333 334 334 334 333 333 332 332 331 330 329 327 327 326 325
324 326 326 324 323 322 323 323 322 323 322 324 322 322 322 319 322 321 319 320 321 324 327 329 329 331 333 333 335 333 330 329 328 328 329 331 331 330 329 327 327 326 325
321 322 323 323 324 323 326 325 326 326 326 325 323 322 325 325 326 325 323 321 319 323 326 329 329 330 333 333 333 332 330 326 324 324 325 327 328 330 330 329 328 326 325
322 324 325 324 326 327 326 326 324 326 326 326 324 323 325 326 327 325 323 321 318 318 322 324 329 330 330 331 331 330 326 324 323 322 322 323 325 326 327 327 327 327 326
325 326 326 326 326 327 326 326 328 327 327 326 324 324 325 325 325 324 325 324 321 316 316 322 324 329 330 329 329 325 323 324 324 321 320 321 322 322 323 322 323 323 323
325 326 327 326 326 326 327 328 328 325 325 325 325 326 325 325 324 326 325 325 323 320 316 322 323 328 330 330 330 325 324 323 322 319 319 318 318 318 318 319 319 320 321
327 325 327 327 326 328 326 326 326 325 324 324 325 324 323 326 325 325 326 326 324 323 319 321 325 327 328 327 326 326 326 322 320 318 319 317 315 315 315 315 316 317 318
325 326 327 327 328 326 326 326 326 325 323 322 323 323 324 325 325 325 325 324 324 324 322 319 323 325 324 324 323 323 323 323 318 318 317 315 313 312 312 312 312 313 312
325 326 328 327 328 327 326 326 326 324 323 323 322 323 324 324 324 324 324 324 324 326 323 321 320 321 320 320 318 319 320 316 318 318 314 313 312 311 311 311 310 310 309
324 324 327 328 329 329 328 328 328 326 325 324 323 323 324 324 323 324 324 324 324 322 321 320 318 317 316 316 313 314 316 318 316 316 315 311 311 312 311 310 310 310 308
326 326 325 329 330 329 330 328 328 327 325 324 325 325 325 325 323 323 325 323 322 322 319 318 315 313 313 314 311 314 315 315 315 311 307 307 306 306 307 310 311 312 309
326 321 319 320 320 323 312 315 325 327 326 325 324 324 324 322 319 317 317 317 320 320 315 314 313 312 313 314 314 316 314 312 311 317 311 307 305 303 305 303 306 305 304
318 318 318 316 315 313 308 312 317 328 327 325 322 322 324 325 319 320 310 309 311 311 316 315 313 313 312 315 315 313 312 313 312 316 313 310 309 305 306 308 304 303 302
317 315 315 312 308 305 305 308 313 325 323 322 321 320 319 317 317 314 315 316 317 318 317 323 318 316 316 317 318 319 316 315 314 316 315 311 311 311 313 313 306 304 302
317 315 313 310 308 304 304 308 319 321 320 320 320 316 319 316 307 308 317 315 314 308 302 301 301 298 297 302 309 313 310 306 303 304 304 304 301 300 302 304 304 303 301
319 319 315 310 308 304 298 302 315 320 315 312 309 312 309 308 301 307 314 313 311 310 307 305 305 300 298 300 302 304 306 300 299 298 305 301 300 300 300 304 305 304 304

GFSMA_sfc_thetae_012.txt.gz
Theta_e
319 323 324 322 320 321 322 322 323 324 324 325 323 323 327 328 329 332 335 346 348 346 348 346 346 345 345 343 341 341 340 344 345 346 345 343 341 338 337 335 334 334 333
321 323 320 320 319 319 320 322 322 322 322 323 322 323 327 328 330 334 335 339 345 346 346 346 346 345 344 342 341 339 339 343 344 344 342 341 339 336 335 334 334 333 333
323 324 319 319 319 319 320 321 321 322 321 322 322 323 328 329 330 334 335 337 341 345 345 345 345 344 342 341 340 340 340 342 343 342 340 339 337 336 335 334 333 332 331
323 320 319 319 321 319 319 319 319 319 320 320 320 323 325 328 330 332 335 333 335 339 344 345 344 343 344 341 341 341 343 344 342 340 339 337 335 336 334 333 332 331 330
322 319 319 320 321 318 318 318 318 320 319 319 320 323 323 324 330 333 334 333 336 337 339 343 343 342 342 341 342 343 344 342 341 339 338 335 335 334 333 332 331 331 329
323 320 320 321 320 317 317 318 317 322 320 319 324 322 321 323 330 331 335 334 336 336 336 338 338 338 340 341 342 344 344 342 338 337 337 336 335 334 333 332 331 329 328
322 318 320 320 320 318 317 318 318 319 318 318 317 316 319 324 327 333 334 335 334 334 335 335 336 336 336 339 340 342 344 341 339 337 336 335 335 333 332 331 330 329 328
325 321 320 320 320 318 317 318 318 316 317 318 316 316 313 321 327 331 332 332 331 333 333 332 333 333 334 335 337 340 342 340 339 336 335 334 334 333 332 331 330 329 328
326 323 323 320 319 319 318 317 318 318 315 317 321 320 314 311 322 327 329 330 329 330 331 330 330 332 332 333 335 337 339 339 338 336 334 333 333 332 331 330 329 328 327
325 325 323 321 320 320 318 319 320 318 319 317 321 324 321 321 318 317 326 327 329 328 328 329 330 331 331 332 335 337 336 338 338 335 333 333 332 331 330 329 328 327 327
325 325 322 321 319 320 320 320 319 319 320 320 322 319 318 319 322 321 317 321 325 327 328 329 330 330 331 332 333 334 334 335 334 334 334 333 331 331 330 329 328 327 327
322 323 323 320 320 320 321 317 319 319 318 323 321 320 319 318 319 320 319 320 320 323 326 329 329 330 331 331 335 333 331 330 328 329 330 331 332 330 329 328 327 327 326
318 319 320 321 320 321 321 320 320 322 319 324 323 319 320 323 323 323 321 319 319 322 324 327 329 331 331 332 334 333 331 326 324 324 325 327 329 330 330 329 328 327 326
319 320 321 322 322 323 323 322 321 322 322 322 321 321 321 325 326 325 322 319 316 318 322 323 329 331 331 331 331 331 327 324 322 321 321 322 324 326 327 327 328 328 328
323 322 322 321 323 324 323 322 324 324 324 323 323 322 321 322 324 325 325 323 319 315 317 322 323 329 331 331 330 327 325 324 323 321 319 320 321 322 322 323 324 323 324
322 323 323 322 322 323 324 325 325 324 325 325 326 324 324 323 323 324 323 323 323 320 316 323 325 328 330 329 330 325 324 324 322 319 319 319 318 318 319 319 319 320 321
322 323 324 324 324 324 324 324 321 323 324 324 325 324 323 323 323 324 324 325 323 323 319 323 326 328 328 325 326 324 324 322 320 318 319 318 316 315 316 316 316 317 318
323 324 325 325 325 324 323 324 324 323 323 322 323 324 324 325 323 324 325 324 323 324 322 320 324 325 325 325 324 322 324 323 319 319 317 316 314 313 312 312 312 312 313
324 325 325 324 325 324 323 323 323 322 322 322 323 324 324 324 323 324 324 324 324 325 323 322 321 322 322 322 319 319 318 316 318 320 315 315 313 313 312 311 310 310 309
325 324 325 327 326 325 325 325 323 321 321 322 323 325 325 325 323 323 323 323 324 323 322 321 320 318 317 316 316 315 314 316 315 316 315 313 312 312 312 310 311 311 308
324 325 327 327 326 326 327 326 325 324 323 323 324 325 325 324 321 322 325 323 323 321 321 318 315 314 313 312 309 311 312 313 314 314 309 308 307 306 307 309 312 312 309
319 322 324 324 324 325 309 313 322 325 324 323 323 324 323 320 318 315 317 317 320 319 316 315 312 313 311 311 311 310 311 311 310 313 309 311 307 307 306 305 306 304 304
316 315 317 319 319 319 307 309 314 325 325 324 323 324 325 326 321 324 313 312 313 311 314 316 313 312 312 313 313 311 311 311 310 313 312 310 310 309 308 309 305 304 302
314 311 312 312 315 316 306 308 311 325 324 323 323 323 324 323 323 319 316 315 314 315 316 317 314 314 314 315 316 315 313 311 311 307 309 307 304 302 307 305 304 304 303
311 311 310 309 311 311 303 304 316 321 321 320 321 320 320 318 308 304 315 312 307 304 303 303 306 305 303 303 310 314 309 307 302 301 303 301 300 300 300 302 303 303 301
312 311 309 308 305 304 302 305 314 319 316 314 314 316 308 312 299 301 313 312 309 305 302 301 299 297 299 300 302 305 304 299 297 297 303 300 299 299 298 301 302 303 301

GFSMA_sfc_thetae_015.txt.gz
Theta_e
318 318 320 322 322 319 319 320 321 323 324 324 323 323 322 325 328 327 328 339 345 347 348 348 347 347 346 344 342 341 340 339 342 343 344 344 343 340 338 337 336 334 333
319 319 322 322 318 317 318 319 320 321 322 321 322 322 322 325 327 328 329 333 345 346 347 347 347 345 344 343 342 340 340 340 343 342 343 342 340 337 336 335 335 334 333
320 320 321 320 317 318 318 318 319 320 320 320 321 321 322 324 327 328 331 334 338 345 347 347 345 345 344 344 342 341 339 339 341 341 341 340 338 336 335 334 334 333 332
322 319 318 317 318 318 317 317 317 317 318 318 318 319 322 323 326 329 332 333 334 338 343 344 343 345 345 344 341 338 337 338 341 341 339 338 336 337 335 334 333 332 331
323 319 317 317 319 318 316 316 316 317 316 316 318 319 320 322 326 332 334 331 332 334 336 342 342 343 342 341 340 338 339 340 340 340 337 337 335 335 334 332 332 331 330
322 318 316 319 319 316 315 315 315 317 317 316 321 320 319 320 324 329 331 334 335 335 336 338 340 339 341 339 339 340 342 341 339 337 338 337 336 334 333 332 331 330 329
322 319 317 319 319 316 315 315 315 317 315 316 315 314 321 324 324 326 328 331 332 336 337 336 336 337 337 338 338 340 341 340 339 337 337 336 336 334 332 332 330 329 329
322 319 318 319 318 316 315 315 316 316 315 316 313 312 310 317 325 328 330 331 331 334 333 335 335 334 334 334 336 339 339 340 339 337 335 335 335 333 332 331 330 329 329
325 322 321 319 317 316 314 315 316 316 313 317 317 313 309 309 319 325 327 330 330 331 330 331 333 332 332 334 335 337 337 338 336 334 335 335 334 333 332 331 330 329 328
325 323 322 320 318 317 315 316 318 316 316 315 318 320 318 321 316 316 324 326 329 328 328 330 331 331 332 333 336 336 335 337 336 335 334 334 333 333 332 330 329 328 327
324 324 320 319 318 317 316 317 317 317 317 317 318 318 318 320 320 320 316 320 325 327 328 328 330 331 331 333 333 334 334 335 334 334 334 333 333 332 331 329 328 327 327
319 320 321 318 318 317 318 318 318 317 317 320 323 321 319 317 317 319 319 320 320 323 327 328 329 329 330 331 334 333 331 330 329 329 331 332 333 332 330 328 328 327 326
316 317 318 318 318 318 319 316 318 317 319 321 322 322 318 320 322 323 321 319 318 322 324 327 328 330 330 331 332 333 331 327 325 325 326 328 330 330 331 330 329 327 326
316 317 319 320 319 321 320 318 318 317 320 320 319 318 321 321 325 323 321 319 316 318 321 323 329 329 330 331 333 332 328 325 323 322 322 323 325 327 328 328 328 328 328
319 319 320 320 321 321 320 319 320 321 321 320 318 320 322 322 322 324 325 323 318 315 316 322 324 329 329 331 331 328 327 324 324 320 320 320 321 322 323 323 323 324 324
320 320 319 319 320 320 321 324 324 325 324 324 321 323 324 324 323 324 324 322 322 320 316 322 324 328 329 330 331 327 326 324 322 322 319 318 318 318 319 319 320 320 321
320 320 321 320 320 321 321 322 322 324 323 324 323 323 322 324 322 323 323 324 323 323 319 323 326 328 327 328 327 324 324 323 323 319 319 318 316 316 316 316 316 317 318
321 322 322 322 322 321 320 321 323 323 323 323 323 323 323 324 323 324 324 323 324 324 322 320 324 325 325 325 323 322 325 326 320 319 317 316 314 313 313 312 312 312 312
321 322 322 322 322 321 321 322 322 322 323 323 324 323 323 324 323 324 324 324 324 325 324 323 321 322 324 323 321 322 321 318 319 321 316 315 314 314 313 311 310 310 308
321 321 322 323 323 322 322 321 321 321 321 323 324 324 325 324 323 324 323 323 323 323 323 322 321 317 320 318 318 316 314 314 314 316 316 313 313 313 312 311 311 311 308
322 323 323 323 323 323 323 321 321 321 322 322 324 325 325 322 321 321 323 322 323 322 321 319 316 316 315 314 313 312 312 311 313 314 311 310 309 308 307 308 311 311 308
321 325 323 325 324 325 305 312 320 323 323 323 323 323 322 319 317 313 315 315 320 321 318 317 314 314 310 312 309 309 310 309 308 311 310 311 307 308 307 306 306 304 303
316 320 322 322 322 320 305 306 313 324 323 323 323 323 325 323 322 323 312 313 314 310 314 316 314 314 312 312 312 309 309 309 309 309 310 309 307 305 306 307 303 302 302
312 314 317 318 320 316 304 304 310 324 323 323 324 324 323 323 322 322 321 319 316 316 315 317 316 315 314 313 314 314 313 310 308 304 306 305 300 300 302 302 303 302 301
309 311 312 315 317 315 301 302 316 322 321 321 323 323 324 321 306 306 318 312 308 307 302 304 300 298 299 305 310 314 310 308 301 300 301 300 299 299 299 300 303 302 300
310 309 310 313 310 313 300 302 314 319 316 318 319 317 310 316 300 300 313 308 306 304 304 302 300 301 302 300 303 308 306 299 297 298 302 300 299 298 298 300 299 298 297

GFSMA_sfc_thetae_018.txt.gz
Theta_e
319 320 320 321 322 324 323 323 324 325 327 328 328 327 327 327 329 331 332 336 338 342 346 348 349 348 346 343 344 342 341 341 340 340 342 342 344 344 342 341 338 336 335
320 320 321 323 323 322 321 321 323 324 325 326 326 326 326 326 328 330 332 333 337 343 345 347 348 348 346 346 344 342 341 339 339 339 341 342 343 341 339 337 335 334 334
322 322 321 321 322 321 321 321 322 324 323 324 325 325 325 326 327 329 332 334 337 342 345 347 347 347 347 347 344 342 339 338 339 339 341 341 340 338 337 335 335 334 333
323 321 321 321 321 321 320 320 320 321 322 322 323 324 325 326 327 329 332 335 338 341 344 346 345 346 346 345 344 341 339 340 339 339 340 339 338 337 336 334 334 333 332
326 322 320 320 321 320 320 319 319 321 320 320 321 323 323 325 327 331 333 334 337 340 342 344 343 343 344 344 343 342 341 338 338 339 339 338 336 336 336 333 333 332 331
326 322 320 320 320 320 319 318 319 320 321 321 323 323 323 325 327 327 332 333 336 337 340 340 342 341 342 342 342 342 339 339 338 338 338 337 337 336 335 333 332 331 330
324 321 319 319 321 320 319 318 318 320 319 320 320 320 324 325 325 327 330 334 333 336 338 339 340 338 339 341 339 338 339 341 339 338 338 337 337 334 333 333 332 330 329
325 322 319 319 321 319 318 318 319 318 319 320 317 317 315 320 325 329 332 331 332 335 336 336 336 336 336 335 335 339 341 341 340 338 337 336 336 334 333 331 331 330 329
326 324 321 321 320 319 317 318 319 320 317 318 320 319 313 313 320 327 329 329 329 331 333 334 335 334 333 334 336 338 339 338 337 335 336 335 335 333 332 331 330 330 329
326 324 323 322 320 319 317 318 320 320 321 317 321 323 322 323 318 315 325 326 328 329 330 331 331 331 332 334 336 337 335 334 334 333 333 335 334 333 332 331 330 330 328
325 324 323 321 320 320 319 319 320 321 321 320 320 320 322 322 321 322 315 320 325 327 329 330 330 331 332 333 334 333 333 333 333 333 335 335 334 333 332 331 330 329 328
322 323 322 321 321 321 320 320 321 321 321 322 324 323 322 320 320 323 320 320 320 324 327 329 329 330 332 332 332 332 331 330 329 329 331 333 334 334 331 330 329 328 328
320 320 321 320 321 321 321 321 321 321 322 324 324 323 323 323 325 325 322 319 319 322 324 327 329 330 331 332 331 333 330 326 325 325 326 328 330 331 331 330 329 328 326
320 320 322 322 322 322 321 321 322 321 323 324 322 321 322 325 327 326 323 320 317 319 322 323 328 329 331 330 331 331 329 325 323 322 322 324 326 327 328 328 328 328 328
321 321 322 322 323 323 322 322 322 322 323 322 323 323 324 325 325 326 327 324 322 315 317 322 324 328 330 331 331 329 328 324 324 320 320 320 322 323 324 324 324 324 324
323 322 322 322 323 323 324 325 325 325 324 324 325 325 325 325 325 326 325 326 324 322 317 323 324 327 329 330 331 328 326 325 321 319 320 319 318 319 320 320 320 321 321
323 322 322 322 323 322 323 323 324 325 324 324 325 325 324 325 324 326 324 326 325 323 319 323 326 328 328 327 327 326 326 325 325 320 319 318 316 316 316 316 317 317 318
323 323 323 323 323 322 323 323 323 324 324 323 324 324 323 325 325 326 325 324 324 325 323 320 324 324 326 326 324 323 325 327 324 320 318 317 315 314 313 313 313 312 311
323 324 324 323 323 323 323 324 324 324 324 325 325 324 324 325 324 325 326 324 325 325 325 323 322 325 324 323 322 322 324 321 321 321 316 315 314 313 313 312 310 309 308
323 323 324 323 323 322 322 323 323 323 324 325 325 325 326 326 325 325 324 325 325 324 324 322 321 321 320 321 321 319 317 319 321 319 318 314 312 312 311 311 311 312 308
324 324 324 324 324 322 321 321 322 323 324 324 325 325 325 324 321 322 325 325 325 323 322 320 318 319 317 317 317 317 319 317 318 321 320 315 316 315 313 311 311 308 305
325 325 324 324 324 321 306 311 319 323 325 325 323 323 322 319 316 313 314 314 320 321 320 319 317 316 316 316 316 318 316 317 316 318 319 314 314 311 310 308 304 303 302
323 323 324 324 322 319 303 305 311 324 324 324 323 323 324 321 321 322 311 312 312 312 315 319 317 318 317 318 317 315 316 317 316 312 319 310 311 309 309 306 302 301 300
319 320 320 322 321 316 303 303 310 324 324 324 325 325 325 325 322 322 323 320 319 320 320 321 322 322 324 320 321 321 318 313 311 309 316 310 307 308 308 305 301 300 299
315 316 319 322 320 314 301 303 317 323 322 323 325 325 324 323 304 307 320 316 315 311 303 301 301 302 302 305 312 319 316 315 310 308 309 309 307 307 307 304 303 300 298
314 316 318 320 313 316 300 303 315 322 321 322 322 320 309 317 300 304 319 315 315 311 308 307 310 307 307 306 305 318 317 311 305 307 310 307 306 307 305 305 301 300 301

GFSMA_sfc_thetae_021.txt.gz
Theta_e
334 334 332 331 331 331 331 331 331 331 332 335 336 335 335 336 337 335 332 336 338 339 341 345 347 348 349 347 345 343 343 342 342 340 340 341 343 344 344 342 340 339 338
334 332 332 331 331 332 331 331 329 330 331 335 334 335 335 336 336 334 330 335 336 337 340 345 347 347 349 347 345 342 341 341 340 340 339 339 342 343 342 340 338 336 335
334 334 332 333 333 331 330 331 330 331 331 333 333 334 334 335 333 332 333 336 338 337 340 344 346 347 349 347 345 343 340 340 339 338 338 339 341 342 340 338 336 335 334
336 335 333 333 333 331 330 329 329 328 330 330 332 333 333 333 333 333 334 335 338 340 343 344 345 347 348 347 346 345 341 340 338 338 338 340 339 339 338 335 335 334 333
335 335 332 332 333 330 329 330 329 328 329 330 331 331 331 332 333 333 335 339 341 343 345 344 345 344 346 347 346 344 341 339 338 338 339 339 339 338 337 336 334 333 332
336 335 329 330 330 329 328 329 329 328 329 329 329 329 331 333 334 336 337 340 340 344 345 345 347 342 341 345 345 343 342 341 338 339 337 338 338 338 336 334 333 332 331
335 332 328 329 328 327 328 329 329 328 328 330 327 323 328 333 335 337 340 339 336 339 342 344 342 333 342 342 341 342 342 340 339 338 337 337 338 337 334 333 332 331 330
335 331 331 324 326 327 328 328 327 326 328 330 326 326 319 325 332 335 336 335 336 340 339 344 342 341 342 341 339 340 340 339 340 338 338 336 336 334 334 333 332 330 329
334 330 329 329 329 330 329 328 327 327 324 327 330 326 317 315 324 333 334 334 336 337 340 338 341 340 341 339 338 339 338 338 339 338 337 334 331 334 333 332 331 330 330
333 330 332 330 331 330 329 328 328 328 329 324 326 332 332 329 322 321 330 332 334 331 335 338 338 336 336 337 338 336 336 338 337 335 333 333 335 334 333 332 331 330 329
332 330 332 331 331 330 330 329 329 329 329 331 330 330 331 329 330 326 319 323 328 332 332 332 332 334 334 334 333 335 333 332 333 333 335 336 335 334 333 332 331 330 329
332 332 331 332 332 331 330 329 330 330 330 332 333 332 330 326 326 328 321 321 322 326 331 333 332 332 332 333 333 331 330 329 328 329 332 334 334 335 332 331 330 329 328
330 331 332 332 331 332 331 331 331 330 331 331 332 332 333 329 329 333 326 322 321 324 325 331 330 331 331 330 330 332 330 327 325 326 327 329 331 332 332 331 330 329 328
330 332 332 332 331 332 332 332 330 330 332 333 332 332 332 334 335 337 326 324 320 322 324 323 330 330 329 329 332 331 329 325 323 322 323 324 326 328 329 329 330 329 329
330 332 332 331 332 332 331 333 330 330 331 330 326 325 327 332 333 336 336 332 326 317 319 323 324 328 329 330 331 331 330 325 324 321 321 322 323 324 324 325 325 325 326
331 332 332 332 332 333 332 332 330 332 331 329 329 330 330 331 331 333 333 330 329 323 318 324 325 326 328 329 331 329 329 326 321 320 320 320 319 320 321 321 322 322 323
332 331 331 331 332 328 328 329 330 328 327 328 329 328 328 330 330 331 332 331 328 325 320 323 326 327 327 327 328 327 328 326 324 319 320 318 317 317 318 318 318 319 319
333 331 330 330 326 325 327 327 326 327 328 325 326 327 327 329 329 326 327 330 328 329 324 320 324 325 325 327 326 325 326 327 327 320 318 317 316 316 316 315 314 312 311
332 331 330 329 326 325 327 328 327 326 327 328 327 327 328 328 327 325 326 329 329 328 326 323 322 325 324 325 323 324 325 324 323 321 316 316 316 315 314 312 311 310 307
332 331 331 330 325 326 326 326 327 327 328 327 329 331 331 328 330 330 327 328 327 325 325 322 322 321 321 322 323 320 319 324 322 324 316 315 315 312 311 311 309 307 304
332 332 331 330 325 324 324 326 327 327 328 327 328 328 330 328 322 324 328 328 326 324 323 322 320 319 319 320 319 321 321 322 325 327 323 322 320 315 313 309 308 306 303
331 331 330 330 326 323 306 312 321 326 327 328 326 327 325 320 316 312 313 316 323 323 321 321 320 318 320 320 319 321 322 321 319 327 318 314 315 312 311 309 303 301 300
332 331 329 330 325 322 305 307 313 328 328 327 327 327 324 325 326 325 311 312 312 310 315 324 320 321 320 322 326 324 325 324 322 324 317 310 313 310 310 305 300 299 298
331 327 326 326 324 320 302 304 310 329 328 329 329 328 325 330 324 327 324 324 327 323 323 324 324 325 330 331 330 328 327 321 321 322 322 311 313 309 308 305 300 298 296
329 325 325 324 319 313 301 303 317 326 325 327 328 329 329 330 304 308 322 320 320 318 305 301 303 304 304 307 317 324 321 321 317 316 319 314 314 311 310 307 303 297 296
328 330 326 324 314 318 300 303 317 324 322 323 327 327 309 317 300 308 328 327 324 322 321 322 322 314 317 312 311 331 326 322 318 313 316 313 312 312 308 309 305 305 303

GFSMA_sfc_thetae_024.txt.gz
Theta_e
338 338 338 336 334 333 333 333 333 334 333 334 334 335 334 335 335 336 337 335 337 339 340 342 344 347 348 349 347 347 346 344 342 342 342 343 343 343 344 344 343 342 340
339 338 338 335 335 336 335 333 333 332 332 333 334 336 336 334 336 338 338 333 337 338 339 341 344 347 348 348 346 346 343 340 340 341 340 340 340 341 341 342 341 339 337
341 341 338 336 337 339 338 336 333 333 332 332 334 335 335 337 336 337 336 331 334 338 338 339 344 347 348 348 347 345 343 341 340 340 339 339 338 340 341 340 338 337 335
342 340 336 336 338 338 336 333 330 330 330 330 335 335 335 337 335 335 331 330 333 336 338 341 345 347 347 348 347 345 342 342 340 338 337 337 338 339 341 337 335 335 334
341 339 339 337 339 336 335 335 332 331 329 331 331 333 334 335 333 330 330 334 339 339 336 344 344 345 346 347 347 346 342 341 340 338 337 338 339 339 338 337 334 334 333
340 340 339 338 332 330 334 332 332 332 331 332 331 331 333 333 332 329 332 336 340 341 341 345 347 345 344 347 347 346 343 341 338 337 338 338 338 338 338 337 334 333 332
338 338 338 330 331 330 328 332 333 329 331 333 330 329 331 334 331 330 335 340 341 341 344 345 347 344 343 328 344 344 344 341 339 339 338 337 338 338 337 334 333 332 331
338 337 335 334 330 326 330 331 331 330 330 334 328 327 322 326 331 335 336 339 338 340 342 345 342 337 333 329 339 341 343 341 341 339 337 337 337 337 334 333 332 331 329
338 336 335 331 331 330 331 333 332 329 328 333 334 328 321 317 323 333 336 337 338 340 342 344 343 340 342 335 335 339 340 339 340 338 337 337 336 334 333 332 331 330 330
336 336 335 333 334 334 334 334 332 331 332 330 333 331 331 327 318 323 334 337 339 339 342 344 343 341 343 338 336 339 336 337 337 337 336 332 331 331 333 332 331 330 330
335 333 336 334 334 336 336 334 331 330 335 333 329 332 332 327 330 328 324 328 333 335 339 341 340 340 341 339 337 335 334 334 333 334 333 332 333 334 333 332 331 330 329
336 335 334 335 336 336 333 333 333 332 334 335 334 331 332 325 325 330 328 326 326 328 331 335 335 335 335 335 336 333 331 329 328 329 330 333 335 334 333 332 331 330 329
334 334 335 335 335 335 335 334 334 333 334 335 335 330 333 333 334 335 332 325 322 325 328 336 334 333 333 331 332 330 330 327 326 326 327 329 331 332 332 332 331 329 329
335 336 335 336 335 335 335 335 333 333 335 336 332 331 332 333 335 340 336 325 320 322 326 326 330 331 330 328 329 329 326 325 324 323 323 325 327 329 330 330 331 330 330
332 335 335 335 335 335 335 336 336 335 336 336 335 335 335 333 341 339 338 336 326 318 320 325 326 328 329 329 329 329 328 325 324 322 321 322 323 325 325 326 327 327 327
333 334 334 334 335 335 334 335 334 335 334 332 327 329 333 337 339 334 337 337 335 327 320 325 325 327 328 328 330 329 327 326 322 321 321 320 320 321 321 321 323 325 324
334 333 333 334 333 334 337 336 334 333 331 333 333 332 332 334 333 332 336 332 328 327 320 323 325 326 324 326 327 328 328 327 326 320 321 319 318 319 320 321 322 322 319
333 332 332 332 332 334 335 331 331 332 330 329 330 331 332 332 332 332 333 332 330 327 323 319 323 324 325 326 326 325 325 326 326 320 318 317 316 317 318 318 315 313 311
333 332 332 333 330 332 331 331 330 329 330 331 330 329 331 332 327 327 329 333 331 327 327 323 321 324 324 325 324 325 324 324 324 321 316 315 315 314 313 311 309 307 305
332 332 332 331 329 329 329 329 329 330 330 333 331 332 331 330 326 327 329 330 330 328 325 324 321 321 322 323 323 320 319 321 321 321 315 315 313 311 309 308 307 305 303
334 333 332 330 329 329 328 329 329 329 328 331 334 332 332 328 323 325 330 332 328 324 324 321 320 320 319 319 318 322 321 322 324 323 317 316 316 314 313 308 306 303 301
333 333 333 332 330 327 308 313 323 330 330 331 332 332 331 325 320 313 315 316 323 324 322 320 319 318 320 320 321 319 323 322 319 327 323 318 319 316 313 308 301 300 300
335 333 332 332 328 329 306 308 312 331 331 332 332 328 327 330 327 324 312 312 311 311 318 324 321 321 319 321 320 323 325 325 323 323 320 314 316 310 307 302 299 298 298
334 331 328 330 329 326 305 305 310 331 332 334 331 334 332 331 325 328 327 323 320 321 324 326 325 325 326 328 329 331 331 330 327 321 324 314 316 311 309 304 297 297 296
325 328 329 327 328 324 301 304 315 331 332 332 334 332 332 331 305 309 325 320 318 313 306 307 309 311 307 311 321 329 324 323 320 322 324 318 316 312 311 306 300 296 295
333 330 328 324 314 319 300 302 318 327 327 328 331 331 308 318 302 307 326 327 320 318 319 323 321 312 318 317 312 335 328 323 323 320 323 318 316 314 310 312 309 303 301

GFSMA_sfc_thetae_027.txt.gz
Theta_e
342 340 341 338 340 337 336 334 336 336 335 333 334 332 332 336 334 334 336 340 338 338 339 341 342 344 347 349 349 347 348 345 344 342 342 341 340 340 341 343 343 343 342
344 339 340 338 337 337 337 336 333 334 334 333 334 335 335 337 336 336 336 335 339 338 338 340 342 343 347 348 348 347 346 344 343 342 341 341 341 341 341 342 342 341 339
344 343 338 338 339 343 339 339 337 336 332 333 333 334 335 336 336 336 340 335 337 339 339 340 341 343 347 348 348 347 345 344 343 341 341 341 340 341 341 341 341 338 336
344 342 339 338 343 342 342 337 335 334 332 331 333 333 334 338 336 336 336 337 333 335 340 341 340 344 347 348 348 346 343 343 341 341 341 339 339 338 339 340 338 336 334
342 341 339 341 343 340 340 336 335 335 332 330 333 335 335 335 335 334 335 334 335 337 339 342 343 346 348 348 348 347 345 342 341 341 340 338 338 339 339 339 335 334 334
342 342 341 342 341 338 331 332 333 335 334 335 331 331 333 334 334 334 331 331 335 336 337 342 344 343 346 347 347 347 346 343 341 340 339 337 339 339 339 337 336 334 333
340 343 340 340 337 332 333 333 329 326 333 334 332 331 333 334 335 331 332 332 336 338 338 338 344 346 345 345 344 346 346 343 341 339 337 338 339 338 338 336 335 334 332
342 340 340 339 337 332 333 332 332 330 331 333 326 328 321 328 332 330 333 335 338 337 336 341 345 344 341 338 336 342 345 344 341 338 338 338 337 338 337 335 333 332 330
340 339 338 337 335 336 331 335 334 331 329 332 333 329 322 318 323 328 332 334 339 336 336 345 342 338 337 338 332 328 342 342 341 340 339 337 338 337 335 334 331 331 330
337 336 337 336 335 335 337 335 337 334 333 329 333 335 332 330 322 320 334 337 341 340 340 343 343 342 338 334 332 332 333 339 341 340 338 338 336 334 331 328 332 330 330
337 336 336 335 336 340 335 335 334 334 336 333 334 334 336 328 330 322 324 328 337 340 343 344 343 344 338 337 335 336 335 335 335 334 335 336 333 331 330 332 332 331 330
338 337 334 336 337 337 335 333 334 334 335 336 335 334 330 325 325 325 328 329 329 330 337 340 340 341 339 339 337 335 332 330 329 328 330 332 331 332 333 332 331 330 329
335 337 336 336 336 336 335 336 336 334 335 335 335 335 332 331 334 335 327 329 324 326 327 333 335 336 336 336 335 333 330 327 325 325 327 329 332 332 333 333 331 330 329
338 337 335 336 335 335 335 335 336 338 337 337 335 335 336 330 330 337 332 328 322 323 328 325 329 329 332 332 332 330 327 325 324 324 323 325 327 329 330 330 331 330 331
334 335 335 335 335 335 335 336 337 335 336 334 335 334 332 335 334 343 339 336 324 319 320 325 324 328 328 329 329 328 327 325 325 321 321 322 324 325 326 326 327 327 327
334 334 335 335 335 335 335 337 337 336 334 329 332 332 331 336 332 340 338 337 336 329 320 327 325 325 326 326 328 327 327 326 322 321 321 321 321 321 321 322 323 324 324
334 332 334 334 334 334 336 336 335 332 332 330 331 329 333 330 335 332 334 332 330 331 322 323 325 326 325 324 325 326 327 326 323 320 321 319 318 319 320 321 322 321 319
332 332 332 333 332 332 335 333 332 333 331 330 332 330 331 333 334 335 332 331 328 329 323 319 321 322 323 325 324 324 325 326 324 320 318 317 317 317 317 314 313 312 312
331 331 332 332 331 332 331 332 331 331 330 332 332 332 332 333 331 330 331 331 329 326 325 320 320 323 323 324 322 322 322 322 322 319 315 314 314 313 311 310 308 307 306
331 331 332 332 332 330 330 330 330 330 332 333 332 334 331 326 326 329 328 328 327 325 323 321 320 320 321 322 321 318 316 318 319 321 315 314 312 310 308 307 306 305 302
332 331 333 333 330 330 328 330 331 331 333 333 333 332 333 326 323 324 330 329 327 324 322 320 319 319 319 318 316 315 315 319 320 317 313 312 313 312 310 307 304 302 301
333 333 332 332 330 329 309 314 323 330 334 333 332 332 332 323 318 313 315 317 324 323 321 320 319 317 318 319 319 317 318 317 315 320 319 315 316 314 312 304 301 300 300
335 333 333 332 331 329 308 310 313 333 334 333 333 332 331 329 327 328 313 312 312 312 317 323 320 320 318 320 321 322 323 323 321 325 320 316 316 309 305 300 299 299 298
335 335 333 333 331 325 308 308 311 335 333 334 333 333 333 330 327 329 325 323 323 324 324 325 323 322 322 321 325 326 328 328 327 324 324 312 314 308 307 301 298 297 296
331 331 332 331 331 326 304 303 313 333 331 333 332 331 332 330 306 308 322 318 318 319 311 308 309 307 306 308 318 329 327 322 318 319 325 318 315 310 307 302 298 297 296
332 329 330 328 316 328 300 302 314 333 330 329 331 327 309 316 305 308 322 321 319 320 322 322 321 313 314 317 310 334 330 322 321 318 326 319 316 313 309 308 303 298 298

GFSMA_sfc_thetae_030.txt.gz
Theta_e
342 343 341 342 341 340 338 337 336 335 334 333 333 333 332 332 334 334 337 343 343 342 340 340 341 341 345 347 348 347 347 346 345 344 344 343 341 340 341 340 341 342 342
343 343 344 341 340 340 337 337 335 335 333 332 333 332 333 334 336 333 333 338 341 341 340 340 341 342 344 348 348 348 347 346 344 344 343 342 341 340 341 340 342 342 340
344 346 342 341 339 339 339 337 336 336 334 332 332 331 331 332 334 334 335 336 336 340 341 340 341 342 343 348 348 348 346 345 344 343 342 341 340 340 341 341 342 340 338
346 345 341 339 340 341 339 336 334 333 333 331 329 330 331 332 333 334 332 334 334 333 338 341 343 343 343 348 349 348 347 345 344 343 342 342 340 341 340 340 340 337 335
344 342 340 340 342 339 336 335 333 332 330 330 329 329 331 333 333 334 332 333 335 332 335 340 342 343 345 349 348 349 348 345 343 343 342 341 341 341 341 340 337 335 334
343 342 339 341 340 337 335 334 331 332 330 329 331 329 330 332 333 332 333 333 330 331 335 337 337 339 346 349 348 349 348 345 343 342 340 339 340 340 340 338 337 335 333
342 342 340 339 338 335 333 332 331 329 324 327 327 326 328 330 330 330 331 329 330 332 334 336 336 337 341 346 346 347 347 344 342 341 339 338 340 340 339 337 337 335 334
341 341 340 338 337 334 332 331 330 326 325 328 322 322 318 322 327 330 330 330 333 333 334 337 337 338 341 342 343 345 346 345 344 341 339 338 339 338 338 337 335 333 331
341 340 338 338 336 334 331 331 330 328 325 328 327 322 316 314 319 326 328 330 331 333 333 337 337 339 336 336 337 340 343 344 344 341 337 338 338 338 337 336 334 332 331
340 339 339 335 334 334 332 332 332 329 327 323 326 328 326 323 317 314 323 326 330 329 332 334 335 332 335 333 332 334 337 340 342 339 339 338 336 336 335 334 329 331 330
340 338 337 336 335 335 333 332 331 329 329 326 326 324 324 324 320 316 314 321 326 328 331 335 336 332 331 329 328 331 334 335 336 338 338 337 336 334 330 327 330 330 330
338 338 336 336 336 335 333 334 332 331 329 329 328 329 326 321 317 317 318 321 320 324 329 332 332 335 333 331 335 334 332 332 331 331 332 333 332 329 330 333 332 331 330
335 337 336 336 335 335 335 333 332 332 330 328 327 328 329 327 326 325 322 320 320 325 326 329 334 335 335 334 334 332 331 327 326 325 326 328 329 331 332 333 332 331 330
336 337 335 335 335 335 333 334 333 330 330 330 328 329 329 328 329 325 323 321 319 320 323 323 327 330 333 334 333 330 327 325 324 323 323 325 327 329 329 330 331 330 330
335 336 335 336 336 335 335 334 330 330 331 329 330 329 329 331 329 325 322 323 320 316 317 322 322 328 330 329 329 327 326 325 324 322 321 322 324 325 326 326 326 326 326
333 335 336 335 335 334 334 333 332 334 330 328 328 329 329 330 329 328 328 327 326 321 317 324 322 325 327 326 325 323 326 325 323 322 321 321 321 321 321 322 322 323 322
335 333 333 335 334 333 333 332 333 330 328 327 328 326 327 327 327 329 328 327 325 324 319 321 323 324 324 323 324 326 327 325 323 321 321 319 318 318 319 320 320 319 319
333 333 332 332 332 332 335 332 330 332 330 328 327 326 326 329 327 328 327 326 325 325 321 317 320 321 322 324 324 322 323 326 324 320 318 317 316 315 314 313 312 313 312
332 331 331 330 331 333 332 331 331 330 330 329 328 327 326 327 327 326 327 326 325 324 322 320 318 321 322 323 321 322 321 321 321 318 315 314 313 312 310 309 308 307 306
330 330 332 331 332 331 330 331 330 330 331 330 329 330 326 324 325 326 326 325 324 322 321 319 319 319 319 320 319 317 316 319 317 317 314 312 310 309 308 307 306 305 303
330 330 332 331 331 329 328 331 331 330 331 330 329 330 326 323 320 324 326 325 323 321 320 319 318 317 316 316 313 314 314 314 314 311 308 307 306 306 305 306 305 303 301
333 332 332 330 329 326 308 311 321 331 331 330 329 326 324 320 316 314 317 318 321 321 319 319 318 316 315 313 313 314 314 312 308 313 310 309 308 306 302 300 301 300 300
333 331 331 330 327 325 307 307 311 332 330 330 329 329 328 325 323 321 311 312 312 311 316 321 318 317 314 314 316 316 315 314 311 312 311 308 306 300 299 298 299 299 298
333 332 331 329 327 322 309 301 305 332 331 331 330 330 328 328 323 324 323 322 322 322 322 323 322 320 319 319 320 317 320 320 317 318 315 306 305 301 299 296 298 297 296
331 329 330 329 326 323 301 302 317 331 330 329 330 330 328 322 306 308 322 320 320 319 310 308 308 306 306 309 318 322 321 317 314 314 315 309 306 302 298 295 295 297 296
331 331 328 328 318 324 303 302 313 329 327 325 327 323 310 316 304 307 322 321 318 319 320 319 316 310 310 312 309 323 323 316 314 312 316 312 307 305 300 298 294 293 293

GFSMA_sfc_thetae_033.txt.gz
Theta_e
336 332 329 330 331 330 332 330 330 332 328 328 329 330 330 330 330 332 331 343 345 343 344 343 342 342 345 347 349 348 347 347 346 345 345 342 340 339 338 338 337 341 341
334 332 332 332 330 330 327 329 328 327 326 327 326 328 330 331 331 332 332 332 342 341 342 342 342 341 343 347 348 348 348 347 346 344 343 343 341 339 340 339 341 341 340
333 333 330 331 331 330 330 329 329 328 327 326 326 327 326 330 329 330 331 336 334 341 342 343 343 342 342 347 348 349 347 347 346 345 343 343 342 342 341 341 341 342 339
333 333 331 330 331 330 328 327 327 326 326 326 323 323 326 329 327 330 330 333 331 332 339 341 343 344 344 345 348 348 347 346 345 344 343 343 341 342 342 341 342 338 336
337 333 332 330 331 330 329 328 326 325 324 324 324 323 324 326 326 331 328 327 329 331 332 339 340 343 344 346 349 348 347 346 344 343 343 342 341 341 341 340 338 335 334
336 333 331 330 331 328 326 326 325 324 323 323 325 325 324 325 326 326 327 329 328 328 330 331 335 337 343 346 349 348 348 347 345 343 342 341 341 341 340 338 336 335 333
336 333 334 330 330 327 326 326 324 322 320 322 321 321 320 323 323 325 326 326 326 326 325 333 333 335 337 345 345 347 348 347 345 343 341 340 340 340 339 337 337 335 331
332 331 330 329 327 327 326 326 325 319 318 320 317 319 314 316 320 324 324 326 323 326 328 332 332 334 334 338 340 344 346 346 345 342 340 338 339 339 338 338 337 334 329
332 330 330 328 328 327 323 322 322 320 317 319 319 314 309 309 313 319 322 325 328 326 326 331 332 332 332 337 341 343 343 344 345 342 340 339 339 338 337 337 335 330 325
334 332 330 328 326 325 323 323 325 322 321 318 319 322 319 317 310 309 317 321 323 324 323 326 329 330 330 331 340 343 340 341 344 341 339 340 339 337 336 335 332 326 329
331 332 330 328 326 325 324 323 323 322 321 318 317 316 317 316 319 312 309 314 318 321 324 326 326 327 330 330 330 336 336 337 338 337 338 339 337 336 334 331 330 331 330
327 329 330 327 326 325 324 323 323 322 323 323 323 322 319 315 313 313 310 312 313 317 321 325 327 326 326 328 331 333 331 331 330 331 334 334 334 334 330 330 331 331 330
326 326 326 326 325 325 326 326 324 324 324 323 321 320 321 320 320 316 314 313 315 320 324 327 330 329 329 331 331 333 333 329 327 327 328 328 328 329 331 332 331 330 330
326 326 326 326 327 327 327 326 325 323 323 322 323 322 323 322 326 321 317 318 316 319 322 322 327 331 330 330 332 331 328 325 324 322 322 323 327 329 329 329 330 330 330
326 326 326 326 327 327 326 325 323 324 324 321 322 322 322 324 322 319 321 323 318 314 316 321 321 330 330 329 329 327 326 324 323 321 321 323 324 325 325 325 326 326 326
326 326 327 327 327 326 326 327 324 325 322 323 322 322 322 323 323 324 321 319 320 317 314 322 322 326 328 327 327 325 325 324 322 321 321 320 320 321 321 321 322 322 322
326 327 329 328 327 327 327 324 323 326 325 323 324 322 322 322 323 323 324 320 319 318 318 320 323 324 322 323 324 325 326 325 323 321 321 319 318 318 318 318 318 318 318
324 326 328 328 328 327 325 324 324 325 325 324 322 323 322 327 324 323 323 322 321 322 319 318 321 320 320 322 324 323 323 325 323 320 318 317 316 315 314 313 313 313 313
325 327 327 328 328 327 325 325 326 325 326 326 326 325 324 325 323 323 324 323 323 323 321 320 318 321 322 323 322 322 321 321 321 319 315 314 313 312 311 310 309 309 307
325 327 327 328 326 325 325 325 325 325 326 327 327 326 325 324 323 324 323 323 323 321 320 319 319 319 319 320 320 317 316 318 315 314 312 311 310 310 309 308 308 307 304
327 329 326 324 324 325 324 323 327 327 326 326 325 325 324 323 323 323 324 323 322 320 319 317 316 316 316 316 314 316 312 312 311 309 306 305 304 304 305 307 307 305 302
329 327 324 323 320 321 307 310 318 325 327 325 322 323 323 320 318 315 316 317 320 319 318 317 316 314 314 313 315 314 312 310 306 309 306 304 304 301 300 300 302 301 300
324 324 322 322 318 315 302 302 308 328 328 325 322 322 324 322 321 319 311 311 311 311 316 319 316 314 313 314 315 313 312 311 308 308 307 301 300 296 297 299 299 299 299
323 323 322 319 317 312 301 301 306 326 324 327 324 323 324 324 321 323 322 321 321 321 321 321 319 317 316 317 316 315 314 311 311 310 308 300 300 296 295 295 298 298 297
322 323 322 318 316 311 302 301 316 324 324 324 325 323 324 322 306 308 322 320 319 317 309 307 307 305 304 306 314 320 312 309 308 307 309 302 300 296 294 292 294 297 296
322 325 322 319 313 314 303 301 311 323 321 322 321 319 308 315 303 307 322 320 318 318 319 317 314 309 310 308 309 319 315 311 310 306 310 304 300 298 294 294 291 293 291

GFSMA_sfc_thetae_039.txt.gz
Theta_e
331 331 329 330 331 331 333 330 329 329 328 328 328 327 327 327 329 328 327 337 340 342 343 342 341 341 341 345 348 350 349 348 345 344 346 345 345 344 344 344 343 343 342
331 330 330 329 328 329 330 329 328 326 326 327 326 326 326 326 328 328 328 327 338 341 343 344 343 341 342 342 347 349 349 348 347 346 345 345 345 344 343 342 342 342 341
331 330 329 326 328 327 327 327 329 326 326 324 324 324 324 325 325 326 329 330 329 339 343 343 343 341 342 341 344 348 348 346 346 345 344 344 343 343 342 340 340 341 341
334 330 330 329 328 326 325 325 327 327 324 322 321 322 322 323 324 325 325 327 329 330 339 341 342 341 340 341 342 346 346 345 346 344 344 344 342 342 342 340 340 341 339
335 331 329 328 327 325 324 324 322 322 320 321 323 322 322 321 322 326 325 326 328 330 328 336 340 340 342 342 342 343 346 345 344 344 344 343 342 340 341 340 341 340 337
334 331 331 327 326 324 323 322 322 321 322 323 323 323 322 322 323 322 324 326 324 328 328 330 329 333 342 343 343 342 345 345 345 345 343 342 341 341 340 341 341 337 331
333 331 328 326 326 324 324 322 322 321 322 322 320 318 317 320 321 322 322 323 324 326 327 329 326 329 332 342 343 343 345 346 345 345 341 341 340 340 341 338 336 333 332
334 331 326 325 324 324 322 322 324 321 317 318 314 313 309 314 319 323 321 322 322 325 324 325 327 328 329 332 335 344 344 345 345 345 342 340 340 341 339 336 331 332 329
332 330 327 326 324 323 322 322 323 318 314 314 315 312 309 307 313 319 319 320 321 321 321 323 326 328 328 329 335 340 344 344 345 345 342 340 341 340 338 337 334 329 330
329 329 328 326 324 323 321 320 321 317 315 312 314 317 314 312 308 309 317 317 319 320 320 322 324 327 327 328 335 338 340 341 344 343 343 341 340 339 338 334 331 330 332
327 328 328 327 322 321 320 320 319 317 317 314 313 313 312 312 313 310 308 314 317 317 319 321 324 328 328 329 329 334 337 337 338 338 340 340 340 339 334 332 330 332 331
324 326 326 324 322 321 320 320 319 318 317 316 315 314 313 311 309 309 306 309 315 318 322 323 324 323 325 329 333 335 333 332 331 333 335 336 337 336 335 330 331 332 331
321 323 323 322 321 321 321 321 319 319 317 317 317 317 316 314 312 312 310 308 314 317 320 326 324 325 326 328 333 334 333 327 327 327 329 331 332 332 331 328 332 331 329
322 323 322 322 322 323 322 321 320 319 319 319 318 317 317 317 316 313 315 311 309 314 319 321 326 326 326 329 333 332 328 326 325 324 324 326 327 326 326 329 330 329 329
323 323 322 321 322 323 323 321 320 320 321 320 318 317 317 318 320 319 316 317 315 308 313 320 323 327 329 328 329 328 329 325 325 323 322 322 321 323 324 325 326 326 326
321 321 322 322 322 323 322 321 319 323 323 320 319 318 318 318 321 318 320 316 316 313 313 321 323 325 327 327 328 325 326 325 322 321 322 321 319 320 321 321 322 323 324
322 322 323 323 323 322 322 320 321 321 320 319 322 321 318 319 318 320 316 317 316 316 316 320 324 324 323 323 323 323 324 323 322 321 320 319 317 317 318 318 319 319 320
321 323 325 324 324 324 321 320 321 323 321 321 320 321 319 322 319 319 317 316 316 318 318 317 320 320 319 319 319 318 320 321 319 320 318 317 316 315 314 314 314 314 314
321 322 324 324 324 323 322 322 323 323 323 323 321 321 322 322 321 321 317 316 318 321 321 319 317 319 318 318 317 317 317 318 319 319 315 314 314 313 312 312 310 310 309
320 322 322 324 323 321 322 322 323 322 324 324 324 324 323 323 323 321 321 320 320 320 319 319 317 316 318 319 319 316 314 314 311 313 312 311 312 312 311 310 310 309 307
323 325 323 321 320 319 318 320 322 323 324 323 324 324 324 323 321 321 323 321 321 319 318 317 316 316 316 315 314 314 310 310 308 310 307 306 305 305 307 310 312 309 305
325 324 320 319 316 317 301 305 316 324 324 322 321 321 321 319 316 313 315 316 320 319 318 317 317 314 315 314 313 312 310 309 305 309 304 300 301 298 300 302 304 303 302
322 318 317 317 314 313 299 301 309 322 319 319 323 323 323 321 320 319 311 311 311 311 316 320 316 316 314 314 314 312 311 309 306 306 302 296 297 295 297 299 300 300 300
317 316 315 314 314 311 300 302 309 320 319 321 323 323 321 321 319 319 320 319 318 319 319 321 320 318 317 317 316 315 310 306 306 304 303 297 296 294 294 294 299 299 298
316 314 314 313 314 313 299 302 315 320 323 322 323 323 322 320 304 306 318 314 313 311 307 306 306 304 302 304 309 312 308 307 303 303 304 298 295 292 292 292 293 298 297
318 316 313 313 310 315 300 302 315 323 320 319 319 318 309 314 301 305 318 315 312 313 314 313 311 307 309 306 306 314 311 307 304 301 304 297 295 294 293 292 291 293 292

GFSMA_sfc_thetae_042.txt.gz
Theta_e
333 333 334 333 332 332 336 336 336 335 334 333 332 331 330 329 330 330 331 335 338 340 342 343 342 342 343 345 346 348 347 347 346 346 345 345 346 345 345 344 343 342 341
332 331 331 331 330 331 332 334 333 333 332 331 330 330 330 330 331 333 333 334 336 340 341 340 342 342 342 343 345 347 347 345 347 345 345 344 345 345 345 343 343 342 341
332 330 330 329 329 331 331 332 331 330 329 328 329 329 329 329 329 330 330 334 333 335 339 342 343 342 342 340 342 344 346 346 347 346 346 344 344 345 344 343 342 342 341
332 330 329 328 330 329 329 329 329 329 329 328 326 326 328 328 328 329 329 331 332 333 334 341 343 342 341 339 341 342 346 345 345 346 345 344 344 344 343 342 342 342 341
334 331 330 330 330 329 328 328 327 329 326 325 326 327 325 325 327 327 329 329 330 336 334 336 340 340 341 340 340 342 345 345 344 343 344 345 344 343 343 342 341 341 338
335 332 331 330 330 328 327 326 326 325 326 326 325 326 326 325 327 327 328 329 330 332 334 333 336 337 340 341 342 342 343 345 344 344 344 343 342 343 342 341 340 339 334
335 333 331 330 329 328 328 326 325 325 325 326 323 321 323 325 325 326 326 329 329 330 331 334 334 335 335 341 342 343 342 344 344 344 342 341 341 341 341 340 340 333 333
334 334 332 329 329 326 326 325 326 324 323 324 319 317 315 319 322 325 325 326 328 328 329 331 331 331 335 338 342 343 343 344 344 345 342 340 341 341 340 334 332 329 328
334 334 329 328 327 327 326 326 325 323 319 320 320 318 312 312 316 322 322 322 327 327 329 330 330 331 333 336 338 343 343 343 344 344 343 341 341 341 337 333 329 327 331
332 330 329 328 327 326 325 325 324 324 319 317 319 319 318 317 314 313 318 320 324 326 325 328 330 332 333 334 335 339 339 341 344 343 343 341 341 338 334 332 332 331 333
329 330 329 329 328 326 325 324 322 321 321 318 319 318 317 317 318 316 312 318 321 323 325 327 329 332 332 333 335 336 336 336 339 338 340 341 341 337 334 332 332 333 333
327 328 329 329 327 325 324 323 323 322 321 321 320 319 318 317 315 316 313 314 317 320 324 324 326 327 330 330 332 334 332 332 331 331 334 336 338 336 335 332 333 334 332
324 325 326 325 325 325 324 324 323 322 321 320 321 320 320 319 318 318 316 314 317 320 324 327 327 328 329 333 334 335 334 328 326 328 329 331 333 332 332 333 334 333 331
325 326 326 326 325 325 325 324 324 323 323 322 321 321 321 321 320 320 319 317 316 318 321 323 327 329 329 331 334 333 331 326 325 324 325 327 327 328 329 331 331 330 329
325 325 325 325 325 325 325 324 324 323 324 323 323 322 321 322 322 321 322 321 320 313 316 321 323 329 330 331 331 331 332 326 326 323 322 323 322 323 325 325 325 326 326
326 325 324 324 325 326 326 325 323 324 324 323 322 322 321 322 323 323 323 322 322 319 315 322 323 327 328 327 329 330 329 326 322 320 319 318 320 320 321 321 322 323 324
323 324 324 325 325 325 325 324 324 324 324 322 323 322 322 322 322 321 321 322 321 322 317 322 324 325 324 323 324 325 325 324 321 320 319 318 317 317 318 318 319 320 321
324 325 326 326 326 326 326 324 324 325 323 321 321 322 321 323 322 320 320 321 322 324 322 318 320 320 319 320 321 321 322 324 321 320 318 316 316 315 315 315 315 315 315
324 326 327 326 326 326 325 324 324 324 324 323 321 321 322 324 321 320 320 321 323 324 324 320 317 318 317 318 317 317 318 320 320 319 316 316 315 315 313 312 311 311 310
323 324 326 326 325 324 324 325 325 325 324 324 323 324 324 324 323 321 321 322 323 322 321 318 316 316 316 317 317 314 313 315 312 313 313 313 313 313 312 311 311 310 307
323 325 324 323 323 322 319 322 325 324 323 323 324 324 324 324 321 321 322 323 322 321 318 316 316 315 315 314 313 313 309 310 309 311 307 307 309 310 311 312 313 310 306
324 325 322 321 320 315 301 304 316 327 326 323 321 322 322 319 316 313 315 316 320 320 318 317 316 314 314 313 313 312 310 309 305 309 305 301 306 305 307 309 306 304 303
322 321 320 320 318 316 300 301 310 324 324 323 323 322 323 321 320 320 311 312 311 311 316 320 316 316 314 314 314 313 313 311 307 306 305 302 303 302 303 303 302 302 301
320 319 318 318 318 313 301 303 307 323 323 324 324 323 321 321 320 320 321 320 321 321 321 323 322 319 318 317 317 314 308 306 306 306 309 303 301 300 301 302 300 300 299
319 318 318 317 318 317 301 303 314 325 323 323 324 323 322 319 304 306 318 315 316 314 308 308 308 304 302 303 309 313 309 308 306 307 307 305 301 300 299 299 299 299 297
319 318 316 317 311 319 301 303 316 323 321 320 320 318 308 312 301 304 317 315 313 313 313 312 310 306 308 306 307 315 313 308 309 308 310 304 300 301 300 299 299 300 300

GFSMA_sfc_thetae_045.txt.gz
Theta_e
341 340 340 338 339 341 341 341 342 343 345 345 343 340 339 339 339 338 338 336 338 340 341 342 342 343 344 346 346 346 349 349 346 344 345 345 346 344 344 343 344 343 341
343 340 340 339 340 339 338 338 340 343 346 344 342 340 339 340 339 339 338 338 337 339 340 340 341 343 344 344 343 346 347 348 347 346 345 345 344 344 344 343 342 342 341
342 340 338 338 338 340 339 338 340 343 342 344 341 339 339 340 339 338 338 337 337 337 338 340 341 342 344 343 342 343 346 347 346 346 344 343 344 344 344 344 343 342 341
342 340 338 337 339 338 337 336 335 340 343 343 339 337 338 339 338 335 337 337 336 336 337 339 341 343 344 342 341 342 345 347 346 345 344 344 344 343 343 344 343 342 342
342 341 338 340 339 337 337 336 336 340 341 341 337 337 337 339 337 334 333 337 338 337 337 339 340 342 343 341 341 341 343 347 346 345 344 344 342 343 344 344 343 342 339
342 341 339 340 340 338 336 335 339 339 338 338 335 335 336 336 335 333 334 335 336 338 339 341 342 338 340 341 341 341 343 346 346 345 344 341 342 343 343 343 342 339 335
343 341 340 340 340 338 335 339 339 338 335 331 332 330 332 334 334 333 333 334 335 336 338 340 341 339 338 340 342 344 343 345 344 344 343 341 340 342 342 341 340 335 332
341 342 342 336 334 335 340 339 338 334 334 332 325 324 322 326 330 332 333 331 330 334 335 337 340 340 340 340 341 343 342 344 345 344 344 339 340 341 341 340 337 334 335
343 343 339 336 339 341 338 339 338 335 327 326 328 327 321 319 325 330 331 331 334 333 335 337 338 339 341 340 339 341 344 343 345 344 343 340 341 340 339 336 334 332 333
343 340 338 342 342 340 340 337 334 332 328 325 325 328 328 327 321 318 327 328 329 330 335 338 338 333 338 339 340 339 340 341 344 343 344 341 341 338 336 332 329 331 332
343 338 343 342 341 339 339 339 334 328 329 330 328 326 326 327 329 324 320 322 323 332 336 330 339 339 339 341 343 338 336 338 339 340 341 341 340 338 335 331 331 333 335
340 340 339 340 341 339 338 337 336 334 331 332 329 328 326 323 323 323 324 323 322 323 328 328 333 333 337 341 338 334 333 333 332 332 335 337 338 336 333 332 334 336 335
338 339 340 340 338 338 337 336 335 334 333 330 331 328 328 327 329 327 323 323 323 322 326 330 331 332 335 341 340 334 334 329 327 328 329 332 332 332 333 334 336 335 333
337 340 339 339 337 336 335 335 333 332 333 332 332 331 330 330 329 327 324 326 319 320 326 327 332 333 332 335 336 333 339 326 325 325 325 328 328 329 330 332 332 331 331
338 338 338 337 336 335 335 335 332 333 334 333 329 332 331 330 330 329 328 333 328 315 318 326 328 333 335 337 335 337 339 325 327 323 323 324 325 325 326 326 326 326 327
337 337 336 336 335 335 335 336 334 334 333 332 326 332 332 330 331 331 329 327 333 327 318 326 326 329 332 332 334 335 336 327 324 323 322 321 321 322 322 322 322 323 324
337 335 334 333 334 334 336 335 334 333 332 329 326 330 330 331 329 330 326 329 328 330 319 324 326 328 326 326 327 329 328 325 323 321 322 320 318 318 318 319 319 320 322
334 333 333 333 333 334 335 334 333 332 330 324 323 323 324 329 331 327 326 330 327 332 326 318 321 321 322 323 323 322 322 323 322 321 319 318 316 315 314 315 315 316 316
333 333 334 333 332 333 333 333 332 331 329 327 324 324 324 327 328 324 328 327 329 332 328 320 319 320 320 320 320 320 319 319 320 320 316 316 316 315 315 313 312 312 311
333 334 334 333 333 332 332 333 332 331 328 326 325 324 324 327 326 322 326 329 330 330 324 319 317 317 317 318 319 315 314 315 313 316 316 316 315 314 313 312 312 312 308
333 334 333 333 332 331 327 332 332 329 327 325 325 326 326 328 323 326 329 329 330 324 319 317 316 316 315 315 312 313 311 311 310 313 310 311 317 315 314 314 315 312 308
333 333 332 330 330 325 302 304 319 332 330 326 322 324 324 321 319 314 316 317 327 325 322 320 316 314 316 314 314 312 310 309 305 311 308 305 311 311 313 314 308 305 305
334 332 331 329 328 328 301 302 310 331 328 326 324 323 323 321 321 323 312 312 312 311 319 323 319 317 315 316 316 313 313 313 309 309 309 305 312 309 314 311 303 303 302
332 331 330 329 329 323 302 303 308 331 328 329 327 324 322 323 321 321 323 324 325 325 325 326 325 323 321 322 322 320 317 310 309 311 318 312 314 312 312 312 301 302 300
330 330 330 328 329 323 302 302 317 328 327 327 326 324 323 320 305 306 323 322 322 319 309 307 308 304 302 304 310 315 312 313 309 313 317 315 313 311 312 310 307 300 299
330 328 328 329 314 323 301 304 318 325 323 322 322 319 309 314 300 304 321 321 317 315 315 315 313 308 309 307 308 318 315 310 312 313 317 315 312 311 308 309 309 307 305

GFSMA_sfc_thetae_048.txt.gz
Theta_e
346 343 343 338 339 339 340 341 341 344 344 345 345 343 341 340 341 340 339 341 339 339 341 342 341 342 343 345 347 346 347 350 348 346 344 344 345 343 343 342 339 338 340
349 342 342 339 338 339 338 341 339 342 343 343 344 344 342 341 341 342 339 340 340 340 341 342 342 342 343 344 345 346 347 349 349 345 345 345 344 343 344 343 340 341 340
351 348 341 341 338 341 342 340 340 342 340 344 344 345 343 341 340 341 341 338 340 341 340 340 341 341 342 344 343 342 346 347 348 346 345 344 345 344 345 343 343 342 341
349 347 342 341 340 341 338 337 336 334 335 344 345 346 343 342 340 341 341 340 339 337 339 341 341 342 341 344 343 342 344 346 347 345 344 345 344 344 343 342 343 342 341
349 346 343 342 346 339 337 336 334 335 333 343 342 344 343 340 340 340 341 340 341 339 339 341 342 342 343 345 342 342 343 346 347 346 345 344 344 343 343 344 343 342 341
348 347 345 346 345 339 335 335 336 335 340 343 340 338 340 342 344 342 339 339 337 339 339 339 340 337 344 344 342 342 342 343 346 346 344 342 343 342 342 343 342 339 334
348 347 346 343 344 340 339 339 337 339 341 341 338 338 338 338 339 338 340 339 339 338 337 340 339 342 339 342 342 341 341 343 345 346 343 341 341 342 343 342 340 335 330
349 345 348 345 345 341 341 341 340 338 337 338 333 330 324 333 336 341 341 340 339 340 337 338 339 340 341 340 340 342 342 343 344 345 343 341 341 342 342 341 337 332 332
345 347 348 346 345 343 340 343 344 341 336 337 337 331 322 321 329 333 335 338 338 338 335 340 340 341 343 342 341 341 343 342 343 346 343 341 342 342 341 339 336 333 334
347 348 348 346 345 344 344 344 343 343 340 330 329 333 334 331 323 323 332 335 337 334 335 336 340 340 342 340 341 341 341 342 343 345 344 343 343 341 341 338 335 334 329
347 348 348 347 348 344 345 343 341 341 337 335 331 330 330 330 331 328 322 327 331 331 335 339 336 343 340 340 344 341 339 340 341 341 341 342 342 341 339 335 334 332 331
346 348 348 349 348 345 345 345 343 338 337 335 334 333 328 325 326 326 328 328 325 329 333 335 336 337 343 341 339 335 335 335 334 333 335 338 338 338 335 334 334 334 336
345 347 347 346 344 345 344 344 342 339 336 334 336 330 330 331 333 332 330 329 323 326 329 334 335 336 342 342 341 336 335 332 328 328 330 332 334 334 333 334 335 336 335
344 349 346 346 345 343 342 342 337 335 337 335 336 334 331 331 333 332 330 329 322 323 330 330 337 337 339 343 339 333 337 327 325 325 326 328 328 329 330 332 333 333 332
343 346 345 344 342 341 340 340 334 336 336 336 336 336 334 337 332 333 336 335 330 318 320 329 332 338 338 339 338 340 342 326 326 323 323 324 324 326 326 327 327 327 327
344 344 343 341 341 339 338 338 335 336 335 336 334 333 334 336 337 336 334 332 333 328 323 332 332 336 338 336 335 339 339 328 323 323 323 322 322 322 322 322 322 323 324
343 341 340 339 337 337 337 337 336 335 334 335 332 327 333 335 336 336 338 335 331 331 323 328 330 330 330 330 332 335 336 330 325 322 322 321 318 318 318 319 319 320 322
340 338 336 335 335 334 337 336 335 333 334 333 327 326 328 333 332 335 330 327 335 337 327 323 324 322 324 327 327 326 326 327 327 322 320 318 316 316 315 315 316 317 317
336 335 335 334 333 334 335 336 335 333 333 333 327 325 326 329 331 331 326 335 335 336 329 323 319 321 321 322 320 321 321 322 322 321 318 316 315 315 314 313 313 313 312
335 335 335 334 335 334 335 334 333 333 330 328 326 324 325 326 331 329 334 332 334 332 328 323 319 318 319 320 318 315 315 318 317 319 318 316 315 315 314 313 314 313 310
335 335 335 335 335 335 333 334 333 334 332 325 326 325 327 326 324 325 329 334 334 329 324 318 316 316 315 315 313 315 313 313 313 316 315 315 317 321 319 315 318 313 308
336 335 335 334 334 331 304 306 319 335 331 326 324 326 328 323 323 316 317 319 328 328 325 320 317 315 315 315 314 312 311 311 307 314 313 313 317 316 318 325 308 307 307
337 335 335 334 333 333 304 304 309 335 332 326 325 325 324 327 325 331 314 315 314 312 321 329 320 318 315 318 319 316 316 315 311 309 313 309 313 311 312 312 305 305 304
335 336 335 333 333 328 304 303 309 334 333 330 326 326 323 325 325 328 330 330 330 331 331 330 324 323 322 324 324 322 319 315 313 314 316 307 315 315 318 319 304 304 302
336 336 335 333 333 329 302 303 313 333 331 330 327 324 324 324 307 307 328 327 328 326 308 307 310 306 306 306 314 320 312 312 311 313 317 314 317 316 318 319 314 302 301
335 334 332 332 318 328 301 303 318 330 330 326 324 321 310 316 300 305 328 325 322 319 320 319 315 310 314 309 308 322 322 316 314 313 321 319 318 317 313 318 317 310 310

GFSMA_sfc_thetae_051.txt.gz
Theta_e
347 343 346 341 342 340 341 341 341 345 345 344 343 342 340 341 341 339 338 343 341 341 341 342 343 342 343 346 347 347 348 350 349 346 345 343 343 343 342 339 337 339 337
351 346 347 343 342 341 340 341 342 342 342 344 343 343 342 344 343 344 338 342 343 342 341 343 343 342 343 344 346 347 348 349 349 347 344 344 344 345 343 342 341 337 339
355 353 345 343 343 344 349 346 347 344 339 342 344 345 343 343 343 346 342 341 342 344 342 343 343 343 343 344 345 345 347 347 348 347 344 344 345 343 343 343 343 339 339
358 355 345 346 347 345 343 340 338 336 338 337 340 343 344 344 342 341 342 340 340 339 341 343 343 342 342 343 345 343 346 346 347 347 345 343 344 343 342 343 343 341 341
353 352 346 347 353 343 342 341 338 338 336 335 336 344 345 344 342 339 339 339 342 339 338 341 343 342 343 344 345 343 344 346 346 346 345 344 345 344 343 342 342 342 341
352 352 347 351 350 343 341 339 343 338 335 334 339 341 345 345 342 339 341 342 340 339 340 339 339 337 342 344 345 344 344 343 346 346 345 343 343 343 343 343 342 341 339
351 354 347 350 350 346 347 349 341 340 333 342 339 340 336 340 342 341 345 344 340 338 339 338 338 340 337 343 344 345 344 343 344 345 345 341 342 343 342 342 341 339 335
353 350 352 350 349 345 348 345 345 335 335 341 334 330 325 335 335 341 338 341 340 340 340 339 340 342 338 339 340 343 342 343 344 346 345 341 342 343 342 342 337 335 333
351 350 350 350 350 349 342 346 343 344 337 338 339 332 324 320 331 337 338 338 339 340 340 338 339 339 336 334 340 340 343 344 344 346 344 342 342 343 342 339 334 333 332
350 348 349 350 351 347 348 345 346 344 341 334 336 335 335 332 326 325 335 338 339 339 336 338 339 341 341 337 342 340 340 343 343 346 344 343 343 342 341 335 335 333 333
349 347 349 350 348 346 351 350 348 344 340 339 333 331 332 333 332 326 325 329 334 338 334 339 338 343 342 340 345 338 339 341 341 341 342 342 343 343 340 337 335 335 330
347 347 349 349 352 351 347 344 345 344 344 341 338 333 332 329 327 327 328 329 330 333 333 335 337 342 344 342 339 336 336 337 336 333 336 339 340 341 340 337 336 333 333
344 349 352 353 348 348 346 345 345 343 340 337 338 334 331 330 330 334 332 330 328 329 332 338 341 334 336 344 340 338 337 333 329 329 331 333 336 337 336 337 334 334 336
348 354 351 348 346 345 344 345 343 342 342 336 338 337 335 333 339 338 334 332 326 325 330 331 342 340 337 345 340 334 335 328 326 326 325 326 329 330 332 332 333 333 333
349 348 347 346 344 343 343 343 339 337 339 339 338 338 335 335 340 332 339 337 330 320 323 329 331 340 340 342 338 339 337 326 326 324 323 325 324 326 327 327 328 328 328
347 347 344 343 343 342 341 341 338 338 337 335 338 337 336 334 338 335 341 340 338 330 322 333 334 338 341 340 336 341 339 329 324 323 322 322 322 322 323 323 323 324 325
344 341 341 340 340 339 339 339 339 336 334 336 336 333 334 336 337 338 339 338 329 329 326 330 333 335 335 336 338 339 337 333 327 322 322 321 319 319 319 319 320 321 322
340 339 339 338 336 336 337 335 334 335 333 332 333 331 329 332 334 337 340 336 337 338 330 326 326 324 326 328 330 329 330 330 328 322 320 318 316 315 315 316 316 317 317
338 338 336 334 333 333 335 335 333 333 333 333 333 329 326 329 329 335 337 332 337 336 336 326 320 322 322 323 321 323 324 324 324 322 318 316 315 315 315 314 314 313 313
336 335 335 334 333 334 335 335 334 334 334 331 328 327 326 327 330 331 332 335 335 331 329 322 320 319 319 320 321 317 316 320 318 320 319 317 316 315 314 314 314 314 311
335 334 334 336 335 334 329 335 335 335 334 331 327 325 327 326 323 323 337 335 335 330 326 320 318 316 315 316 315 317 314 314 316 316 316 315 316 318 318 316 318 315 310
334 337 335 334 335 330 305 309 322 335 334 330 325 325 327 323 323 316 315 317 330 331 323 320 317 315 315 315 316 315 313 312 307 317 314 314 320 320 322 322 316 309 307
339 335 335 335 334 331 306 307 310 336 332 329 327 327 327 330 326 331 316 315 315 314 321 327 320 317 315 318 317 317 321 319 313 313 314 310 317 318 323 315 307 306 305
337 338 336 334 334 326 306 304 307 333 333 330 326 327 325 329 330 331 331 332 331 331 330 329 326 321 322 322 321 321 319 315 314 315 318 308 314 317 320 319 306 305 304
337 337 335 334 333 332 305 305 314 333 332 329 327 326 325 327 309 306 331 328 326 324 310 310 311 306 304 307 315 320 314 312 309 311 315 313 314 314 316 320 315 305 303
336 335 333 335 321 332 304 304 315 332 329 328 326 323 310 319 303 304 329 328 324 320 320 319 314 310 313 309 308 322 316 312 312 310 317 316 319 318 314 321 320 313 310

GFSMA_sfc_thetae_054.txt.gz
Theta_e
340 340 340 338 339 338 339 336 338 338 340 341 342 343 340 341 339 338 339 345 343 344 341 341 342 343 344 346 348 347 349 349 348 347 344 344 342 343 342 341 338 340 339
344 341 340 343 340 339 339 338 336 338 339 341 342 342 343 342 342 340 341 340 344 344 344 343 343 343 343 344 347 348 347 348 348 347 345 344 341 343 343 342 339 338 337
344 345 343 338 343 343 342 342 339 340 343 342 341 344 342 339 341 342 341 339 340 344 345 345 344 344 343 344 345 347 347 347 348 347 345 343 344 342 344 342 341 341 339
350 348 346 345 342 345 341 342 342 340 339 338 340 340 342 343 342 342 340 340 338 337 343 344 345 344 344 346 344 346 347 346 346 345 345 343 343 343 343 343 343 341 338
351 351 347 346 350 344 343 342 338 341 337 338 337 337 342 341 339 341 339 339 338 338 337 341 342 343 343 344 345 345 346 345 345 345 345 344 343 343 343 342 342 342 341
353 350 350 347 352 345 342 342 341 340 337 336 333 335 340 339 340 339 338 338 337 338 338 337 336 335 341 344 345 346 344 345 345 347 346 343 342 343 342 343 342 342 341
352 352 348 350 348 344 343 346 343 340 336 336 336 335 335 338 337 338 338 336 337 338 337 337 335 335 335 340 342 344 345 344 343 346 345 342 342 343 342 342 342 341 338
353 351 348 347 347 345 346 345 342 336 334 338 333 332 325 330 335 336 336 337 335 335 336 337 335 335 335 333 335 343 345 344 344 344 343 341 342 343 343 342 342 338 336
353 351 348 348 347 346 343 344 341 338 332 335 337 330 322 319 324 332 334 334 334 333 334 334 334 333 334 333 336 340 343 342 344 344 345 342 341 342 342 341 339 337 335
351 349 348 348 348 345 344 342 342 338 339 333 335 335 334 329 321 320 329 331 333 332 332 332 330 333 330 326 331 339 339 341 344 346 345 344 343 342 340 338 336 335 335
350 348 348 349 347 346 347 343 343 342 340 335 333 331 331 330 329 323 319 324 330 331 331 331 332 332 327 324 329 331 338 340 341 342 342 343 343 342 339 337 336 335 333
347 347 347 346 349 347 346 345 345 343 339 338 336 332 329 326 324 324 321 322 323 327 329 330 330 331 331 333 334 335 335 336 335 334 336 339 341 340 338 337 336 336 335
344 345 345 345 347 348 347 345 343 340 340 337 335 333 332 330 331 327 324 322 321 325 326 328 332 332 334 333 335 337 337 333 330 329 330 332 336 335 337 337 337 334 334
343 345 346 348 347 347 345 345 342 341 338 337 336 334 332 331 330 330 326 323 318 320 324 324 331 330 332 334 336 336 333 329 326 325 326 327 331 331 333 333 332 332 333
346 346 348 347 345 345 343 343 341 338 337 337 335 334 332 332 332 330 331 329 322 315 318 322 325 330 332 333 333 333 333 327 326 323 323 324 326 326 328 328 328 329 328
348 347 346 346 344 343 342 341 339 337 336 336 334 333 333 332 334 333 332 330 327 322 317 324 326 329 332 334 332 335 331 327 323 322 322 322 323 323 324 324 324 324 325
347 346 344 342 341 342 340 338 337 335 334 334 333 331 332 333 331 332 332 329 328 326 321 324 328 330 329 329 332 330 332 328 325 322 323 320 319 320 320 320 320 322 322
343 341 341 339 338 338 336 336 334 333 332 331 332 330 328 332 330 329 330 327 328 328 324 321 323 323 325 327 329 328 329 328 327 322 320 318 318 317 316 316 317 317 318
342 339 339 337 336 336 334 334 334 333 333 332 331 329 326 327 326 326 328 327 328 329 327 321 318 321 321 323 322 324 324 325 325 322 318 317 315 315 315 315 314 314 313
339 339 338 335 333 333 334 334 333 333 333 333 330 326 325 325 326 326 328 329 327 326 324 319 318 318 318 320 320 318 316 320 319 321 319 317 316 315 314 314 314 314 311
338 336 336 333 333 330 329 334 335 332 332 328 328 326 324 324 322 321 326 329 326 326 320 317 316 316 315 316 315 316 313 314 315 317 316 318 319 318 317 317 319 316 310
338 333 334 333 327 324 305 310 323 333 333 329 326 324 326 322 321 314 317 317 325 324 319 317 316 314 315 315 315 314 313 312 308 317 314 314 318 318 320 321 314 309 308
337 335 334 333 330 322 304 308 312 334 332 329 326 323 325 328 324 325 313 314 315 315 319 321 317 317 315 316 316 315 315 314 311 314 315 311 316 315 316 312 309 307 306
337 335 334 333 330 320 307 307 308 334 331 329 326 325 325 327 327 327 327 326 326 324 323 324 321 319 319 319 320 319 317 313 314 315 316 309 314 314 317 310 307 305 305
334 334 335 333 331 324 304 305 316 332 330 327 326 324 324 326 308 307 327 325 322 318 310 311 309 306 304 307 312 317 313 312 309 310 315 311 311 313 314 312 308 305 303
335 335 334 333 320 324 303 303 315 329 327 326 325 321 308 317 302 304 327 325 319 318 318 317 314 308 310 309 308 318 316 312 311 309 314 312 312 312 308 315 312 306 304

GFSMA_sfc_thetae_057.txt.gz
Theta_e
334 333 331 332 332 333 336 333 332 335 336 337 337 338 338 339 338 335 339 347 344 344 343 342 343 344 345 347 348 348 349 349 349 345 344 344 344 346 342 338 342 341 338
336 333 332 332 332 332 334 334 331 332 334 335 335 337 338 339 336 335 336 340 343 344 345 343 342 343 344 344 346 348 348 348 348 346 344 344 343 343 343 341 340 341 339
337 336 335 332 332 333 332 334 332 331 333 334 336 337 338 338 337 338 337 336 340 345 346 345 345 344 343 344 344 347 347 347 347 346 345 343 342 343 343 342 340 340 339
338 339 336 335 333 334 334 333 333 331 331 334 334 333 335 338 337 338 335 336 334 336 343 345 345 344 343 344 344 345 347 346 345 346 346 344 342 343 343 345 341 339 340
342 338 340 337 334 335 334 333 332 332 330 329 330 330 335 335 336 338 335 335 334 334 335 342 343 342 344 344 343 344 347 346 344 344 346 345 343 343 342 343 342 341 340
345 341 340 339 340 335 335 332 330 330 329 330 330 328 333 332 333 333 333 336 333 336 334 333 335 336 342 343 344 345 344 346 345 345 345 344 342 343 343 342 341 341 341
347 345 341 340 338 337 334 334 332 329 328 328 326 327 328 331 331 332 333 332 331 333 333 332 334 331 334 340 340 343 345 345 343 345 344 342 342 342 341 342 342 342 340
347 344 341 339 339 337 335 335 333 328 328 327 323 323 318 322 327 331 331 331 330 332 332 333 334 332 332 334 332 341 345 345 343 343 345 342 342 342 342 342 342 341 340
346 346 342 339 339 337 335 334 333 328 324 324 329 323 318 313 316 324 327 328 329 328 328 329 332 335 331 329 334 336 342 344 344 343 345 342 342 343 342 342 341 339 338
345 344 343 340 340 339 335 335 335 330 330 325 328 329 325 322 315 313 322 324 327 328 326 327 326 331 331 331 334 336 338 340 343 345 345 343 343 344 342 342 339 338 337
343 344 341 340 341 340 337 335 334 332 330 328 326 325 323 322 321 316 312 318 323 325 326 326 326 328 328 329 329 330 335 336 337 339 341 342 342 343 341 340 339 337 337
340 341 341 340 342 341 338 336 335 333 331 329 327 325 321 319 317 317 314 314 316 320 323 325 325 326 325 326 330 333 332 332 332 333 335 338 340 341 340 339 338 338 337
337 338 341 339 342 341 338 338 335 332 331 329 327 325 324 322 321 320 318 315 316 319 320 322 324 326 327 330 331 334 334 331 329 329 329 333 336 336 337 338 338 336 335
338 340 341 342 342 340 337 337 332 332 331 329 327 325 323 323 324 322 319 316 313 314 317 316 323 324 329 330 332 334 333 329 326 325 325 328 329 332 333 334 334 333 334
340 340 342 341 340 337 336 334 332 330 329 328 327 326 324 323 325 324 324 321 316 310 311 318 319 324 329 332 333 332 330 327 326 323 323 324 326 327 328 328 328 328 329
339 339 341 339 338 336 335 332 330 329 329 327 326 325 324 324 325 325 325 323 321 315 311 318 323 323 327 331 334 330 329 327 323 322 323 323 322 323 323 323 324 325 325
339 341 340 336 335 333 333 330 328 328 327 325 325 325 325 326 325 324 325 323 321 318 314 319 323 325 324 327 328 328 329 326 324 322 322 321 320 320 320 321 321 321 322
341 339 336 335 335 334 330 329 328 329 326 324 325 324 325 328 323 324 324 323 322 320 319 319 321 323 324 327 329 327 327 327 326 322 321 320 319 318 318 317 317 317 317
336 336 334 332 332 333 331 332 327 328 327 326 326 324 323 323 323 324 325 325 322 323 320 319 318 320 321 324 323 324 324 324 325 322 317 317 317 317 316 315 314 314 314
331 333 334 335 334 332 330 328 329 328 328 326 325 324 321 323 322 323 325 325 323 322 318 317 318 317 318 320 321 319 317 320 319 321 319 318 317 316 315 315 315 315 311
329 329 329 328 330 331 330 330 330 326 325 322 322 322 321 323 321 321 325 324 323 318 317 317 316 316 316 317 316 316 314 315 315 318 318 318 318 317 316 316 318 316 311
327 327 327 325 323 322 306 313 323 326 325 322 320 319 322 322 320 313 317 318 322 320 317 317 316 316 316 315 315 315 314 314 309 317 316 315 319 318 319 319 312 310 309
328 327 328 323 317 314 304 308 314 326 324 322 320 319 323 326 321 321 312 314 315 314 316 318 317 317 315 316 316 315 315 312 311 314 317 313 317 316 317 314 308 307 306
328 327 328 324 317 312 304 309 311 325 323 322 321 321 323 323 319 322 321 321 320 319 319 321 320 318 318 318 318 318 314 313 315 315 316 310 314 314 314 311 306 306 305
324 324 327 321 316 314 304 307 313 325 323 321 321 322 322 322 306 305 323 319 316 315 309 309 308 305 304 306 313 316 313 312 310 310 315 312 312 312 313 308 306 305 304
324 327 327 324 314 314 301 304 313 325 321 320 319 319 302 313 301 304 321 318 316 316 316 314 311 307 309 309 308 317 315 312 310 309 314 311 311 310 307 311 308 306 304

GFSMA_sfc_thetae_060.txt.gz
Theta_e
332 332 330 330 333 330 334 332 334 335 337 338 338 336 335 335 337 335 338 349 347 347 347 345 344 344 345 346 348 349 349 347 346 345 342 344 344 346 344 341 342 341 340
333 331 330 329 330 331 333 333 331 332 333 335 334 335 335 336 337 337 338 342 347 346 347 346 345 344 344 345 346 347 347 348 348 346 344 344 341 344 343 340 341 340 339
334 332 330 329 329 330 330 332 329 328 329 332 332 333 333 336 338 336 335 338 341 344 345 347 346 344 344 344 344 345 347 346 348 347 344 343 343 343 343 341 340 340 340
335 334 332 330 331 331 330 331 330 326 327 329 330 332 333 334 337 338 337 336 336 336 343 345 344 347 346 344 344 344 347 346 345 346 345 344 344 341 342 343 341 341 340
338 335 335 333 330 331 331 330 330 328 325 327 330 331 330 332 334 338 336 334 333 334 334 340 343 343 344 344 344 344 347 346 344 345 346 345 344 342 342 343 342 340 339
340 336 337 334 334 330 331 330 328 329 327 328 331 330 329 333 331 331 333 335 332 333 332 333 333 335 342 342 342 343 344 346 345 344 345 344 344 342 341 342 341 340 340
342 338 336 336 336 333 332 332 329 327 326 327 323 323 325 329 329 329 329 329 330 332 332 332 330 332 334 340 340 344 344 344 345 344 343 343 344 343 341 341 341 339 340
344 341 338 337 337 336 332 331 330 326 326 325 321 321 321 320 323 327 328 329 327 329 331 331 331 331 331 332 333 340 342 343 344 344 343 342 343 342 342 342 341 340 340
345 343 341 339 338 337 334 331 331 328 324 324 327 325 319 317 314 320 324 325 326 326 327 328 330 331 331 330 333 335 340 343 344 344 345 342 343 342 342 341 340 341 340
344 343 341 339 337 336 333 333 333 327 325 325 329 329 324 320 316 312 319 322 324 325 325 324 326 330 330 328 332 334 336 340 343 344 343 344 344 343 342 342 341 340 339
342 343 341 338 337 336 334 334 330 329 332 328 327 322 321 321 321 314 310 315 320 322 324 324 323 326 328 327 327 330 334 335 338 339 340 343 344 343 343 342 340 339 338
338 340 340 339 338 336 336 336 332 329 328 327 325 323 324 319 316 315 312 313 313 318 320 322 323 324 323 325 330 332 330 331 331 332 333 337 340 341 342 340 340 340 339
335 337 338 337 337 337 337 334 334 333 329 326 325 323 322 320 319 317 315 312 313 316 318 320 321 323 324 326 326 332 332 329 327 326 329 332 335 337 339 339 340 339 339
338 338 338 338 338 339 336 335 335 332 329 327 325 323 322 321 321 319 317 314 311 312 314 314 320 322 325 326 330 333 331 327 325 324 324 327 330 331 333 335 335 335 334
339 338 338 337 337 336 336 333 333 330 328 326 325 324 321 321 321 321 320 318 314 308 309 315 315 321 325 328 330 330 328 326 325 321 322 324 325 327 328 328 329 329 329
339 337 336 336 336 337 334 331 329 328 326 325 324 323 322 321 321 322 322 320 317 313 309 314 318 319 327 330 330 327 327 326 322 321 322 323 323 323 324 324 325 326 326
337 337 337 336 337 335 333 329 327 327 326 324 323 323 322 323 323 323 323 320 319 316 311 320 322 321 324 327 328 327 327 326 323 321 322 321 320 320 320 321 321 322 322
338 338 338 337 336 335 330 327 326 327 326 323 322 322 323 326 322 322 322 322 319 318 316 318 321 322 323 327 327 325 326 327 325 321 321 320 319 318 317 317 316 317 317
337 337 336 335 334 332 329 326 327 327 325 324 323 322 322 323 319 321 323 324 322 321 318 320 318 320 322 325 323 323 323 323 324 323 319 319 317 317 317 316 315 314 312
335 334 333 333 332 330 329 329 327 325 325 324 324 322 321 321 321 322 323 324 322 318 318 320 319 317 319 321 322 320 317 319 318 321 320 320 319 318 316 316 315 314 311
335 334 330 329 330 331 328 327 326 325 323 321 321 321 320 321 321 321 324 323 322 319 317 317 316 316 316 318 318 317 314 316 315 318 319 320 320 319 317 316 319 316 310
327 326 325 325 324 324 310 315 324 323 322 320 318 318 319 320 319 313 316 317 321 319 317 317 316 316 317 315 316 316 315 316 311 318 317 316 320 318 319 320 313 309 308
323 321 320 321 321 316 303 306 311 323 321 319 318 317 319 324 320 321 312 311 313 311 316 319 316 317 316 317 317 316 317 314 311 314 318 313 318 316 318 313 308 306 306
323 322 321 319 315 311 304 306 312 322 320 320 319 318 319 322 321 321 321 321 319 318 317 319 318 315 318 319 319 317 315 314 315 314 316 310 314 313 314 314 306 306 305
327 325 321 316 313 312 303 305 316 321 319 319 319 320 320 321 303 304 321 318 317 315 307 308 307 305 303 306 312 316 314 313 311 311 314 312 312 313 312 310 311 305 304
326 324 319 316 312 314 301 301 312 321 318 320 318 316 304 315 300 302 318 318 316 314 314 313 311 306 309 307 307 318 316 313 310 310 314 311 311 312 310 313 311 310 306

GFSMA_sfc_thetae_063.txt.gz
Theta_e
331 330 331 331 331 329 330 330 330 333 334 335 337 336 335 333 333 334 333 342 346 348 349 350 346 345 345 345 348 348 348 346 345 344 342 343 343 342 342 341 339 340 339
330 330 327 329 329 329 330 331 330 330 331 333 334 335 334 333 333 335 335 337 346 347 347 347 347 345 345 345 346 346 348 346 346 345 344 343 342 342 342 342 340 340 339
329 328 327 326 328 329 328 329 328 327 327 330 331 331 332 332 334 335 336 338 341 347 345 345 346 345 345 344 344 345 347 347 347 346 344 343 341 341 342 342 340 340 339
332 329 327 327 327 327 329 329 327 325 326 326 328 329 329 330 333 336 337 337 337 337 341 345 344 344 346 345 344 344 346 346 346 346 345 344 342 341 342 342 341 340 340
335 332 331 329 327 328 328 328 326 326 323 324 327 327 328 329 331 335 336 335 336 336 333 339 343 342 344 344 343 342 344 345 344 345 346 345 344 342 342 341 341 341 339
337 333 333 331 329 328 327 327 326 326 324 325 328 328 327 328 333 331 332 333 331 332 331 331 331 335 342 342 343 342 343 345 344 345 344 344 344 343 342 341 341 341 340
339 334 334 332 331 328 329 329 327 325 324 325 323 321 323 327 328 329 328 328 329 331 330 330 329 330 332 341 341 342 341 343 344 345 343 341 343 343 341 341 341 340 338
340 337 335 334 333 331 328 329 328 324 326 327 324 322 316 319 322 326 327 326 326 328 329 330 329 330 329 330 333 340 341 342 343 344 343 341 343 344 343 341 341 337 339
341 340 337 335 334 334 331 330 329 327 325 326 327 325 319 316 317 318 322 324 325 324 325 327 329 330 329 329 333 335 339 341 342 343 345 342 342 344 344 341 341 339 339
337 341 339 336 336 336 332 332 331 328 328 326 327 329 326 323 315 312 317 319 322 323 322 323 326 327 328 328 333 333 334 337 341 344 345 343 342 343 343 341 340 339 339
337 341 340 338 337 336 334 333 329 327 329 328 328 324 324 322 318 318 311 314 319 320 322 322 323 323 326 326 326 329 334 334 336 339 340 342 342 343 344 342 340 339 340
336 339 339 338 337 336 334 333 331 329 327 326 328 327 325 320 316 314 311 311 313 316 318 321 321 321 322 324 328 331 330 330 330 332 333 336 341 342 343 342 341 341 340
332 336 337 336 337 336 335 334 333 331 329 327 324 322 320 319 318 316 314 310 312 314 316 319 320 321 324 321 324 331 332 328 327 327 327 331 335 338 339 340 341 340 339
334 336 337 337 337 337 334 333 334 331 331 327 323 322 321 320 319 318 316 313 309 310 312 315 318 320 322 323 327 330 328 327 324 323 323 326 329 332 334 334 334 336 336
336 337 337 337 336 336 334 332 331 332 329 325 324 322 321 319 319 318 317 316 313 307 308 313 314 318 325 324 328 328 327 327 325 321 321 324 325 327 328 329 329 329 330
337 336 336 335 334 335 334 333 331 329 327 324 323 322 319 319 319 319 318 317 314 312 308 311 315 317 325 327 330 326 325 325 321 321 321 322 323 323 324 324 324 326 327
336 337 336 335 335 333 334 332 329 327 326 323 322 322 321 320 319 319 319 318 316 314 310 319 320 322 325 326 327 327 327 326 322 321 322 321 320 320 320 321 321 323 323
337 337 336 335 335 335 332 330 329 328 324 322 322 321 320 322 320 320 319 318 317 316 314 316 320 321 323 326 325 325 326 326 324 321 319 319 318 317 317 317 317 317 317
336 336 336 335 334 334 331 330 328 325 324 323 322 320 320 321 319 319 319 319 318 319 316 316 318 321 323 325 322 322 322 321 323 322 317 317 318 317 316 316 315 314 312
336 335 336 336 335 333 331 326 326 324 323 322 322 321 320 321 319 318 320 322 321 319 318 318 319 318 320 322 322 319 316 319 318 321 320 319 318 318 316 315 315 314 311
335 334 334 334 332 330 328 325 324 323 321 320 320 320 320 320 320 319 321 322 320 319 318 318 316 316 317 318 318 317 315 316 316 319 319 319 320 321 319 317 319 315 310
332 332 331 329 327 328 310 312 320 322 321 320 318 318 318 318 317 313 315 316 320 319 317 317 313 315 317 315 317 317 316 315 313 318 317 315 321 320 321 321 314 309 308
330 328 324 323 321 318 304 308 313 324 320 318 317 316 317 321 318 320 311 311 312 311 316 320 316 318 317 317 318 316 316 312 312 315 318 313 318 317 319 314 310 308 307
324 320 318 318 317 311 302 302 307 320 318 318 317 316 316 318 318 319 319 320 320 319 319 319 319 317 315 319 320 319 314 314 315 314 317 310 315 313 315 314 306 306 305
319 317 317 315 314 311 301 302 315 319 318 317 317 317 318 319 307 304 321 319 317 315 307 307 308 306 303 305 312 317 314 314 311 311 314 311 313 312 312 313 312 305 303
319 318 316 316 308 311 300 302 314 319 318 319 318 316 304 314 299 300 319 318 315 314 313 312 310 306 307 307 307 318 316 314 310 311 314 310 311 312 309 313 313 313 310

GFSMA_sfc_thetae_066.txt.gz
Theta_e
331 331 333 333 333 334 333 333 334 336 337 338 338 338 337 337 337 337 337 341 345 347 347 348 350 348 346 346 348 349 348 347 346 346 343 343 344 344 342 341 341 339 340
331 330 330 331 331 332 332 332 332 333 334 336 336 338 338 338 337 336 337 338 343 346 348 349 348 347 346 345 345 348 348 347 347 345 343 343 343 341 341 342 341 340 340
331 330 329 329 331 331 331 332 331 331 332 333 334 335 336 336 336 336 339 340 341 345 347 349 347 346 345 344 345 345 347 347 347 346 344 343 341 341 342 342 341 341 340
332 330 329 327 329 329 330 330 330 329 329 329 330 332 333 333 334 336 338 341 340 342 344 347 347 345 344 343 343 344 345 346 346 346 345 345 343 341 341 342 341 341 340
334 331 329 328 328 328 329 329 329 330 327 327 328 330 331 333 334 336 337 340 341 342 341 340 343 343 343 343 342 343 345 345 345 345 346 345 344 343 340 339 341 340 339
335 333 332 330 329 328 328 328 329 329 329 328 328 330 331 333 334 334 337 338 339 339 339 338 338 338 342 342 342 343 342 345 345 345 345 345 344 343 342 341 340 341 339
338 334 333 332 331 329 329 329 329 328 327 328 327 327 329 330 331 334 335 335 336 337 336 336 336 337 337 339 341 342 341 341 344 345 343 343 343 343 343 342 341 341 339
339 336 335 334 332 330 329 329 329 327 328 328 327 327 324 327 328 330 332 333 333 334 334 335 335 335 336 337 338 340 340 340 342 343 344 341 342 343 343 342 340 341 339
341 339 337 336 333 333 329 330 330 328 326 328 331 328 321 320 322 325 328 330 331 331 332 333 334 335 335 336 335 338 339 340 340 343 344 342 342 343 343 342 341 341 339
340 341 338 336 336 335 333 331 331 331 331 328 328 331 329 327 322 322 324 326 328 329 330 331 332 333 334 335 335 335 335 337 339 341 343 343 342 342 343 343 341 340 337
337 340 340 338 336 336 336 334 332 331 333 330 329 328 327 325 325 321 320 323 325 327 329 330 331 331 332 333 333 333 333 333 335 337 339 342 342 342 342 343 341 339 338
334 337 339 339 338 337 336 335 334 333 332 333 331 330 328 326 323 321 320 319 321 324 326 328 329 329 330 332 332 330 330 330 329 330 333 336 340 342 343 343 341 340 340
333 336 338 337 338 338 338 337 335 334 332 331 330 330 331 328 325 324 324 318 320 321 324 327 328 329 329 330 332 332 331 328 326 326 328 330 334 338 340 341 341 340 340
333 337 338 338 339 339 338 337 337 335 333 331 328 329 328 327 326 325 324 321 317 318 320 324 325 328 328 329 329 329 332 327 324 323 323 325 328 332 334 335 336 336 336
334 336 338 338 338 338 338 336 335 334 332 331 329 329 328 326 326 325 324 325 323 316 317 321 322 325 327 330 330 334 333 328 325 322 322 322 325 327 328 329 328 330 331
337 337 337 338 338 338 336 335 334 335 332 329 328 327 326 325 325 325 324 323 323 322 318 319 321 324 328 330 333 331 330 326 323 319 321 321 322 323 323 324 325 326 327
337 337 338 337 337 336 336 335 335 331 331 327 328 327 326 325 325 324 325 324 322 321 319 322 324 325 327 328 328 329 329 328 324 320 322 320 320 319 321 321 322 323 324
337 337 337 337 336 336 335 334 332 331 329 327 326 326 325 325 324 325 325 324 324 322 322 320 321 323 325 327 327 325 327 327 326 322 319 319 317 317 319 318 318 319 318
337 337 337 337 336 335 334 334 333 331 329 328 327 326 325 325 324 325 325 324 324 323 323 320 319 323 324 325 322 322 323 324 325 321 317 316 316 318 318 316 315 314 313
336 337 337 337 336 335 334 332 331 329 328 327 326 326 325 325 325 325 325 325 325 323 320 319 321 320 321 323 323 320 318 320 321 323 320 319 318 317 316 315 315 314 311
337 337 336 336 335 334 332 330 329 328 327 325 325 325 325 324 321 322 326 325 324 322 320 320 319 319 319 320 318 318 316 318 319 322 320 321 321 322 319 316 319 316 311
336 336 335 335 333 332 310 313 323 326 326 325 324 324 324 320 318 312 314 316 320 320 319 319 319 317 318 318 319 317 316 318 316 321 319 317 322 321 321 323 314 310 308
334 333 333 332 330 327 307 307 312 326 325 324 324 323 322 323 320 321 311 311 312 312 316 320 319 319 318 320 318 318 319 316 316 317 318 315 320 317 321 318 308 307 307
331 330 329 329 326 318 302 302 307 326 324 324 323 322 323 323 322 322 321 322 320 320 321 322 324 323 323 323 323 320 316 316 316 316 320 314 316 316 317 316 306 306 306
327 325 324 322 320 314 299 301 315 324 322 321 321 321 321 322 308 303 321 320 319 317 308 309 309 306 304 306 315 320 316 316 313 314 317 317 315 313 316 316 314 307 304
322 321 319 318 311 312 299 301 315 323 321 320 321 319 306 317 300 299 322 319 317 314 315 315 314 307 309 309 308 322 320 316 314 314 317 316 314 315 313 317 317 315 313

GFSMA_sfc_thetae_069.txt.gz
Theta_e
346 345 344 342 340 340 339 340 340 341 340 341 340 339 337 338 339 339 339 341 343 345 347 349 349 349 348 346 345 348 348 347 347 347 344 343 345 345 343 341 340 342 340
345 341 341 340 339 339 338 339 338 339 339 338 338 339 339 339 340 340 337 339 342 344 345 348 349 348 348 346 340 346 347 346 347 347 345 344 343 344 344 343 342 341 340
343 341 338 338 338 340 341 340 340 339 337 338 338 339 340 342 341 342 341 339 342 343 345 347 348 348 347 345 341 346 345 346 347 347 345 344 343 342 343 341 343 340 340
342 340 337 337 338 339 338 337 337 336 336 337 337 339 340 342 342 343 342 343 344 346 346 346 348 347 348 346 344 345 343 345 346 346 345 344 343 342 341 340 342 341 340
340 341 341 337 339 336 336 337 337 337 336 337 337 338 340 340 343 341 343 345 347 347 347 347 344 345 346 345 344 343 345 345 344 346 346 346 345 344 343 341 341 340 340
340 341 339 337 337 335 335 337 339 339 338 339 336 336 340 341 342 342 343 343 345 347 348 348 347 344 342 343 344 343 342 345 343 345 345 345 345 344 343 342 341 341 340
339 340 334 335 337 334 338 341 340 339 337 339 336 336 338 341 342 342 344 344 345 346 346 346 345 345 343 341 342 344 341 343 343 344 344 343 344 345 343 342 341 341 340
344 343 336 336 338 338 343 342 341 338 338 338 335 337 332 336 339 342 343 343 345 345 344 344 344 345 345 344 343 342 341 342 342 343 343 342 343 344 344 343 342 341 340
344 344 338 340 344 344 342 343 341 340 336 336 340 337 330 327 334 337 339 340 342 341 342 343 343 344 344 344 342 340 340 341 340 342 344 343 343 343 344 344 342 341 339
347 345 344 344 346 345 346 343 343 341 341 338 337 339 339 338 329 327 334 337 339 340 341 341 341 343 343 343 341 340 338 338 341 342 342 344 342 342 343 344 343 341 339
349 347 348 348 347 346 348 345 341 339 340 341 338 337 336 335 335 331 327 330 334 337 339 339 340 341 342 342 342 339 335 334 336 337 339 340 344 343 344 344 343 341 339
348 352 351 351 350 348 346 344 343 342 342 344 342 337 335 331 332 331 328 332 330 335 336 337 338 339 341 341 338 334 331 331 330 331 333 337 340 342 343 344 343 341 339
343 348 352 350 347 348 346 346 345 344 344 343 342 338 339 336 337 335 333 333 329 333 334 336 337 339 340 339 340 333 332 329 327 326 328 331 335 338 340 342 341 340 339
342 352 349 348 347 347 346 346 345 345 346 342 343 339 335 338 338 337 334 331 327 327 330 332 337 337 339 339 337 330 337 328 326 324 324 326 329 333 335 337 337 336 337
343 346 347 347 347 348 347 348 346 347 346 343 341 338 337 340 338 338 336 334 328 322 323 331 330 335 335 338 337 338 339 330 327 323 322 323 324 327 328 329 329 330 331
345 344 346 348 348 348 349 350 348 348 346 342 336 339 339 339 338 337 335 334 333 328 323 331 332 332 332 333 334 337 337 329 324 321 322 321 321 323 324 324 326 327 328
344 343 345 347 347 349 350 349 349 346 343 336 334 335 340 340 337 335 334 333 331 331 326 328 329 331 332 332 330 332 331 333 332 321 321 320 319 319 320 321 323 325 326
343 342 345 346 347 348 349 347 345 344 340 333 334 339 338 336 337 337 334 334 333 333 329 328 326 328 329 331 331 330 329 331 332 323 319 318 317 316 317 318 319 321 320
342 343 344 345 346 347 347 346 345 341 338 335 336 339 338 337 336 334 334 333 333 332 331 329 326 328 327 330 326 327 325 329 331 322 317 317 316 316 316 316 316 316 314
342 343 344 345 346 347 346 345 343 338 334 333 336 339 337 336 336 335 334 335 334 331 330 328 327 325 325 326 328 321 321 325 325 327 323 322 319 317 316 316 316 316 313
343 343 344 346 347 345 342 344 339 334 334 334 338 336 337 333 326 330 334 335 334 331 328 327 324 323 322 320 323 324 323 322 323 325 324 328 328 327 325 318 320 317 311
342 343 344 344 345 341 312 316 330 335 336 336 335 335 336 324 322 314 316 319 328 332 327 326 322 324 323 322 323 326 322 320 319 325 323 322 326 323 324 328 317 311 309
339 341 344 344 344 343 308 310 316 336 337 337 337 336 333 332 327 330 313 311 314 313 319 329 323 326 326 321 323 321 320 324 321 320 323 318 322 322 324 319 309 308 306
338 340 341 344 342 336 305 306 312 338 337 337 337 336 335 334 332 331 330 329 330 330 326 327 325 329 328 324 328 324 327 325 323 321 325 316 320 318 320 318 309 306 305
337 338 341 336 332 319 302 303 319 336 334 334 334 334 334 333 309 305 329 325 324 325 308 308 310 310 308 309 320 324 317 318 319 320 324 323 319 318 319 322 316 308 306
335 336 328 336 320 324 298 302 320 333 332 331 332 330 306 322 299 300 329 324 321 319 317 317 316 311 311 313 308 327 321 318 319 318 324 322 319 322 316 321 319 316 315

GFSMA_sfc_thetae_072.txt.gz
Theta_e
350 349 347 344 343 342 340 340 340 340 342 342 340 339 338 338 338 336 336 347 345 345 347 349 350 349 349 349 347 346 348 349 348 347 345 345 345 345 345 343 342 342 340
351 347 347 344 341 340 339 338 338 340 341 340 340 342 341 341 340 341 340 341 344 345 345 347 349 350 350 348 348 346 348 348 348 347 347 345 345 345 345 343 342 341 341
351 350 343 341 339 341 344 343 342 342 341 340 342 342 343 344 343 345 345 344 341 343 345 345 348 349 352 349 346 341 346 347 347 347 347 346 345 344 344 343 343 340 341
350 348 340 340 340 342 341 340 340 340 340 341 343 344 345 345 346 347 346 341 341 345 346 349 350 349 350 349 347 345 346 342 346 347 347 346 345 344 343 344 340 340 340
345 345 339 341 345 338 340 341 342 343 341 344 344 345 346 345 346 345 346 346 348 348 348 349 347 347 349 348 349 347 347 344 345 346 346 346 345 344 343 343 341 340 338
344 345 341 345 343 340 341 342 347 344 345 345 345 344 345 345 345 346 347 346 347 349 350 351 350 345 345 346 347 347 346 346 346 345 345 345 345 345 344 344 342 339 338
344 348 340 344 345 342 339 344 345 345 346 347 344 343 343 346 347 346 347 347 347 347 349 349 352 346 345 344 344 345 345 343 345 345 343 343 344 345 345 344 342 341 341
348 348 348 346 347 340 346 346 348 345 346 348 341 340 336 340 343 346 346 346 347 347 346 348 348 348 347 345 347 343 345 343 343 345 343 343 343 344 345 344 342 342 340
348 351 350 348 347 345 344 348 350 349 342 346 347 341 335 330 339 343 346 345 347 345 345 346 348 347 348 346 343 344 343 344 344 343 343 343 343 344 345 344 343 342 341
347 348 353 348 350 346 352 351 351 352 349 344 344 343 348 343 333 331 338 342 345 344 346 342 343 345 345 345 346 343 341 340 342 342 343 343 343 343 344 344 343 342 341
352 347 354 354 354 350 354 355 354 353 349 345 342 342 344 342 343 335 329 333 339 340 341 343 341 341 344 344 343 342 336 336 338 339 340 341 342 344 344 345 344 342 341
353 355 352 356 356 355 354 355 356 353 349 348 347 346 342 339 337 336 331 335 334 338 340 340 340 340 341 342 342 336 335 333 332 334 335 337 340 342 344 344 343 343 342
348 357 359 358 355 358 357 356 354 352 350 348 352 347 346 343 342 339 335 334 330 334 336 338 338 340 342 341 342 334 333 331 330 328 329 331 335 339 341 342 343 343 341
345 358 358 359 356 357 356 356 352 350 352 349 351 352 347 344 342 340 338 331 328 329 333 336 338 339 340 340 337 334 339 330 327 325 325 326 330 333 335 337 338 338 336
345 351 354 357 357 356 355 355 348 350 353 353 353 352 347 344 342 341 340 336 331 325 326 335 331 340 342 340 339 340 340 328 328 324 323 323 325 328 330 331 332 331 331
349 348 353 357 354 353 352 354 351 353 353 351 350 351 348 344 346 344 339 337 336 331 324 333 332 338 340 337 336 339 340 331 326 323 323 322 322 324 325 326 327 327 328
346 345 349 350 351 350 352 353 355 353 351 351 351 347 346 348 344 341 339 338 335 333 327 333 337 336 335 334 335 336 338 338 336 322 322 321 318 320 321 322 323 324 326
344 344 346 348 347 348 352 352 352 351 350 348 345 345 343 343 345 344 339 340 337 337 331 331 333 330 332 336 335 334 333 336 338 323 321 319 317 316 317 318 318 319 320
342 344 345 346 345 347 350 352 352 350 350 349 346 345 344 344 343 340 339 337 336 335 335 331 330 330 334 335 333 331 331 333 333 323 318 318 316 316 316 316 317 316 316
341 343 346 346 345 346 349 350 350 349 349 347 346 345 345 343 341 340 339 338 337 336 334 331 330 328 330 333 332 327 325 329 328 332 326 325 320 317 316 316 317 317 313
342 345 346 345 346 347 347 349 348 348 348 345 345 343 344 338 330 333 336 338 340 335 331 329 328 328 328 326 329 328 323 325 327 329 331 332 332 328 322 317 321 318 314
346 347 346 344 347 345 315 319 339 348 345 343 340 341 341 328 327 319 320 318 329 338 334 330 332 328 328 327 331 327 326 323 322 328 328 328 332 329 328 332 317 312 311
352 350 349 346 348 347 312 313 319 346 345 343 340 340 337 335 331 336 315 312 315 314 318 335 332 331 329 330 327 329 327 325 324 325 326 322 326 325 329 325 311 309 308
351 350 350 349 348 343 308 309 315 345 342 341 341 340 339 337 336 336 335 333 334 333 333 332 334 332 332 335 330 330 328 328 327 326 329 321 323 320 323 322 307 307 305
348 349 347 347 347 335 305 307 324 342 339 338 338 339 339 338 313 308 333 330 332 331 311 306 307 308 306 311 320 327 322 320 320 321 325 321 321 318 322 320 316 306 304
342 344 345 348 332 337 302 307 323 334 336 334 338 338 310 325 302 302 333 330 326 327 325 326 326 316 313 318 308 331 323 318 319 319 327 325 323 320 317 323 321 316 314

GFSMA_sfc_thetae_075.txt.gz
Theta_e
358 353 353 346 347 344 343 343 341 343 342 343 342 341 341 342 341 339 339 350 348 348 348 350 351 350 351 351 350 348 349 351 349 348 347 346 346 346 344 343 343 342 341
360 350 351 346 344 342 340 340 342 342 343 344 343 343 344 345 344 343 340 342 347 346 347 346 350 351 352 351 350 348 347 348 350 348 347 346 346 345 345 344 343 342 341
363 358 347 346 344 346 348 346 345 344 342 344 344 344 345 346 345 345 344 345 345 346 346 347 348 350 352 350 351 348 347 347 348 348 347 346 345 345 345 344 343 344 342
361 360 347 344 344 344 341 343 343 342 344 345 346 345 348 350 349 349 347 349 345 341 344 346 347 350 352 351 351 348 346 346 346 348 347 347 347 345 344 344 344 343 340
354 354 348 345 353 342 344 345 344 346 346 345 346 350 351 348 350 347 351 352 349 345 347 346 348 350 349 350 350 349 347 346 343 346 347 347 347 346 345 344 343 341 340
349 349 346 348 349 343 344 346 349 346 347 348 345 346 352 351 350 349 350 348 349 351 351 350 349 347 347 349 348 348 348 347 345 345 346 346 345 345 345 344 343 342 340
348 351 344 348 350 345 344 353 351 351 344 349 345 345 346 353 350 349 351 348 349 347 350 353 348 348 347 347 346 346 348 348 346 346 344 344 344 345 345 345 344 342 339
354 352 346 345 350 345 352 355 353 344 345 349 343 341 335 341 348 348 348 346 351 349 349 346 347 351 344 341 346 344 346 347 347 346 345 343 344 344 345 345 344 343 340
351 350 347 346 350 349 347 353 352 349 340 348 355 343 333 332 338 347 349 348 352 348 347 346 348 347 350 347 347 346 345 345 347 347 345 343 343 345 345 345 344 342 341
350 350 351 348 352 352 348 354 352 354 354 343 347 348 350 347 336 332 345 347 347 347 351 344 350 347 349 345 348 345 343 342 344 345 344 345 344 343 344 344 344 342 342
352 349 353 351 353 351 348 355 361 356 352 349 345 344 346 343 347 339 335 335 344 343 343 344 342 343 344 346 346 342 339 339 339 341 342 344 344 344 344 344 344 343 343
348 349 352 353 355 351 352 356 361 354 352 355 351 350 342 340 339 339 335 339 336 341 340 345 342 342 342 342 343 338 337 335 334 335 337 339 340 342 344 344 343 343 343
347 354 353 354 355 352 355 359 359 356 359 354 356 347 348 348 345 343 341 333 334 338 342 342 343 339 343 347 342 340 336 334 332 330 331 333 335 338 340 342 343 343 342
338 354 363 360 360 359 357 359 356 357 359 355 356 351 351 349 349 343 340 336 332 331 336 344 339 341 338 340 338 337 338 330 330 327 326 327 330 333 335 338 339 339 339
339 343 357 364 361 360 362 362 358 359 357 356 352 354 352 350 349 345 347 340 333 326 328 342 334 344 341 341 339 341 339 330 329 325 324 324 325 328 330 332 332 332 332
344 345 349 356 360 361 363 363 358 359 354 352 351 354 355 353 350 346 345 342 338 330 325 336 336 341 341 339 337 340 339 331 327 324 324 322 322 324 326 327 327 328 329
347 345 345 352 355 360 363 361 358 352 350 354 355 355 353 357 346 345 342 341 334 334 330 337 337 341 339 337 337 338 338 339 337 322 323 321 319 320 322 322 323 324 325
345 346 345 344 350 353 358 355 353 348 351 352 353 350 351 347 351 353 344 348 338 348 334 339 337 335 334 338 337 336 334 335 339 324 322 319 317 316 316 317 318 319 320
343 343 343 344 348 351 354 355 352 350 354 353 351 351 350 349 350 349 345 341 337 338 336 332 335 339 334 338 334 335 335 335 336 324 319 318 317 317 316 316 315 315 315
342 341 344 343 347 351 352 352 351 353 355 353 354 351 347 348 347 346 345 343 342 339 337 338 336 334 332 336 333 330 326 333 331 335 326 326 320 318 316 315 316 316 314
344 340 341 345 348 350 348 351 353 354 355 353 353 348 350 344 333 339 339 343 342 336 334 335 333 334 330 329 329 331 327 329 329 332 332 333 333 330 324 316 321 318 313
344 341 341 343 347 347 322 323 343 354 354 351 349 347 346 333 329 323 320 318 330 340 336 337 334 330 333 332 336 331 327 323 322 330 331 331 336 332 329 330 317 312 311
343 343 345 347 350 353 312 314 321 355 352 350 347 347 342 339 333 338 317 315 316 316 320 338 335 334 327 334 333 331 332 325 329 328 330 323 329 327 330 324 310 308 308
341 343 347 352 353 350 310 312 318 354 351 348 348 346 344 341 337 336 335 333 334 335 333 333 337 337 338 338 334 335 335 332 331 328 331 321 323 322 324 326 308 308 308
340 344 348 350 350 341 307 311 328 349 346 345 344 343 342 339 316 311 336 334 333 330 311 307 307 307 307 308 319 331 330 327 323 324 327 324 321 319 322 321 316 307 305
340 346 348 349 337 342 304 310 329 343 342 340 342 337 310 329 304 307 336 334 329 331 330 329 328 319 315 314 311 332 328 326 324 320 329 324 323 321 317 322 319 313 313

GFSMA_sfc_thetae_078.txt.gz
Theta_e
350 353 355 350 349 348 344 343 341 345 344 344 342 341 339 340 342 341 340 350 349 350 351 349 350 352 353 351 352 350 349 350 350 348 348 346 347 346 346 346 345 345 344
357 356 355 355 351 349 346 344 344 344 342 341 342 343 342 343 345 344 341 344 348 348 350 352 351 351 353 352 351 349 347 348 349 348 348 347 346 346 345 345 344 344 343
360 355 354 350 350 348 348 347 347 347 344 345 343 345 345 346 345 345 345 342 344 347 347 349 350 352 354 353 351 350 347 346 348 347 347 347 345 345 345 344 344 344 343
359 360 352 350 349 348 345 342 343 339 340 341 341 343 343 345 346 348 346 345 345 345 345 347 347 350 352 353 350 349 348 346 345 345 346 347 346 345 345 344 344 344 342
355 355 350 350 351 346 343 343 343 343 341 344 342 347 348 349 349 348 346 347 347 345 341 344 346 347 348 351 350 349 349 346 344 345 344 346 347 346 345 345 343 343 342
353 353 351 349 350 342 341 342 343 346 344 345 342 342 348 350 350 347 347 348 347 346 343 347 343 343 347 348 349 349 349 348 345 344 344 344 344 346 346 345 343 342 342
348 349 348 347 346 341 339 345 344 346 342 345 345 344 347 350 347 346 349 347 346 345 345 347 345 346 345 346 346 348 349 349 348 345 343 342 344 345 345 345 343 342 341
346 345 345 342 343 342 344 344 345 341 344 345 341 342 335 340 345 345 345 345 346 345 343 347 346 344 345 344 343 346 348 348 349 347 343 341 343 344 345 344 344 343 341
347 346 345 343 340 347 340 344 344 345 339 343 346 343 333 328 339 345 344 343 344 345 342 344 344 345 345 339 343 344 345 345 346 347 345 342 343 344 345 344 344 343 342
345 346 347 348 345 341 345 342 347 344 344 335 340 348 346 344 334 332 344 343 345 344 342 345 344 343 342 345 345 347 342 342 344 344 344 343 343 344 345 344 344 343 342
346 345 346 345 346 344 341 344 348 345 345 340 339 344 343 342 343 337 331 337 340 340 341 344 341 343 342 340 343 341 340 339 340 341 342 343 343 344 344 344 344 343 343
347 347 345 344 345 344 345 345 343 346 341 337 344 346 343 339 337 337 336 335 333 336 340 342 342 342 339 341 342 340 337 336 335 335 337 339 341 341 343 344 344 342 343
336 348 347 342 344 346 346 347 343 343 344 345 347 347 347 343 344 341 338 334 330 336 334 338 341 339 339 339 339 340 337 333 331 330 331 333 335 337 340 341 343 343 342
333 339 349 343 341 347 343 346 345 345 347 350 349 350 346 345 346 342 340 335 329 330 333 333 340 340 338 336 337 337 334 330 329 327 326 328 330 332 334 336 338 338 339
334 336 339 339 351 351 347 348 347 347 350 351 352 352 347 346 347 345 345 341 331 325 327 336 333 337 338 336 336 334 336 329 329 326 324 324 325 326 328 330 332 333 334
338 338 337 338 343 353 352 352 350 349 348 351 353 349 349 346 349 347 345 343 339 333 325 332 334 337 338 338 334 335 335 330 327 324 324 323 321 322 324 326 327 329 330
337 340 339 339 336 341 353 352 351 351 350 351 349 347 346 349 348 345 343 342 337 335 328 330 335 338 335 333 334 333 333 333 331 323 323 322 319 319 321 322 323 324 325
334 336 338 340 339 336 345 351 351 352 350 349 347 346 347 350 348 345 342 339 336 337 331 327 332 332 332 333 333 331 331 333 333 325 320 319 316 315 316 317 318 319 319
330 333 335 338 339 340 337 347 352 354 349 348 346 347 348 348 346 343 343 340 337 336 336 331 330 332 331 332 331 331 331 330 333 325 320 319 317 317 316 316 314 314 314
329 331 332 335 338 339 341 343 349 352 348 347 349 349 348 347 345 344 341 338 336 334 333 330 330 330 328 331 330 326 323 328 328 332 324 323 319 319 317 315 315 315 312
326 329 331 332 339 337 341 342 347 349 347 347 350 350 348 343 336 340 341 338 336 334 331 330 327 327 326 326 325 327 324 325 327 328 329 325 324 324 320 316 320 317 311
323 327 329 331 336 337 323 320 339 348 347 347 348 348 346 332 329 322 319 322 332 335 331 329 328 325 325 326 328 326 325 321 319 326 327 326 330 326 326 327 317 312 309
322 325 327 331 336 336 317 311 320 348 348 348 348 345 342 340 330 327 317 319 316 319 323 332 328 327 326 329 327 325 325 321 320 325 325 320 327 324 327 323 310 308 307
320 323 326 330 336 337 316 306 315 347 347 346 347 345 342 338 336 335 332 331 330 328 327 330 332 331 331 332 329 329 327 325 325 325 326 317 322 320 322 320 307 307 306
318 322 326 330 335 338 308 306 321 345 343 345 346 345 342 338 315 314 333 330 330 324 309 308 307 306 307 305 315 327 324 322 320 321 325 321 319 318 320 319 314 307 305
318 323 326 331 330 338 303 306 330 344 342 342 343 340 318 334 305 308 334 332 328 327 325 324 323 316 316 314 310 326 325 322 319 318 324 321 320 318 316 320 317 312 311

GFSMA_sfc_thetae_081.txt.gz
Theta_e
338 339 339 337 337 339 337 333 333 334 336 337 334 334 334 333 333 335 339 351 348 350 353 352 351 351 352 353 352 351 350 349 350 349 347 347 346 346 347 347 346 345 345
338 343 340 343 342 341 339 337 336 334 336 337 336 336 335 335 337 337 336 344 348 348 351 353 353 351 351 354 353 351 348 347 348 348 347 347 346 346 346 346 345 343 344
346 340 345 340 340 340 337 337 336 336 335 336 334 335 337 336 337 338 339 336 342 348 349 351 353 354 354 354 354 351 348 347 346 346 347 347 346 345 345 346 345 343 344
347 347 345 342 340 340 337 335 332 330 330 331 330 333 335 336 338 339 339 339 337 340 346 349 350 352 353 354 352 352 349 347 345 345 345 346 346 345 345 344 345 344 343
351 349 344 343 342 339 337 334 333 332 332 332 335 336 337 338 339 341 341 339 339 341 338 344 348 348 349 352 353 352 349 346 345 344 344 345 345 346 345 345 344 344 343
350 348 347 342 342 338 335 333 333 335 336 334 340 337 335 341 342 341 340 342 342 342 339 339 340 342 346 348 349 350 350 348 346 344 343 343 343 345 346 345 344 343 343
350 348 344 344 341 338 334 333 335 336 335 337 333 336 338 340 342 343 341 341 340 342 340 338 340 340 342 345 345 348 348 349 347 346 343 341 342 344 345 346 345 343 342
343 345 344 342 340 338 336 334 336 333 336 340 333 333 329 333 339 342 339 341 341 341 340 341 342 341 342 341 341 346 349 350 348 346 344 341 341 342 345 345 345 344 342
341 341 342 343 340 336 333 336 338 338 333 336 337 333 327 324 329 339 337 338 339 339 340 340 342 342 342 341 344 343 346 346 347 346 344 343 342 342 344 344 344 343 342
343 342 341 341 339 337 336 337 339 339 338 333 330 335 335 334 326 328 336 336 338 339 338 336 338 340 341 338 341 342 341 342 346 345 345 345 344 344 344 343 343 343 343
342 343 342 341 340 339 336 338 338 339 341 334 328 326 327 327 331 331 328 329 334 336 338 336 338 337 337 338 337 338 339 339 339 340 341 344 344 344 344 344 342 343 343
340 343 342 342 343 342 339 336 340 341 342 338 333 329 327 329 333 332 330 328 328 331 334 336 337 336 336 335 338 339 336 335 334 334 335 338 341 341 342 343 343 343 342
327 334 344 342 341 341 341 341 338 342 342 340 334 331 336 336 339 337 333 328 328 329 331 334 338 336 335 334 336 337 336 332 330 329 330 331 335 337 338 341 342 341 342
325 328 336 345 343 343 343 342 341 340 337 334 335 338 338 340 340 340 336 329 324 324 325 327 334 334 333 333 335 336 333 329 328 326 325 327 329 331 332 334 336 336 337
331 328 329 335 340 340 338 343 343 341 339 335 331 335 339 342 342 341 338 332 325 319 320 326 327 332 332 332 333 332 331 329 328 325 323 323 324 326 327 329 330 331 331
330 332 332 332 332 334 340 341 341 342 341 341 340 341 343 345 344 343 340 335 328 324 319 326 328 330 331 333 334 332 333 328 326 323 323 322 321 322 323 324 325 327 328
330 331 332 333 333 332 331 337 344 343 342 342 343 344 345 347 343 340 339 336 331 328 323 327 329 329 328 327 328 329 330 328 327 322 322 321 319 319 319 321 322 323 325
326 328 329 330 331 332 333 329 334 346 345 343 344 344 345 346 344 341 339 334 330 328 325 323 325 326 326 327 327 325 327 330 328 325 321 320 316 315 315 316 318 319 319
321 322 325 326 327 330 333 335 331 339 345 346 346 345 345 342 341 343 336 332 330 331 327 324 323 325 324 326 324 325 325 325 330 323 320 319 317 315 315 315 314 313 312
316 318 320 323 327 328 328 333 336 332 341 347 347 345 342 343 342 342 336 332 330 328 327 324 323 322 322 324 324 321 319 322 321 328 323 320 319 317 316 314 314 314 311
312 316 317 318 321 325 328 329 333 335 335 341 344 345 344 343 336 337 337 331 328 325 324 321 321 320 320 321 321 320 318 319 320 325 325 321 321 319 319 316 320 318 311
311 313 314 314 317 323 316 313 319 332 337 342 342 342 345 332 330 324 324 327 329 326 323 322 319 318 318 320 321 320 318 317 318 321 323 324 324 321 320 324 317 312 309
308 308 311 313 315 320 311 310 313 325 335 341 343 342 342 343 329 330 318 316 319 319 324 325 321 320 320 322 322 319 319 317 317 319 320 320 325 323 325 324 311 309 307
304 306 307 310 312 319 310 308 310 324 330 341 341 341 338 329 328 326 327 327 324 324 323 328 325 324 324 325 324 323 321 319 321 323 322 317 321 320 322 317 308 307 305
303 305 306 307 309 316 309 307 311 326 329 336 340 340 336 332 312 315 327 325 321 318 308 306 308 307 305 306 315 322 319 319 318 318 323 316 318 318 320 319 313 306 304
305 306 307 311 312 317 312 307 311 326 329 335 337 334 318 329 307 309 328 325 320 317 317 316 315 312 311 311 308 322 321 320 317 317 320 316 318 318 316 320 317 311 310

GFSMA_sfc_thetae_084.txt.gz
Theta_e
331 333 335 333 334 334 335 333 330 331 331 333 333 332 330 332 333 332 333 350 350 350 354 354 352 352 351 353 352 351 350 349 349 348 347 347 346 346 346 347 346 345 344
334 334 336 334 333 335 335 335 332 330 330 334 334 335 334 334 333 334 334 338 349 348 351 354 354 353 352 352 352 351 349 348 348 348 346 346 346 345 345 345 346 346 344
334 334 338 338 337 337 337 336 334 333 332 334 333 333 334 335 334 335 336 335 340 348 349 350 353 354 354 353 353 353 350 347 347 347 345 344 345 345 345 346 345 344 343
340 335 337 339 339 338 337 335 334 330 329 330 329 329 332 333 335 336 336 337 335 339 344 349 350 353 353 353 353 353 351 347 346 345 344 345 344 345 344 345 345 345 344
344 344 339 341 339 337 337 335 331 329 327 329 331 332 333 334 335 338 336 337 337 337 337 342 348 348 350 352 354 353 351 348 345 345 344 344 344 345 345 345 344 344 343
344 345 347 341 341 338 336 333 331 332 331 332 336 337 335 335 338 338 340 341 338 338 338 338 337 343 347 349 351 351 351 349 347 345 344 342 343 344 344 345 344 343 343
346 345 344 342 340 339 336 333 331 331 332 334 331 330 333 336 337 339 340 338 339 341 340 339 338 338 339 346 346 349 350 349 348 345 343 341 341 343 344 344 344 343 343
347 346 345 343 342 339 336 333 333 331 332 334 329 329 325 327 329 337 339 339 339 340 340 341 338 339 338 339 339 344 347 348 349 346 343 341 341 341 343 344 344 344 342
341 345 345 344 342 340 339 335 333 332 329 334 335 329 323 317 319 327 334 337 338 338 339 340 339 341 339 339 339 342 346 345 348 348 345 342 342 342 342 342 344 344 343
341 340 341 343 340 338 338 333 336 336 332 330 331 335 333 324 317 319 331 334 336 337 338 339 338 340 340 339 342 342 339 342 346 347 346 344 343 344 343 342 343 343 343
343 342 340 339 338 336 335 334 335 335 337 333 332 324 325 324 326 321 317 324 333 337 338 339 337 336 337 339 336 337 337 337 339 341 342 342 342 344 344 343 343 343 343
334 338 340 340 339 338 336 335 337 337 337 338 336 333 324 322 324 325 322 325 327 331 335 336 336 337 334 335 339 337 334 333 332 333 334 336 340 342 343 343 343 342 342
322 328 339 339 340 341 340 339 335 337 338 338 338 335 331 328 329 332 328 326 326 328 332 333 336 337 336 334 334 337 337 330 328 328 329 330 334 337 339 340 341 341 341
321 324 327 335 341 340 340 340 339 336 337 339 339 338 334 332 335 334 331 327 323 323 326 329 331 335 334 333 334 335 334 328 326 325 324 325 327 331 333 333 336 336 337
329 330 329 328 333 339 339 339 339 339 338 338 338 338 337 337 337 339 337 334 329 322 323 326 327 331 332 332 333 333 330 328 327 323 322 322 323 325 326 327 329 330 330
326 328 331 330 331 332 336 337 337 340 339 339 338 337 335 334 337 339 339 337 332 329 325 325 327 328 329 331 333 330 330 328 325 323 322 321 320 321 322 323 324 326 327
324 326 327 327 329 331 332 330 333 338 338 339 339 338 337 338 339 342 341 338 332 327 327 324 327 326 325 326 328 328 329 327 326 321 322 320 318 318 318 319 320 322 324
319 322 326 325 327 326 327 329 330 332 335 338 339 338 339 342 341 342 340 337 336 331 325 323 325 325 323 323 324 325 327 329 327 327 320 319 316 314 314 315 316 317 318
313 315 317 319 321 324 325 326 328 331 332 333 342 340 341 342 341 344 342 338 333 331 325 323 322 323 322 323 322 322 323 323 326 325 318 317 316 315 314 313 312 312 311
308 309 310 314 316 317 319 322 324 324 327 332 334 342 344 343 343 343 341 338 331 329 325 322 320 321 320 322 322 320 319 320 320 326 322 319 319 317 315 313 313 314 311
308 309 309 311 313 314 315 314 318 321 323 327 331 335 342 342 335 337 342 336 329 326 322 320 319 318 318 319 320 319 318 317 318 320 319 321 320 319 319 316 318 317 311
307 307 308 310 311 313 306 307 312 318 322 323 325 331 339 332 330 322 322 322 329 327 323 320 318 317 317 318 318 318 316 314 313 320 319 318 322 320 321 321 316 313 309
305 305 307 308 308 309 304 303 306 314 318 321 324 328 334 343 331 339 318 317 318 315 321 323 320 319 318 320 319 317 316 315 314 316 317 315 324 322 324 324 312 309 307
305 305 306 306 306 307 302 301 303 310 317 322 324 326 331 338 335 335 328 329 327 326 323 326 325 324 322 322 323 322 320 316 316 318 319 316 321 319 322 320 307 307 305
302 303 304 305 304 305 301 300 302 310 316 318 323 327 332 338 318 308 331 326 322 318 308 307 311 308 306 307 315 320 317 315 314 315 323 315 318 318 319 319 317 306 304
304 305 304 303 304 304 301 300 302 312 315 320 325 329 316 328 306 307 329 325 321 318 318 317 315 310 310 309 307 321 319 315 313 314 320 318 317 317 315 319 317 313 311

GFSMA_sfc_thetae_087.txt.gz
Theta_e
334 334 332 331 331 331 331 331 330 330 331 332 333 332 330 329 330 332 331 342 348 350 354 356 354 352 352 353 351 351 349 347 348 348 347 347 347 346 346 346 347 346 344
333 329 332 332 331 331 331 331 330 329 328 330 331 333 332 332 332 331 332 333 346 349 351 354 355 354 352 352 351 351 349 347 347 347 346 346 346 346 345 345 346 345 345
333 330 330 332 334 331 332 332 332 331 328 331 332 333 334 334 333 333 333 333 336 348 349 350 353 354 354 352 351 353 351 348 346 346 345 344 345 345 345 345 346 345 345
335 331 332 333 335 333 334 334 333 332 331 330 331 331 331 332 333 334 335 334 334 337 347 350 350 352 352 352 351 352 352 346 345 344 344 344 344 344 345 345 345 345 344
339 333 332 336 337 335 335 335 331 331 327 326 328 329 329 331 332 335 334 334 335 336 336 344 348 349 350 352 352 351 351 349 345 344 344 344 344 344 344 345 345 345 344
342 341 338 334 339 335 334 332 331 330 330 329 331 333 334 335 335 335 336 338 338 336 335 336 338 342 347 350 350 351 349 348 346 344 343 343 343 343 344 344 344 344 344
343 340 342 342 338 338 337 334 331 330 330 333 330 328 330 333 332 334 337 337 337 339 337 337 336 336 338 345 347 349 350 350 346 345 343 341 342 343 344 344 343 343 343
345 345 341 340 340 339 336 334 331 330 330 332 327 328 323 325 326 331 335 336 337 338 339 339 338 337 337 337 339 345 348 348 347 347 343 341 342 342 343 343 343 342 342
340 340 343 341 340 339 337 334 332 330 328 331 332 327 322 320 320 325 330 335 335 336 337 339 338 339 338 337 339 341 344 345 347 348 344 343 342 343 343 342 342 341 342
338 339 338 340 341 342 338 335 335 333 331 327 331 335 333 324 318 316 326 333 333 331 333 336 338 338 339 337 341 340 339 341 346 346 346 345 343 343 343 343 342 341 342
338 339 336 335 337 340 338 334 333 333 333 331 330 328 329 328 326 322 322 321 327 332 335 338 337 337 337 338 337 338 337 337 338 340 341 343 343 343 344 344 343 342 342
332 336 339 339 340 339 337 335 334 333 333 333 333 329 329 326 323 324 320 320 325 330 331 334 335 335 336 335 339 337 334 333 331 331 334 336 339 341 343 344 344 342 342
318 323 331 337 337 336 334 332 333 334 334 333 333 334 335 332 328 329 326 322 323 326 329 332 334 335 335 335 335 336 336 330 328 327 328 329 332 336 339 341 342 342 341
317 320 322 325 334 338 337 336 336 334 333 336 335 337 337 336 330 330 327 325 322 321 323 327 330 334 334 334 335 333 334 329 326 324 324 325 327 329 332 334 336 336 336
322 325 326 325 326 329 335 336 336 336 335 334 334 336 338 338 337 334 332 330 326 322 322 326 326 331 332 333 335 333 333 329 327 323 323 323 323 324 326 327 328 329 330
322 323 325 327 327 329 329 332 330 334 335 336 336 335 337 337 337 334 335 333 332 328 325 328 327 329 330 332 333 332 331 328 325 323 322 321 320 320 321 322 323 325 327
321 322 321 322 324 326 327 328 327 328 333 333 335 335 335 337 335 334 335 335 334 333 329 333 327 328 327 327 329 328 330 328 326 321 322 320 318 318 318 319 320 321 323
317 317 319 319 320 322 323 324 325 327 328 329 332 335 335 337 335 336 336 337 337 336 332 329 326 325 324 323 325 324 326 329 326 324 320 318 315 314 313 314 315 316 316
312 313 313 313 314 317 318 320 323 325 327 327 329 331 334 337 335 337 337 337 337 336 332 327 325 323 323 322 321 321 322 322 325 326 318 318 317 315 313 312 311 311 310
307 307 308 310 313 314 314 315 316 315 319 322 326 328 331 333 337 339 337 338 337 333 330 326 322 321 321 320 321 319 319 319 320 324 322 320 319 318 315 313 313 313 310
307 306 307 308 309 311 313 311 311 310 311 316 321 324 325 326 325 327 339 340 340 333 328 324 320 318 318 320 321 319 319 317 317 319 318 321 321 320 319 315 316 315 312
305 306 306 307 307 311 307 305 308 307 309 312 314 318 322 322 323 318 318 322 335 334 326 324 321 318 317 319 319 319 316 314 313 317 317 316 322 320 321 320 315 312 310
304 304 305 305 306 306 303 302 304 306 308 308 311 315 319 325 322 329 325 315 316 315 321 327 323 319 317 320 320 316 315 314 314 314 316 313 320 321 323 322 311 309 308
302 304 304 305 305 306 302 300 301 304 305 307 310 314 319 320 321 322 331 333 331 328 323 326 327 323 326 325 325 322 320 315 314 316 316 312 317 320 321 322 308 307 306
304 304 304 305 304 304 301 299 300 303 304 306 311 315 318 319 313 306 324 332 330 324 310 308 310 310 307 305 314 320 315 314 313 317 319 314 317 319 320 319 319 307 304
305 305 305 305 305 304 299 298 299 304 304 307 309 314 310 314 308 305 320 332 326 322 318 318 317 310 310 310 306 320 317 313 312 315 321 317 316 317 315 319 317 315 313

GFSMA_sfc_thetae_090.txt.gz
Theta_e
338 337 335 333 332 333 333 333 334 335 335 336 336 336 335 335 334 334 336 341 345 348 353 356 356 355 354 354 352 351 351 349 347 346 346 345 347 347 346 346 346 346 346
339 335 334 333 332 332 332 333 333 332 332 333 333 334 335 336 336 336 336 337 342 346 352 355 357 356 354 353 353 352 350 349 348 346 345 345 345 346 345 345 346 346 346
340 337 334 333 333 334 333 333 334 334 332 333 333 335 336 337 337 338 338 338 338 343 350 352 354 355 355 355 353 352 351 349 348 347 345 344 344 344 345 345 345 346 346
342 337 334 332 334 334 334 334 334 333 333 333 334 335 336 336 337 337 339 339 339 339 344 350 351 353 354 355 353 353 351 349 348 346 345 344 344 344 344 345 346 345 345
341 336 333 333 335 336 336 336 335 336 334 332 332 333 332 332 334 336 338 339 340 340 340 342 349 350 351 353 353 353 351 349 348 345 345 344 344 344 344 344 344 345 345
340 338 335 333 337 338 336 336 336 334 334 333 332 333 334 335 337 338 339 341 341 341 341 341 345 348 348 351 353 354 353 351 348 347 345 343 343 344 344 343 344 344 344
341 340 339 339 337 337 337 336 336 335 334 336 334 333 332 334 336 337 339 340 343 343 343 342 341 342 345 347 348 351 352 353 349 347 343 342 342 343 344 343 343 343 342
342 341 340 340 341 339 339 338 337 335 334 335 333 332 325 326 328 333 338 340 343 343 343 343 343 343 344 345 346 346 349 350 350 349 344 341 342 343 343 343 343 343 342
345 345 343 341 340 340 339 337 333 333 332 334 335 332 324 321 325 330 335 338 339 341 341 343 344 343 345 345 344 345 345 346 349 350 347 344 343 344 344 342 342 341 341
340 340 342 341 339 337 334 333 337 336 331 332 332 335 335 330 325 322 331 335 337 337 338 337 342 344 345 345 345 343 340 342 345 348 348 347 346 345 344 342 342 341 341
338 338 336 336 337 333 330 327 330 333 335 334 332 330 332 334 331 329 325 326 333 336 336 338 341 342 344 344 344 343 337 337 338 341 342 344 345 345 344 343 342 342 342
333 336 339 338 333 333 331 329 330 332 334 334 333 332 331 328 327 327 326 326 326 333 337 340 338 341 343 342 343 339 334 333 332 332 334 337 340 342 343 343 343 343 343
324 328 335 336 338 338 335 335 334 332 331 330 330 330 334 333 333 331 328 327 326 331 336 337 339 340 342 340 342 338 336 331 329 327 328 330 333 336 338 339 341 342 343
319 323 324 329 337 338 338 336 334 333 332 332 332 333 336 336 335 334 332 330 327 327 330 332 337 340 340 338 340 335 341 329 327 324 324 325 327 330 331 333 335 336 337
322 323 326 326 329 335 337 338 335 333 333 333 334 336 336 337 338 335 334 331 328 324 323 330 332 339 340 334 338 339 339 330 327 323 322 322 324 325 326 326 327 329 331
324 326 327 329 330 331 332 334 334 335 335 334 336 335 336 337 338 338 337 334 332 328 324 331 338 338 337 334 336 336 337 329 326 323 322 322 321 321 322 322 323 325 326
324 325 325 325 327 327 328 329 329 329 330 332 334 335 335 335 335 336 337 336 333 332 327 334 335 332 330 332 335 336 334 336 333 321 322 321 319 318 319 318 319 320 323
322 323 323 322 322 323 324 324 325 326 327 328 330 331 331 335 337 335 336 333 334 334 332 328 331 332 329 330 331 330 331 334 334 324 320 319 317 315 313 313 313 315 316
319 318 318 317 317 318 319 321 322 323 325 324 325 326 328 331 332 335 335 333 333 333 332 329 330 331 329 327 327 328 329 331 332 326 319 319 318 316 314 312 311 310 309
315 314 314 313 313 315 317 317 318 318 317 319 322 324 326 328 329 331 333 335 333 332 331 330 331 331 327 328 327 326 325 327 329 330 325 321 318 318 316 314 313 313 310
313 312 310 311 313 314 312 315 317 315 315 314 316 319 321 322 321 321 326 326 331 331 332 331 329 327 324 324 325 326 327 326 327 329 329 326 325 324 324 317 318 315 312
312 309 308 309 310 311 305 306 311 313 313 313 313 315 318 317 319 315 314 313 319 330 334 333 329 325 327 327 326 327 325 323 324 328 327 326 324 324 326 325 316 311 310
308 306 308 309 309 310 302 302 305 311 312 311 312 312 312 314 317 324 319 314 314 311 314 334 332 328 329 328 327 324 324 324 326 324 326 324 324 322 329 326 311 308 308
305 306 306 307 308 309 301 300 302 311 310 310 311 311 311 313 316 320 322 323 326 331 328 326 335 334 330 330 329 331 329 327 323 323 326 322 324 325 328 327 309 306 305
305 306 307 307 307 308 300 299 301 308 308 308 309 311 313 314 308 302 316 319 323 326 312 309 310 311 307 307 318 327 324 324 321 321 322 324 321 323 323 324 326 307 305
306 306 307 307 305 307 299 299 301 307 306 306 310 312 305 309 303 299 312 319 320 324 322 317 316 310 311 310 309 332 327 324 321 319 324 321 321 322 320 322 322 321 320

GFSMA_sfc_thetae_093.txt.gz
Theta_e
349 348 346 345 342 341 340 340 340 341 344 345 344 343 342 343 344 343 344 346 345 346 347 353 356 356 356 355 353 352 351 350 349 348 347 347 347 346 345 346 347 346 345
351 347 347 345 344 342 340 339 340 342 343 345 345 344 344 345 345 346 344 346 344 344 346 352 357 357 356 356 354 353 351 350 350 348 347 346 346 347 345 345 346 346 346
353 350 347 345 343 344 343 341 342 343 342 343 346 347 346 347 346 347 347 346 346 343 346 351 354 357 357 356 356 354 352 350 350 348 347 346 345 345 346 345 346 346 346
353 350 347 344 344 342 341 341 342 342 343 343 346 348 348 348 347 347 346 346 347 347 347 348 352 354 356 357 356 356 353 350 349 348 347 346 345 345 345 346 346 346 346
351 351 349 345 342 340 340 340 341 342 342 345 346 347 346 345 345 342 345 347 350 349 349 348 349 350 352 354 356 356 354 350 348 348 347 346 346 345 345 345 345 346 346
351 350 347 347 342 340 339 339 341 343 343 344 342 343 345 345 345 344 345 346 349 351 352 353 352 349 348 351 353 355 356 353 349 348 346 345 345 345 345 345 344 344 345
348 348 345 342 341 340 341 342 342 343 343 344 342 343 344 347 346 343 345 345 347 349 353 354 354 352 350 348 349 351 356 355 353 349 345 343 344 344 345 345 344 344 344
347 346 342 343 343 341 342 344 344 341 343 345 342 339 333 338 336 339 345 346 348 349 350 351 354 354 353 352 352 348 351 353 355 352 346 342 342 344 345 345 344 344 343
348 347 345 343 346 348 345 345 344 340 337 342 343 338 331 326 331 337 340 344 347 345 345 348 351 349 354 354 351 350 347 349 354 354 350 344 344 344 345 345 344 343 343
350 350 348 348 348 348 343 339 339 339 336 333 339 342 341 336 330 328 338 343 341 343 347 345 345 349 352 354 353 349 344 343 349 351 351 348 347 347 346 345 344 343 343
350 350 351 351 350 345 343 340 337 332 329 326 328 334 335 339 337 334 325 330 340 342 343 343 345 347 351 352 351 349 340 338 339 343 346 347 348 347 346 345 344 343 343
347 349 348 350 345 343 342 339 339 340 333 332 331 335 332 331 330 331 329 328 332 337 340 343 344 345 348 347 347 341 336 333 332 333 337 340 343 345 345 345 346 345 344
338 342 346 345 343 343 342 342 340 337 334 334 333 334 333 330 333 331 330 329 329 335 337 342 342 344 345 347 346 340 339 331 329 328 329 332 336 338 340 342 342 343 344
333 340 340 343 345 346 345 343 338 335 335 334 335 331 329 331 333 333 329 329 327 332 333 337 342 342 344 343 344 336 344 332 328 326 325 326 329 332 334 335 336 337 338
330 333 334 335 336 342 345 345 340 339 340 339 336 337 333 336 332 333 333 331 331 326 328 333 333 345 348 346 344 348 346 336 330 325 323 324 325 327 328 329 329 330 331
332 333 334 337 337 337 341 345 343 342 341 339 341 339 337 338 337 338 337 340 340 335 330 334 336 344 347 346 347 348 347 333 328 325 323 322 322 323 324 324 325 325 327
333 334 335 336 337 338 339 340 341 340 339 340 341 340 339 340 337 339 343 343 338 336 331 334 340 345 340 341 345 345 341 343 342 323 324 322 320 320 321 321 321 321 323
332 333 334 333 331 332 335 333 331 331 332 332 333 335 333 333 335 339 337 338 339 338 335 328 331 337 335 337 336 340 341 340 342 329 322 320 318 317 316 315 315 315 316
331 332 331 330 328 327 327 327 325 325 325 326 326 324 324 327 330 332 334 335 339 340 338 329 325 331 332 334 335 336 336 338 340 328 320 318 316 316 315 314 312 311 310
328 329 329 328 326 323 321 320 321 321 322 319 320 319 319 320 322 326 329 331 332 333 337 336 331 327 330 337 335 333 333 336 337 336 330 326 321 318 316 315 315 314 310
327 327 327 326 324 320 317 320 320 320 320 320 320 318 320 318 317 317 318 322 326 326 330 334 332 325 326 331 328 335 333 337 337 339 338 337 334 334 332 318 322 318 312
325 325 324 323 322 317 307 307 317 320 320 319 319 318 319 317 315 311 312 313 319 327 327 332 334 326 326 328 331 331 332 332 331 338 336 335 334 335 336 335 318 313 311
325 324 323 321 321 321 302 303 307 321 320 320 320 319 317 314 315 317 313 312 312 309 313 326 329 331 334 336 335 331 333 335 333 334 335 333 331 331 335 334 315 309 308
320 321 321 321 320 319 302 300 302 320 321 320 320 319 319 318 318 317 318 319 321 322 327 329 327 331 337 344 341 338 338 336 336 335 336 329 332 330 336 336 313 308 306
316 317 318 319 319 319 301 300 304 317 318 319 319 319 318 318 308 302 316 317 319 321 320 310 308 309 306 307 324 333 331 330 330 330 330 333 328 331 333 332 328 308 305
316 315 315 316 313 317 303 298 303 314 316 316 318 318 305 310 302 299 314 316 316 319 326 326 326 318 309 317 307 335 334 330 332 325 329 329 328 329 326 327 325 325 325

GFSMA_sfc_thetae_099.txt.gz
Theta_e
354 349 350 342 343 341 341 340 341 342 342 343 348 347 345 345 347 347 347 352 350 349 349 351 353 357 358 358 357 355 354 353 351 350 349 349 349 348 346 347 348 348 347
356 347 349 345 343 343 340 341 343 342 342 343 347 349 350 349 349 350 348 350 351 350 351 351 353 356 358 357 358 356 354 352 352 350 349 348 348 348 347 347 348 348 347
359 354 348 348 347 351 352 347 345 344 341 344 348 349 349 350 349 351 351 350 348 350 351 352 353 355 358 359 359 357 355 353 352 351 350 348 347 347 348 348 348 348 348
358 359 348 347 349 350 348 345 341 338 339 341 347 347 348 351 350 351 351 348 345 345 349 351 352 353 355 359 360 358 356 353 352 351 350 349 348 347 347 347 348 348 348
359 355 351 349 357 349 348 345 343 343 341 342 341 347 350 349 352 348 352 354 355 350 348 353 350 350 352 355 358 358 357 355 352 350 350 349 349 348 347 346 346 347 347
359 359 354 350 356 349 348 347 348 346 343 343 336 339 348 347 348 351 351 349 350 351 353 358 358 352 349 353 355 357 357 355 353 352 349 348 348 348 347 347 346 346 346
358 359 353 356 351 351 352 354 350 351 344 348 342 342 345 354 354 346 347 346 348 350 349 355 361 359 353 350 350 353 357 356 355 353 350 346 346 347 347 347 346 345 345
361 358 358 356 355 348 353 352 351 342 342 346 339 338 336 341 344 346 345 346 349 349 348 354 356 360 352 351 356 349 353 356 356 355 352 347 346 347 347 346 346 345 344
359 359 361 358 358 355 349 353 351 346 337 343 350 343 340 331 344 347 350 345 351 346 348 350 352 357 358 351 351 354 350 351 355 355 353 350 348 347 346 345 345 345 345
358 358 360 360 361 353 351 352 351 347 346 340 344 344 346 342 329 328 342 345 347 347 349 346 348 352 355 356 353 351 347 346 351 353 353 352 351 350 348 346 345 344 345
359 354 359 359 357 353 352 352 352 351 346 341 339 339 341 336 340 328 324 329 338 342 343 345 346 347 350 351 349 348 340 341 343 345 347 350 350 350 349 347 346 345 345
355 359 356 358 358 356 355 352 355 352 350 346 340 340 335 331 330 330 327 330 330 334 338 345 346 346 348 348 347 341 337 336 335 335 337 341 344 346 348 348 348 348 348
346 356 358 354 355 356 355 352 353 353 353 347 349 342 341 338 334 332 332 331 331 333 333 338 337 342 345 347 345 340 341 334 330 329 330 332 336 340 343 346 347 347 348
346 358 358 357 356 357 357 357 352 351 353 350 351 350 341 340 338 336 334 334 330 328 330 334 334 335 336 339 346 339 346 334 329 326 325 326 329 332 336 338 340 342 342
345 347 355 355 356 354 354 355 349 351 351 352 350 351 345 341 339 339 340 336 331 323 324 329 325 335 336 344 343 350 347 339 331 327 325 324 325 327 329 331 333 334 335
350 349 350 352 352 352 345 351 350 350 350 350 347 348 347 344 344 342 340 340 337 329 323 328 329 338 341 344 341 339 346 336 332 327 325 324 322 323 325 327 328 330 331
348 339 342 345 346 347 349 349 348 344 344 346 347 344 344 347 343 339 340 339 336 334 330 331 333 337 340 341 342 344 345 345 342 326 327 325 322 320 322 323 326 327 327
335 333 335 335 335 335 341 339 336 335 336 338 339 341 340 343 343 345 345 342 342 342 338 332 334 335 338 342 346 345 345 343 342 334 326 322 321 319 319 320 321 322 322
330 328 328 328 328 329 332 334 333 332 332 335 334 335 337 339 340 339 341 340 341 342 340 336 332 336 336 340 339 341 342 340 339 335 328 322 320 319 319 319 319 318 314
330 329 328 327 327 328 329 330 329 330 332 331 334 335 334 335 335 337 336 336 336 333 332 330 330 330 333 337 339 336 334 337 336 339 335 331 326 321 322 318 317 316 313
320 321 324 326 327 326 324 327 327 328 328 328 329 328 328 324 315 317 323 328 329 324 322 320 322 324 327 330 331 336 333 333 336 340 343 346 336 332 325 319 325 320 314
321 320 321 321 325 322 310 310 323 328 327 326 325 323 324 318 315 311 311 311 315 320 320 317 317 320 327 331 336 337 334 329 322 338 339 339 343 337 338 336 323 319 312
320 320 318 323 324 327 303 305 308 327 328 327 328 327 322 319 319 321 311 310 310 308 311 324 321 323 325 331 334 334 335 334 325 339 339 324 339 337 343 330 318 319 312
317 320 320 322 325 320 312 304 306 330 329 329 329 329 329 324 324 322 321 320 320 322 323 320 325 329 332 334 334 334 334 335 334 339 341 331 336 334 344 338 316 314 308
323 324 325 326 327 327 307 304 309 326 328 329 326 328 327 326 312 306 321 319 319 322 316 308 306 306 304 303 308 324 327 327 327 331 335 336 338 335 342 335 326 312 308
322 325 326 329 324 328 304 302 307 319 324 322 328 330 309 320 304 302 322 320 317 319 320 321 322 321 314 321 307 323 329 325 325 324 338 336 333 337 331 338 333 330 326

GFSMA_sfc_thetae_102.txt.gz
Theta_e
352 349 344 345 344 340 339 338 340 339 342 342 341 346 345 344 346 346 347 352 350 350 353 355 356 356 359 356 357 356 354 353 352 351 349 349 349 349 348 349 348 348 348
350 349 350 346 344 339 341 339 343 343 341 340 342 349 348 349 349 349 348 349 351 350 352 354 355 357 359 359 357 356 354 353 352 351 350 348 348 348 348 348 348 348 348
354 351 347 350 347 350 349 346 346 347 345 344 343 347 350 350 350 351 352 350 349 351 352 353 354 355 357 359 359 357 354 353 352 351 350 349 348 347 348 348 348 348 348
353 355 349 345 347 351 348 345 342 341 339 339 342 346 347 350 351 351 349 349 347 347 350 352 353 354 355 359 360 359 356 353 351 350 350 350 348 347 347 347 347 347 347
352 354 348 346 348 346 345 343 344 339 337 338 342 346 347 349 349 347 351 351 350 349 346 352 350 351 353 355 359 359 357 354 351 350 350 350 349 348 348 347 347 346 346
354 352 351 349 348 344 342 343 341 342 340 339 337 337 343 348 349 347 350 351 349 350 348 349 349 348 350 352 355 358 359 357 353 351 350 348 348 348 348 347 347 346 346
356 354 353 351 355 346 343 343 341 344 341 344 340 338 340 344 346 349 344 344 346 347 347 348 351 355 351 350 351 353 357 358 356 353 350 347 347 347 347 347 346 346 345
356 357 355 351 352 351 349 348 345 340 344 341 334 336 330 335 344 342 344 344 345 348 348 349 353 353 348 348 348 349 353 357 357 355 351 347 347 347 347 347 346 346 345
356 356 356 353 351 350 345 347 348 343 337 340 341 336 330 326 334 342 343 342 345 346 344 346 348 350 349 348 349 351 349 351 356 357 353 349 348 349 348 347 346 345 345
354 356 355 355 351 351 345 347 347 345 340 334 341 340 343 338 327 326 338 340 345 343 343 344 347 346 347 348 354 351 348 347 352 354 354 352 351 351 350 348 346 344 344
353 354 354 353 354 352 351 349 348 346 342 337 340 339 339 338 337 330 323 331 339 339 341 342 343 345 345 345 345 341 340 342 343 346 348 349 351 351 350 349 347 345 345
350 351 350 353 353 353 351 349 349 347 343 339 340 339 336 333 331 330 326 325 324 328 335 338 344 342 343 343 346 341 337 335 335 336 338 341 344 348 349 349 350 349 348
342 346 348 350 352 352 352 350 347 345 344 342 341 339 338 336 334 332 329 325 324 328 331 335 338 339 341 344 344 341 340 333 329 328 329 332 335 339 341 343 347 348 348
334 339 344 347 348 349 349 350 346 348 346 344 343 342 339 339 338 335 329 326 323 326 329 330 334 335 335 335 337 336 336 332 329 327 326 326 328 331 334 335 338 341 342
340 337 341 345 339 326 337 347 345 344 343 344 343 341 340 342 341 339 335 334 330 322 324 329 327 332 331 333 338 340 340 337 331 327 325 324 325 326 328 329 331 334 335
338 341 343 343 340 338 339 346 345 342 339 338 338 340 341 341 341 341 339 338 336 329 324 329 330 332 338 338 339 340 338 333 331 327 326 325 324 323 324 325 326 328 331
335 338 340 343 342 341 341 339 338 335 334 332 335 338 341 342 340 339 340 337 334 332 326 329 332 333 334 334 336 340 339 339 338 329 327 325 322 321 321 322 322 324 328
322 319 323 336 340 339 337 330 330 334 333 331 334 336 338 340 340 340 339 335 334 333 329 325 329 331 333 334 336 337 339 340 340 334 326 324 322 319 319 320 319 320 322
318 317 316 316 319 336 336 333 331 332 325 334 336 338 337 337 334 335 336 334 332 333 330 327 327 331 332 333 332 334 335 335 338 334 326 324 322 320 318 317 318 319 319
317 314 316 317 317 330 334 335 334 333 332 333 336 335 335 335 334 335 336 331 332 329 328 326 326 327 328 330 331 328 327 333 332 336 332 331 325 323 321 318 318 319 315
318 316 316 317 318 319 328 330 331 332 333 331 335 334 334 328 326 329 330 326 323 321 320 318 316 317 318 323 324 326 326 328 328 332 331 332 331 329 326 318 322 321 316
316 318 317 317 317 318 309 310 317 330 330 329 329 328 318 314 312 310 310 309 315 315 314 314 312 311 314 316 320 325 325 323 321 330 329 327 331 332 332 326 319 317 314
316 314 315 317 316 318 308 305 306 326 328 327 326 325 319 319 318 315 310 309 308 308 311 318 317 317 317 319 320 319 320 324 324 329 327 326 329 325 333 335 318 317 312
317 316 315 315 315 319 305 304 303 313 327 326 326 326 324 322 321 321 319 317 318 320 314 313 315 317 321 324 326 325 323 323 327 329 329 322 328 325 330 326 316 314 313
315 317 317 316 315 319 304 304 309 315 313 324 326 327 326 323 311 310 321 319 318 319 316 309 308 306 301 301 304 311 314 316 316 320 328 325 325 327 330 324 321 314 311
312 316 318 320 314 320 303 302 308 313 312 319 325 326 311 321 303 306 320 319 317 318 320 319 318 314 311 315 306 310 317 318 318 318 326 324 323 323 323 329 323 317 313

GFSMA_sfc_thetae_105.txt.gz
Theta_e
343 341 341 338 339 339 336 333 333 333 333 331 332 333 337 337 335 340 341 353 351 352 355 356 356 356 357 355 355 355 354 352 351 350 348 348 348 348 348 349 349 348 347
344 344 338 337 338 337 336 330 333 332 332 334 333 334 338 341 341 339 341 345 350 350 352 355 357 357 358 358 355 355 354 352 352 351 349 348 347 348 348 348 349 348 348
345 344 340 340 340 337 335 333 330 333 334 333 331 336 341 340 342 342 343 343 345 350 351 353 355 356 357 359 358 356 354 352 352 351 349 348 347 347 348 348 348 348 348
347 346 343 340 341 340 337 335 332 336 334 333 332 334 337 341 343 343 345 344 342 344 350 352 353 354 356 358 359 358 355 352 351 349 349 348 348 347 347 347 348 347 347
345 347 344 341 340 338 339 336 334 335 332 331 331 332 338 340 342 345 343 342 344 344 343 349 351 351 353 355 359 359 357 352 349 349 349 349 349 348 347 347 347 347 346
345 345 345 343 342 340 338 337 333 332 330 331 332 333 339 340 341 340 341 345 345 344 345 344 347 347 350 352 355 358 359 356 352 350 349 347 348 348 348 348 347 347 346
346 345 345 344 343 339 338 337 334 331 331 331 329 328 331 338 339 342 344 343 341 341 342 342 345 345 346 349 350 353 358 359 356 353 348 346 346 348 348 348 347 346 346
350 346 344 344 341 342 339 336 337 334 333 334 328 325 320 324 335 340 338 338 338 343 344 343 342 349 350 346 347 349 354 357 359 356 350 346 346 348 348 347 347 346 345
350 350 347 346 346 341 342 340 338 335 331 333 330 326 322 318 326 333 334 336 339 338 341 342 346 346 345 344 347 348 349 350 356 358 354 348 347 348 348 348 347 346 345
351 348 350 349 347 345 344 345 342 339 335 331 332 332 331 327 322 322 332 334 335 337 337 339 342 344 343 341 346 349 347 346 351 354 355 353 351 350 349 348 347 346 346
341 349 349 345 339 338 342 344 341 342 340 335 334 332 330 330 329 321 319 327 331 336 336 336 338 341 341 340 340 340 337 338 341 344 347 350 352 352 351 350 349 347 346
332 339 330 328 334 331 336 341 342 342 341 338 335 333 332 329 327 323 318 319 325 328 333 334 335 337 339 338 342 341 335 334 333 332 336 340 345 348 350 350 351 351 350
327 326 336 337 335 335 338 340 337 337 341 338 336 334 336 332 328 326 322 319 318 321 323 328 331 337 338 338 338 340 339 332 329 327 329 332 335 338 341 344 347 348 350
330 331 330 336 334 330 331 332 326 323 330 339 336 336 336 334 334 328 326 321 315 318 322 324 328 331 331 331 335 335 332 329 327 326 326 326 328 330 333 335 337 340 342
330 330 331 329 335 337 330 330 326 322 331 331 338 337 336 333 332 332 329 323 320 314 317 322 323 327 328 328 329 328 331 334 331 326 324 324 324 325 327 328 329 332 333
320 320 318 318 327 325 325 328 327 327 324 332 338 337 332 332 332 334 331 328 327 321 317 322 324 325 326 329 332 334 333 332 329 327 326 325 323 323 324 324 325 326 329
318 318 317 316 315 317 322 317 317 319 322 332 330 326 325 325 324 327 333 331 327 324 320 321 324 325 328 329 331 332 334 334 334 327 326 325 322 320 321 321 322 323 325
317 316 316 315 316 316 316 317 323 323 328 324 322 319 323 327 323 320 323 330 328 325 322 318 319 323 325 327 328 329 332 337 336 333 326 324 321 319 319 318 318 318 320
316 315 315 313 314 316 316 315 316 318 320 321 321 321 323 321 325 328 328 328 327 327 324 320 318 319 323 324 323 328 328 329 332 333 326 323 322 320 319 318 317 317 316
316 314 313 314 317 317 318 317 315 313 316 324 324 324 325 323 328 329 331 328 326 323 321 319 315 314 317 319 321 323 322 324 326 332 331 327 324 324 320 319 317 318 316
315 315 314 312 314 316 319 313 314 313 312 322 320 321 322 321 327 328 331 326 321 318 316 314 312 312 314 314 317 318 317 320 322 325 326 326 328 329 326 320 322 321 318
311 312 312 312 313 317 311 308 312 314 320 322 322 326 329 324 321 317 315 313 314 310 307 305 304 303 305 309 311 312 314 314 314 322 323 322 326 328 331 328 319 315 311
305 309 310 311 312 315 308 307 308 313 316 320 317 315 317 317 312 308 307 308 307 308 309 308 306 308 309 312 313 311 311 313 315 320 322 321 325 322 327 333 315 313 310
303 305 308 312 312 315 307 306 305 310 316 321 317 315 313 309 309 307 306 307 308 308 307 309 309 310 312 314 315 316 314 314 315 318 323 320 322 321 325 326 315 312 310
301 304 307 309 311 313 304 302 304 312 313 316 317 316 316 312 305 306 309 308 309 311 312 307 305 304 305 302 302 304 304 305 307 310 319 319 320 320 325 322 321 313 310
302 305 305 305 308 313 304 300 303 312 309 312 316 316 311 313 303 304 312 310 308 309 312 312 311 308 306 308 305 306 307 307 309 310 317 317 316 316 318 324 320 315 313

GFSMA_sfc_thetae_111.txt.gz
Theta_e
342 343 342 341 340 341 339 337 335 334 332 332 331 329 328 327 331 332 334 345 348 350 356 358 357 355 355 354 354 355 354 351 350 348 348 347 347 347 347 347 348 348 347
344 342 342 341 339 338 338 337 331 331 328 327 327 327 327 328 331 334 336 338 350 350 352 355 357 356 356 355 353 354 354 352 351 349 348 347 347 347 347 347 348 348 348
344 343 340 340 340 337 334 333 331 329 326 326 326 326 327 328 330 334 336 336 340 350 350 353 357 357 357 357 356 354 353 353 352 350 348 347 347 347 347 348 348 348 347
348 344 341 339 338 335 333 332 331 328 327 327 326 326 328 329 331 333 336 336 337 340 347 351 353 356 357 357 358 357 354 352 351 350 349 348 347 346 346 347 348 347 347
345 345 342 340 338 334 332 332 331 329 326 324 325 327 328 328 330 336 337 337 338 341 341 346 350 351 353 356 358 358 357 353 350 350 350 349 348 347 347 346 347 347 347
340 338 341 338 337 334 334 332 331 328 328 326 327 327 327 328 329 331 334 339 339 340 340 340 342 346 349 353 355 357 358 357 352 350 349 348 348 348 347 347 347 346 347
341 338 338 338 337 335 335 335 334 330 327 326 325 325 328 329 328 332 334 335 338 339 339 340 340 340 342 349 350 353 357 359 357 352 348 346 347 348 348 347 347 346 346
340 341 337 337 336 336 335 336 331 330 331 329 326 323 323 325 326 330 332 335 336 339 341 340 339 340 340 340 344 349 353 357 357 354 350 346 346 347 348 347 347 347 345
333 337 338 338 337 336 337 338 336 331 330 330 331 327 320 318 322 325 330 334 336 336 339 337 338 339 340 340 344 346 348 350 356 356 352 348 347 348 348 347 345 344 344
329 331 330 333 336 337 337 338 337 334 332 331 329 333 330 325 320 320 327 331 335 335 337 337 336 338 340 341 345 345 343 345 350 352 352 351 350 349 349 347 343 343 344
325 328 328 329 327 332 337 337 337 333 333 329 324 320 321 322 324 321 316 322 328 333 336 335 336 338 340 339 340 340 339 339 341 344 345 346 347 348 347 344 340 344 344
321 324 327 326 326 324 327 330 330 331 332 329 322 321 326 320 320 321 317 319 320 328 332 335 335 337 338 338 341 339 334 332 331 332 335 337 340 341 344 345 346 344 344
320 319 320 320 321 324 327 324 322 320 323 325 326 329 328 325 325 324 323 320 321 326 325 330 336 336 335 335 337 337 337 331 328 326 327 328 332 334 336 341 343 342 342
320 318 318 316 317 320 321 324 324 324 322 323 325 329 326 325 328 321 319 319 316 320 322 323 328 334 336 333 334 335 335 330 328 325 323 324 325 327 330 334 337 338 338
320 317 316 314 314 315 316 317 321 325 327 328 327 328 329 328 323 325 323 321 319 314 318 323 324 328 333 331 334 334 333 329 327 323 321 322 323 324 325 326 327 329 330
317 316 315 313 313 313 313 313 312 316 319 322 323 320 320 321 322 322 323 326 326 323 319 322 323 325 327 330 331 330 328 327 325 324 323 322 321 321 322 322 323 324 326
315 314 314 313 312 312 311 310 311 313 314 315 316 319 320 322 320 321 325 324 326 325 320 320 323 325 325 325 325 327 327 326 327 324 324 323 320 319 319 319 320 321 322
314 315 314 313 313 313 311 310 311 313 312 313 315 316 317 323 323 325 323 321 320 322 321 318 319 321 321 322 322 323 325 330 329 328 324 322 320 319 318 317 317 317 316
312 312 312 313 313 313 311 311 312 312 312 312 313 316 319 321 322 318 319 319 319 320 319 318 318 322 323 320 321 317 320 320 325 328 322 321 320 319 318 316 315 314 312
310 308 309 311 313 313 313 313 313 312 312 313 313 313 314 317 319 319 318 318 318 317 318 317 318 319 318 319 315 313 314 317 319 325 324 323 321 320 317 315 317 317 312
307 308 308 309 310 311 312 311 312 312 311 310 311 312 313 314 316 318 320 320 319 317 317 316 316 318 313 314 313 315 314 311 313 315 315 318 320 321 321 318 320 319 313
305 305 305 308 309 311 307 306 309 309 310 311 310 311 312 314 314 312 312 316 318 316 317 317 317 317 316 313 312 310 309 307 305 314 315 314 316 315 319 321 317 313 311
302 302 302 304 306 306 303 303 305 307 309 310 311 312 313 315 314 314 312 311 314 312 315 321 318 313 310 310 310 308 307 306 306 310 311 307 311 312 317 321 312 308 307
301 302 303 303 303 306 302 301 302 304 306 309 311 312 313 314 315 314 314 315 317 320 319 320 320 313 311 311 311 309 308 306 304 306 311 308 309 311 315 320 310 307 304
300 302 303 303 303 304 300 300 301 304 306 308 311 314 314 314 310 304 315 315 317 315 311 308 308 304 302 303 308 307 302 301 299 302 308 310 310 311 317 321 316 306 303
298 300 301 302 303 302 300 298 300 303 305 309 313 314 308 307 302 303 314 313 309 309 310 306 306 303 303 303 303 306 303 301 300 302 308 312 310 310 312 319 316 311 307

GFSMA_sfc_thetae_114.txt.gz
Theta_e
344 345 345 344 343 343 342 340 338 337 337 336 335 334 333 331 330 332 335 341 346 348 351 358 360 360 357 356 355 355 354 350 350 349 348 348 348 348 348 348 348 348 347
344 343 343 343 342 341 341 340 338 335 334 333 332 332 331 331 330 331 333 338 344 348 352 354 358 359 358 356 354 354 354 352 351 349 348 347 347 347 348 348 348 348 348
345 345 342 341 342 341 340 339 338 336 333 331 330 331 330 330 329 330 334 338 340 344 351 352 354 356 358 358 357 354 353 353 352 350 348 347 347 347 347 348 348 348 347
349 346 344 343 343 341 338 337 336 334 332 331 331 330 331 332 332 334 336 339 341 341 345 352 352 354 357 359 358 357 354 351 351 350 349 348 347 347 347 347 348 348 347
349 348 346 345 342 339 337 337 335 334 334 330 329 330 330 331 332 333 335 339 341 342 342 344 349 351 352 356 359 359 357 353 350 350 350 349 349 348 347 347 347 347 347
343 344 345 343 341 338 336 335 334 334 333 333 329 330 331 331 332 332 333 336 341 343 343 345 345 348 349 352 354 357 358 357 352 351 349 348 348 348 348 347 347 346 346
341 339 339 340 340 339 338 337 337 334 332 330 332 332 331 331 330 333 336 336 337 339 344 344 344 344 346 349 349 352 357 358 358 353 349 346 347 348 348 348 347 346 345
338 341 339 338 338 338 337 337 335 334 334 331 330 328 324 328 332 332 333 336 336 339 338 342 344 344 345 347 349 348 353 356 358 357 351 346 346 347 348 348 348 347 346
333 335 334 337 337 337 337 338 337 334 333 332 333 330 322 320 324 331 331 329 330 333 335 340 344 345 345 346 346 347 348 350 355 357 355 349 348 347 348 347 346 346 345
330 331 331 332 333 336 336 337 339 338 335 332 332 333 333 331 322 319 329 330 331 328 328 331 340 342 344 345 346 346 342 344 350 353 353 351 350 350 348 348 347 343 340
327 330 330 330 330 330 332 336 337 337 336 334 333 327 328 326 326 321 317 320 328 328 327 328 333 339 341 342 345 345 340 339 341 344 346 348 349 349 348 347 345 342 341
325 328 328 328 327 327 328 329 332 333 333 333 332 327 326 323 321 321 319 321 322 325 326 327 331 336 339 343 344 340 336 335 334 335 337 340 343 343 344 347 346 344 343
322 322 322 321 321 323 324 327 326 326 326 328 330 329 328 326 328 327 325 322 321 324 327 331 333 335 339 342 343 340 338 332 329 328 329 331 333 336 338 340 342 344 344
321 321 320 319 319 320 320 321 325 326 326 325 324 326 328 330 330 329 326 324 320 320 324 325 330 333 339 340 341 336 342 330 327 325 324 325 327 329 330 331 332 335 338
322 320 319 317 318 318 318 318 318 320 324 326 328 326 326 329 329 329 327 324 321 316 318 323 325 332 334 339 338 339 340 332 328 324 323 323 323 324 325 326 327 329 330
321 320 318 317 316 317 316 316 315 316 317 318 322 324 325 327 328 329 328 327 325 321 317 325 327 332 333 333 335 337 337 329 326 325 322 321 321 321 322 322 323 324 325
319 319 318 317 315 315 315 314 314 315 315 316 318 319 320 322 322 323 325 325 324 324 319 323 329 331 330 328 332 333 332 333 333 322 322 321 319 319 319 319 320 321 322
317 318 318 317 315 315 315 313 313 315 315 314 315 316 317 321 322 325 324 323 324 327 324 320 326 326 326 326 328 330 331 333 333 326 322 321 319 318 317 316 316 316 316
314 315 316 316 315 315 315 314 313 314 314 314 315 315 316 319 319 322 323 322 324 325 325 323 323 326 327 328 326 329 326 328 331 328 322 320 319 318 318 316 315 313 312
310 312 313 315 315 315 314 314 313 313 314 314 315 315 315 315 316 318 321 322 322 320 320 321 319 321 324 326 326 325 320 325 326 328 327 323 320 318 316 315 315 317 313
308 309 309 310 311 312 313 313 314 314 313 313 315 315 316 316 315 315 317 320 320 319 319 318 316 317 319 319 320 322 322 322 322 324 324 328 331 330 328 318 321 320 315
305 306 307 307 308 309 306 306 311 312 313 313 312 313 314 314 314 311 312 314 318 319 315 315 316 315 317 321 318 318 319 315 314 320 324 325 325 324 324 327 316 312 313
303 303 304 305 305 307 303 303 305 311 311 312 311 311 311 313 313 315 311 309 310 309 312 318 315 317 319 321 319 317 316 316 316 319 320 316 319 319 323 324 310 309 309
300 301 302 303 304 305 302 300 302 309 309 309 309 310 311 312 314 313 314 314 315 315 315 314 318 320 322 319 320 320 317 315 314 314 318 313 319 321 324 324 307 306 304
296 297 298 299 302 305 300 299 300 305 305 306 308 309 311 312 308 303 311 312 313 315 312 308 309 308 305 305 310 313 310 309 307 311 314 317 319 322 323 322 317 304 303
295 297 297 298 299 302 300 298 300 303 303 303 305 308 305 309 304 301 306 309 309 312 314 314 315 306 306 306 305 317 311 308 309 310 315 319 319 321 319 320 316 312 307

GFSMA_sfc_thetae_117.txt.gz
Theta_e
353 353 353 353 353 352 351 349 348 346 344 343 341 339 337 338 337 335 335 342 345 347 348 349 355 359 360 358 356 355 355 352 351 349 349 349 349 349 349 349 349 349 347
355 353 352 352 352 352 352 351 350 349 346 344 341 340 339 339 338 337 333 334 342 345 349 351 353 360 361 360 357 356 354 354 352 350 349 348 348 348 349 349 349 349 348
354 356 353 352 353 354 354 352 351 350 347 346 344 344 342 341 339 340 339 337 338 344 347 351 354 356 359 360 359 357 354 353 353 351 349 348 348 347 348 349 349 349 348
355 356 354 352 353 352 351 350 349 347 346 345 344 344 342 343 343 342 342 341 339 342 346 348 353 354 355 358 359 358 355 352 352 351 350 349 348 347 347 348 348 348 348
356 356 353 354 356 352 351 348 348 347 345 345 343 341 341 342 343 341 343 343 342 341 342 346 347 350 352 354 357 359 358 354 350 350 351 350 349 348 348 347 348 348 348
352 353 353 354 353 351 350 350 348 348 345 344 342 341 343 343 342 342 342 340 341 342 345 347 347 346 348 351 354 356 358 357 353 351 349 349 349 349 348 348 347 347 347
352 352 351 351 351 349 350 350 347 345 344 346 340 342 343 345 344 341 339 340 343 343 345 346 347 347 346 348 350 352 356 358 357 354 349 347 348 349 349 348 348 347 346
347 347 348 345 346 345 347 347 345 343 342 345 339 339 333 337 339 341 340 341 344 342 342 344 345 348 349 348 350 349 352 356 358 357 352 347 347 348 349 349 348 347 346
341 343 341 342 344 344 340 344 343 339 338 341 343 338 332 327 335 338 339 339 342 340 340 341 343 343 349 349 349 350 349 350 355 355 355 350 348 349 349 348 348 347 347
338 340 340 341 342 342 342 340 339 340 339 335 340 338 343 340 330 327 335 336 338 337 339 337 337 341 344 346 347 346 344 344 350 352 354 354 352 351 350 349 347 346 347
338 338 340 341 341 339 341 342 341 341 341 338 336 335 336 338 339 332 327 330 334 335 336 336 336 335 338 340 343 342 340 339 341 344 347 350 352 352 351 349 348 347 347
336 338 337 339 339 336 336 336 338 340 338 336 337 337 332 329 329 329 327 329 329 333 334 335 336 335 336 337 340 338 337 335 334 335 338 342 346 347 349 349 349 350 348
331 335 335 334 331 333 332 332 333 333 335 334 335 332 332 332 332 332 328 324 327 331 331 335 336 336 336 337 338 338 338 333 330 330 331 333 338 341 341 342 345 348 347
330 335 333 332 331 329 328 329 326 327 331 331 333 333 331 332 332 333 330 329 325 325 329 331 334 336 337 339 339 338 343 332 329 326 326 328 330 332 333 335 335 336 337
329 333 332 331 329 328 327 327 323 326 327 329 329 331 328 329 332 333 334 333 324 318 321 329 330 338 336 336 339 342 342 336 329 325 324 324 325 326 327 327 328 329 329
333 331 331 330 328 327 326 327 323 324 324 323 323 326 327 324 327 327 329 333 330 324 319 326 330 336 338 336 337 340 339 334 327 325 324 322 322 322 323 323 324 325 327
330 330 330 329 327 326 326 325 324 322 321 322 324 324 324 327 322 323 325 326 326 328 320 325 330 335 336 336 338 340 340 342 340 324 324 322 320 319 320 321 321 322 323
325 324 325 326 326 325 325 324 321 318 319 318 320 322 322 321 325 325 323 325 325 326 326 322 328 330 334 337 337 338 336 336 340 328 322 321 318 318 317 317 317 318 318
319 320 321 321 322 323 324 324 322 319 319 320 321 320 320 321 322 320 322 320 320 324 328 323 322 329 331 334 335 337 335 335 339 331 321 320 319 320 318 317 315 315 313
315 316 317 317 318 320 321 322 322 321 321 320 322 322 319 318 319 320 319 319 320 319 321 320 320 325 330 333 330 329 328 331 330 332 330 327 324 320 318 316 315 315 312
311 312 312 312 314 316 315 319 320 321 322 321 322 320 321 320 316 317 315 317 319 316 316 317 318 320 323 323 323 326 325 328 329 332 333 334 334 334 333 318 325 318 315
309 309 309 309 311 311 306 306 312 319 320 320 319 320 320 317 316 312 312 312 314 315 317 315 316 315 318 323 324 323 325 323 322 332 328 327 332 331 332 333 319 313 313
307 307 307 308 308 310 303 302 304 311 315 318 319 319 318 316 315 316 311 309 309 308 310 319 319 319 319 322 323 321 326 326 326 327 325 325 329 324 325 322 312 311 307
305 304 305 305 306 307 301 300 301 308 310 314 316 316 317 316 314 314 314 314 315 317 318 317 319 322 323 325 325 324 322 324 320 321 325 316 322 319 328 330 306 305 306
302 302 302 301 300 303 299 298 301 307 308 310 313 314 312 312 306 301 312 312 314 315 314 308 309 307 305 304 315 317 314 313 313 314 319 317 321 324 328 329 323 304 303
297 298 297 298 299 300 299 297 299 305 306 307 308 309 304 306 301 299 310 312 311 313 312 314 314 310 309 315 307 319 317 313 314 312 319 316 321 324 320 325 318 316 311

GFSMA_sfc_thetae_120.txt.gz
Theta_e
356 356 356 355 355 355 354 354 353 352 350 349 347 343 340 339 339 337 334 344 344 345 345 349 353 355 356 359 357 356 355 354 352 351 349 349 350 350 350 349 350 349 349
358 356 356 356 355 355 355 354 354 354 354 354 352 351 348 346 342 340 336 337 345 344 346 349 353 356 358 360 359 357 355 354 354 352 349 349 349 349 350 350 350 349 349
361 361 356 355 355 357 358 356 355 355 353 351 350 350 350 351 348 347 345 344 343 344 346 349 352 356 358 361 361 358 355 353 354 352 350 349 348 347 348 349 350 350 349
360 361 355 356 357 358 357 354 352 351 351 350 350 350 348 347 347 349 349 347 346 345 345 350 351 354 356 359 361 360 357 354 352 352 351 350 349 348 348 348 349 349 349
358 358 356 358 361 358 356 355 354 354 351 350 349 350 350 349 348 344 347 349 350 348 343 346 350 350 353 356 358 360 358 354 352 351 351 350 350 349 348 348 348 348 348
359 360 358 359 359 355 354 353 355 353 351 350 348 346 349 349 349 349 349 348 348 349 348 349 347 346 348 352 354 357 358 357 354 352 350 349 349 350 349 349 348 348 347
359 360 356 357 359 355 355 356 354 352 349 350 346 343 344 349 351 349 349 349 349 348 349 349 350 347 347 349 349 352 356 358 358 355 350 347 348 349 349 349 348 347 346
360 358 357 353 353 346 351 351 351 348 345 347 343 339 332 334 337 347 348 347 347 346 345 348 349 350 351 348 351 348 353 356 359 358 353 347 347 349 349 349 349 348 347
348 347 345 341 343 342 334 343 344 344 336 338 347 341 328 324 330 337 345 345 346 344 345 345 346 346 350 348 347 349 350 351 355 358 355 351 349 349 349 349 348 348 347
339 341 340 339 341 336 340 338 339 341 340 335 337 341 342 340 332 326 333 342 345 344 347 342 342 346 346 346 348 346 343 346 352 354 354 353 353 351 350 349 348 347 347
339 336 338 339 339 335 337 340 339 341 337 334 331 332 337 337 338 332 326 333 334 340 341 341 341 341 344 342 342 341 339 340 342 345 347 350 353 353 351 350 349 348 348
336 339 337 338 338 336 336 334 337 338 338 336 334 335 331 331 329 330 329 330 331 335 336 339 341 341 342 341 342 338 334 335 334 335 338 343 347 351 352 351 352 351 350
331 337 339 338 333 336 333 334 335 334 333 332 335 329 329 330 331 331 329 327 326 329 330 334 337 339 340 342 342 337 337 332 330 329 330 334 339 343 346 348 350 350 350
330 337 338 336 335 333 333 334 329 328 331 329 332 333 328 326 327 327 327 325 322 324 326 338 334 337 339 341 340 336 340 331 328 327 326 328 332 336 338 340 340 341 343
328 333 336 336 335 333 333 334 327 328 329 330 330 331 328 323 322 323 324 324 322 318 320 326 327 339 338 340 340 342 343 334 330 327 324 325 327 330 331 331 332 332 332
335 334 334 335 335 334 332 334 331 330 329 326 325 329 328 325 325 323 322 321 321 320 318 325 325 334 340 338 339 342 341 331 329 327 325 324 323 325 326 326 326 327 328
334 333 333 333 333 333 333 333 332 328 326 330 330 327 327 331 323 322 322 321 320 320 315 319 325 332 340 338 339 341 340 342 340 326 326 323 321 321 322 322 323 324 325
330 330 329 329 330 330 332 331 329 327 325 326 326 326 325 322 331 330 323 329 324 327 320 323 324 323 331 338 337 339 338 340 339 329 324 322 320 319 319 319 319 319 319
324 324 325 325 326 326 327 328 328 327 327 329 329 328 328 328 328 323 326 322 320 322 319 317 319 322 324 329 333 336 338 341 339 331 321 321 319 318 318 318 318 317 315
320 320 321 321 321 322 323 324 324 326 329 328 330 329 327 327 327 328 326 327 324 321 319 316 316 318 321 326 329 329 330 337 336 336 331 328 324 320 319 318 318 317 313
316 316 316 316 317 317 316 320 320 321 325 326 328 326 327 325 320 322 322 324 325 319 314 313 313 315 317 320 322 328 329 329 333 336 334 336 338 338 331 319 324 319 314
313 313 313 313 313 313 306 304 309 316 319 319 322 323 326 321 318 313 312 312 317 321 318 312 312 312 317 321 322 322 325 322 322 333 336 331 337 336 335 335 322 316 312
312 312 312 313 313 314 304 302 304 312 313 316 316 317 318 317 318 321 314 310 311 308 309 316 313 315 316 319 324 324 323 324 323 329 331 329 335 332 334 318 311 311 309
311 310 311 312 312 312 302 299 300 309 310 312 315 315 316 318 318 316 318 317 318 319 317 317 319 319 319 321 323 324 325 326 327 327 333 324 333 327 327 319 305 306 306
307 307 307 307 307 307 300 298 299 303 304 305 310 313 314 315 310 303 313 313 316 317 312 306 305 304 303 304 309 321 319 321 317 316 324 319 319 320 325 329 322 304 302
302 302 301 302 302 302 298 296 298 301 303 306 310 311 305 308 302 299 310 312 309 311 313 316 318 313 307 314 306 321 320 318 313 312 318 314 321 320 319 324 326 324 316

GFSMA_sfc_thetae_123.txt.gz
Theta_e
359 356 356 352 351 351 350 351 350 351 349 349 348 344 342 340 339 337 337 351 347 347 348 349 354 356 356 355 358 357 356 354 353 352 350 350 350 350 350 350 350 350 349
365 356 357 355 354 353 352 351 352 353 353 354 352 353 352 351 349 348 340 340 347 347 348 348 351 355 357 358 357 358 356 354 354 353 351 350 349 349 350 350 350 350 349
365 364 355 354 352 357 356 355 354 354 351 351 353 350 349 351 350 354 351 346 343 345 346 348 348 352 356 358 360 359 356 354 354 353 351 350 349 348 349 350 350 350 349
362 363 356 355 357 361 357 355 354 351 351 350 352 351 351 353 351 351 348 351 348 346 345 347 349 350 354 358 360 361 358 354 353 352 351 350 350 349 348 349 349 349 349
359 359 356 359 366 356 354 353 352 355 351 350 346 348 350 350 352 349 353 351 352 349 348 349 348 350 352 355 358 362 360 355 352 351 351 351 351 350 349 349 348 348 348
358 359 358 360 360 356 352 351 359 352 351 349 344 343 348 350 350 351 350 350 350 351 352 355 352 345 349 353 355 358 360 358 354 351 350 349 349 350 349 349 349 348 347
358 363 358 360 359 356 357 357 353 355 347 349 342 342 344 349 352 350 350 350 350 351 354 350 353 351 348 348 349 353 357 359 358 354 349 347 348 349 350 349 348 347 346
361 360 360 357 361 350 356 353 352 344 341 342 335 336 331 335 338 344 349 348 351 347 347 351 351 355 355 352 351 349 353 357 359 358 352 347 347 349 349 349 349 348 346
356 360 357 354 350 347 336 352 347 347 336 338 345 333 330 324 332 339 340 345 345 344 345 348 349 353 356 353 351 351 349 350 354 356 356 351 349 349 350 349 348 348 347
353 350 346 344 348 341 346 342 339 343 341 332 333 336 341 337 327 324 333 336 341 340 349 345 346 348 350 351 350 348 344 346 351 353 354 355 353 352 350 349 348 347 347
345 340 342 344 344 338 346 342 341 345 337 334 330 330 335 330 337 332 324 328 333 335 337 338 344 343 349 348 348 344 338 340 342 345 347 350 352 353 352 350 349 348 348
338 343 338 342 343 342 338 336 341 341 342 338 332 332 326 323 322 323 322 325 325 329 334 337 338 340 343 345 346 338 335 334 334 335 337 341 344 347 348 350 351 351 351
333 345 345 345 338 341 337 341 342 340 338 333 341 328 326 324 325 324 325 323 320 326 328 333 334 338 339 343 343 338 338 331 328 328 330 332 335 338 344 347 349 351 351
334 351 343 341 339 338 340 342 333 331 338 333 338 337 325 323 323 321 319 319 318 320 323 334 330 332 331 334 336 335 340 331 329 326 325 326 329 332 336 340 342 344 346
330 336 339 340 338 339 340 342 331 337 336 337 334 338 331 325 324 322 321 319 317 312 314 322 322 336 334 336 338 337 337 337 331 326 325 325 325 327 330 333 334 336 337
336 334 335 340 339 338 339 341 333 335 336 331 330 333 335 328 329 327 325 323 322 320 315 319 320 330 336 333 333 337 340 332 330 327 326 325 323 323 325 327 328 330 331
335 334 334 333 334 338 340 340 339 336 334 335 333 332 332 334 327 326 326 325 323 323 318 320 324 329 334 333 332 340 338 341 338 328 325 324 321 321 322 323 324 325 327
332 331 331 330 329 331 337 337 334 333 333 331 331 332 330 330 331 331 327 327 324 326 322 321 324 324 328 334 335 338 335 334 337 332 324 323 321 319 319 319 319 321 321
325 325 325 325 326 328 331 333 333 333 332 332 332 331 330 330 328 328 329 327 326 326 326 322 321 322 322 324 326 331 331 337 338 334 324 323 321 319 318 318 317 317 316
322 322 323 322 322 323 324 326 326 329 331 331 331 331 331 329 329 329 327 327 327 325 325 322 321 320 320 324 325 325 325 331 331 336 330 330 326 320 318 318 317 319 316
319 319 318 318 320 321 318 323 325 325 326 326 328 328 329 328 323 324 325 326 325 324 322 320 317 317 316 316 319 317 322 325 330 335 338 339 340 338 334 319 326 321 315
316 316 316 315 318 316 307 305 309 317 318 318 319 321 324 320 321 314 314 314 319 322 321 317 317 316 319 317 318 317 313 319 318 330 335 328 335 340 341 339 323 318 312
319 315 315 314 316 318 306 303 304 314 316 317 318 318 318 315 316 319 315 311 312 310 311 319 317 317 317 320 320 319 315 321 321 325 330 326 334 334 338 325 313 310 309
315 314 314 314 315 315 302 298 300 308 310 311 312 313 314 316 318 317 318 318 318 322 319 314 315 319 321 323 323 320 319 320 323 323 329 322 332 335 330 323 307 308 308
310 309 308 309 308 308 300 296 298 303 304 306 308 310 309 309 306 303 311 314 316 319 314 308 308 306 305 304 308 317 312 311 312 319 325 326 326 330 330 326 318 304 303
303 302 300 301 299 298 297 296 297 298 298 299 301 303 303 303 302 299 311 313 314 315 316 315 311 305 303 311 303 314 315 311 311 316 324 318 318 321 319 325 325 317 319

GFSMA_sfc_thetae_126.txt.gz
Theta_e
356 354 354 349 348 349 347 348 346 350 348 346 345 345 341 341 341 340 337 352 349 348 350 352 352 354 355 354 356 357 356 354 353 352 350 350 350 350 350 350 350 350 349
362 360 360 359 358 358 352 349 351 353 353 354 353 354 352 351 350 349 346 343 348 346 349 351 352 353 355 357 355 356 356 354 354 352 351 350 349 350 350 350 350 350 349
365 363 361 358 358 358 359 358 356 355 353 351 350 349 348 348 348 351 352 349 348 347 347 349 350 352 353 356 358 357 356 354 354 352 351 350 349 349 349 350 350 350 349
361 365 360 359 357 357 356 356 356 354 352 351 349 349 352 352 350 350 348 347 345 346 348 347 349 350 352 354 356 358 357 354 353 351 351 350 350 348 349 349 350 349 349
362 361 360 357 359 357 346 354 356 356 351 351 348 347 350 350 350 348 347 350 350 346 344 349 346 347 350 352 356 358 359 356 352 351 351 350 350 350 348 349 349 349 348
360 361 357 359 354 357 354 355 355 354 354 349 345 342 346 345 344 344 344 347 349 348 347 348 346 343 348 351 354 357 359 359 355 352 350 349 349 350 349 349 348 348 348
358 361 356 358 358 355 356 356 354 353 349 350 346 341 342 342 340 345 346 344 344 346 346 347 352 348 346 348 348 353 357 359 359 356 350 347 348 349 349 349 348 347 347
359 360 359 358 358 350 355 355 350 347 344 344 337 333 327 332 338 338 335 335 341 340 336 341 333 348 349 348 346 348 353 355 357 357 352 347 347 348 349 349 348 348 346
356 360 356 351 354 355 346 353 349 345 339 339 340 332 323 323 327 330 332 334 335 338 342 342 339 336 342 348 349 349 349 350 353 356 355 350 350 349 349 349 348 348 347
357 356 356 356 351 347 342 348 344 342 340 332 334 336 336 331 323 322 330 332 332 333 340 337 330 332 342 343 346 349 346 346 350 351 351 350 352 352 351 349 348 347 347
358 354 352 347 347 345 344 340 339 338 337 335 331 331 331 328 325 328 319 321 326 326 327 328 340 344 342 342 342 341 341 341 342 344 346 348 350 351 351 350 349 348 348
349 346 343 346 347 343 340 339 338 339 338 337 335 331 326 322 322 321 319 319 320 324 326 329 331 332 337 339 343 337 336 333 334 335 337 339 343 345 348 348 348 350 351
340 340 345 344 344 343 342 339 339 336 338 335 335 332 329 324 324 322 319 316 316 318 320 324 330 328 330 329 331 335 337 330 328 327 328 330 334 337 340 342 344 347 351
337 342 343 345 343 342 339 339 336 336 335 334 332 332 328 326 324 321 319 315 311 313 315 317 323 328 327 329 336 336 336 332 330 328 326 325 327 330 332 334 337 341 344
341 341 341 341 342 339 340 339 335 335 334 335 333 334 331 327 326 324 323 321 314 308 310 315 316 322 329 330 330 330 330 334 331 328 326 325 325 326 327 328 330 333 336
341 342 342 341 339 339 338 338 334 334 333 332 330 329 330 328 326 326 323 322 321 316 310 316 317 322 328 328 327 325 325 329 328 327 325 324 323 323 324 325 326 329 331
338 336 336 336 337 338 337 337 335 332 330 332 330 327 327 329 328 323 323 322 320 319 314 316 319 321 323 321 321 324 327 329 329 326 325 324 322 320 321 322 322 325 327
332 331 332 331 331 331 333 334 331 330 330 329 328 328 327 327 326 325 325 322 321 320 317 313 317 319 319 325 319 319 319 324 323 324 325 324 321 319 319 318 318 320 321
327 327 326 325 324 325 326 327 328 329 328 328 328 327 326 326 324 324 325 323 323 323 322 319 317 320 319 318 316 319 320 322 326 329 324 323 321 319 319 317 316 316 317
323 323 323 322 322 322 322 322 322 323 323 324 327 327 326 325 324 324 323 322 322 321 319 318 317 317 317 318 318 314 314 319 319 327 327 325 324 322 319 317 317 317 315
320 319 318 318 318 318 317 317 318 317 317 317 319 320 322 323 321 321 323 321 321 319 318 317 316 316 316 313 312 314 313 314 315 320 323 327 327 330 332 318 321 319 315
318 318 316 315 314 315 307 307 309 312 313 313 312 314 315 316 315 312 312 314 316 318 316 315 315 314 313 315 316 312 312 309 306 316 320 319 325 325 331 335 320 318 312
317 315 314 313 312 313 305 302 303 308 309 310 311 312 312 314 313 314 313 310 310 309 310 315 315 314 314 315 314 313 311 310 308 314 316 313 321 322 328 321 310 313 311
312 311 312 312 311 310 300 297 298 304 306 307 307 307 308 308 309 309 310 311 313 314 315 316 314 314 316 317 316 315 313 313 313 313 315 312 317 320 324 314 306 308 308
306 306 306 306 306 305 299 297 297 299 299 300 302 303 303 304 302 299 303 304 306 309 311 308 306 307 305 304 309 315 311 310 307 307 311 315 317 318 322 320 311 305 303
301 301 299 298 297 298 297 295 295 297 296 297 299 301 301 300 298 297 301 302 304 307 311 313 314 307 304 309 304 313 312 308 308 305 310 314 315 316 315 323 315 313 307